<?xml version="1.0" encoding="UTF-8" standalone="no" ?>
<gpx xmlns="http://www.topografix.com/GPX/1/1" xmlns:xsi="http://www.w3.org/2001/XMLSchema-instance" xsi:schemaLocation="http://www.topografix.com/GPX/1/1 http://www.topografix.com/GPX/1/1/gpx.xsd" version="1.1" creator="VisuGPX - https://www.visugpx.com">
  <metadata>
    <name>Cyclo - Tour Jura 5ème</name>
    <desc><![CDATA[Superbe virée]]></desc>
  </metadata>
  <trk>
    <name><![CDATA[05-AOU-14 16:22:04]]></name>
    <trkseg>
      <trkpt lat="46.94716" lon="5.87925">
        <ele>290.46</ele>
        <time>2014-08-05T06:02:59Z</time>
      </trkpt>
      <trkpt lat="46.94718" lon="5.87922">
        <ele>291.42</ele>
        <time>2014-08-05T06:03:17Z</time>
      </trkpt>
      <trkpt lat="46.94695" lon="5.87911">
        <ele>289.01</ele>
        <time>2014-08-05T06:34:29Z</time>
      </trkpt>
      <trkpt lat="46.94694" lon="5.87908">
        <ele>288.53</ele>
        <time>2014-08-05T06:34:30Z</time>
      </trkpt>
      <trkpt lat="46.94701" lon="5.87903">
        <ele>292.38</ele>
        <time>2014-08-05T06:34:54Z</time>
      </trkpt>
      <trkpt lat="46.94701" lon="5.87903">
        <ele>295.26</ele>
        <time>2014-08-05T06:34:56Z</time>
      </trkpt>
      <trkpt lat="46.94701" lon="5.87903">
        <ele>299.59</ele>
        <time>2014-08-05T06:34:59Z</time>
      </trkpt>
      <trkpt lat="46.94701" lon="5.87903">
        <ele>303.91</ele>
        <time>2014-08-05T06:35:02Z</time>
      </trkpt>
      <trkpt lat="46.94699" lon="5.87912">
        <ele>307.28</ele>
        <time>2014-08-05T06:35:05Z</time>
      </trkpt>
      <trkpt lat="46.94702" lon="5.87914">
        <ele>310.64</ele>
        <time>2014-08-05T06:35:09Z</time>
      </trkpt>
      <trkpt lat="46.94702" lon="5.87914">
        <ele>314.49</ele>
        <time>2014-08-05T06:35:13Z</time>
      </trkpt>
      <trkpt lat="46.94702" lon="5.87914">
        <ele>317.37</ele>
        <time>2014-08-05T06:35:17Z</time>
      </trkpt>
      <trkpt lat="46.94703" lon="5.87914">
        <ele>320.74</ele>
        <time>2014-08-05T06:35:22Z</time>
      </trkpt>
      <trkpt lat="46.94703" lon="5.87916">
        <ele>324.1</ele>
        <time>2014-08-05T06:35:28Z</time>
      </trkpt>
      <trkpt lat="46.94702" lon="5.87917">
        <ele>327.47</ele>
        <time>2014-08-05T06:35:35Z</time>
      </trkpt>
      <trkpt lat="46.94701" lon="5.87913">
        <ele>330.35</ele>
        <time>2014-08-05T06:35:50Z</time>
      </trkpt>
      <trkpt lat="46.94702" lon="5.87914">
        <ele>330.83</ele>
        <time>2014-08-05T06:36:21Z</time>
      </trkpt>
      <trkpt lat="46.94702" lon="5.87914">
        <ele>330.83</ele>
        <time>2014-08-05T06:36:56Z</time>
      </trkpt>
      <trkpt lat="46.94702" lon="5.87914">
        <ele>330.83</ele>
        <time>2014-08-05T06:37:02Z</time>
      </trkpt>
      <trkpt lat="46.94683" lon="5.87905">
        <ele>330.83</ele>
        <time>2014-08-05T06:37:14Z</time>
      </trkpt>
      <trkpt lat="46.94661" lon="5.87898">
        <ele>331.31</ele>
        <time>2014-08-05T06:37:25Z</time>
      </trkpt>
      <trkpt lat="46.94636" lon="5.87872">
        <ele>331.31</ele>
        <time>2014-08-05T06:37:38Z</time>
      </trkpt>
      <trkpt lat="46.94621" lon="5.8786">
        <ele>330.83</ele>
        <time>2014-08-05T06:37:44Z</time>
      </trkpt>
      <trkpt lat="46.94604" lon="5.87868">
        <ele>331.31</ele>
        <time>2014-08-05T06:37:50Z</time>
      </trkpt>
      <trkpt lat="46.94551" lon="5.87881">
        <ele>332.27</ele>
        <time>2014-08-05T06:38:07Z</time>
      </trkpt>
      <trkpt lat="46.94502" lon="5.87886">
        <ele>332.27</ele>
        <time>2014-08-05T06:38:21Z</time>
      </trkpt>
      <trkpt lat="46.94433" lon="5.8789">
        <ele>333.23</ele>
        <time>2014-08-05T06:38:40Z</time>
      </trkpt>
      <trkpt lat="46.94389" lon="5.8789">
        <ele>333.71</ele>
        <time>2014-08-05T06:38:52Z</time>
      </trkpt>
      <trkpt lat="46.94342" lon="5.87894">
        <ele>334.68</ele>
        <time>2014-08-05T06:39:04Z</time>
      </trkpt>
      <trkpt lat="46.94292" lon="5.87899">
        <ele>335.64</ele>
        <time>2014-08-05T06:39:17Z</time>
      </trkpt>
      <trkpt lat="46.94246" lon="5.87876">
        <ele>337.08</ele>
        <time>2014-08-05T06:39:30Z</time>
      </trkpt>
      <trkpt lat="46.94204" lon="5.87843">
        <ele>337.56</ele>
        <time>2014-08-05T06:39:43Z</time>
      </trkpt>
      <trkpt lat="46.94162" lon="5.87816">
        <ele>339</ele>
        <time>2014-08-05T06:39:56Z</time>
      </trkpt>
      <trkpt lat="46.94133" lon="5.87812">
        <ele>339.48</ele>
        <time>2014-08-05T06:40:04Z</time>
      </trkpt>
      <trkpt lat="46.9412" lon="5.87816">
        <ele>339.96</ele>
        <time>2014-08-05T06:40:08Z</time>
      </trkpt>
      <trkpt lat="46.94073" lon="5.87814">
        <ele>340.92</ele>
        <time>2014-08-05T06:40:21Z</time>
      </trkpt>
      <trkpt lat="46.94061" lon="5.8781">
        <ele>341.41</ele>
        <time>2014-08-05T06:40:24Z</time>
      </trkpt>
      <trkpt lat="46.94025" lon="5.87809">
        <ele>342.37</ele>
        <time>2014-08-05T06:40:35Z</time>
      </trkpt>
      <trkpt lat="46.93987" lon="5.87805">
        <ele>342.37</ele>
        <time>2014-08-05T06:40:45Z</time>
      </trkpt>
      <trkpt lat="46.93957" lon="5.87806">
        <ele>341.89</ele>
        <time>2014-08-05T06:40:54Z</time>
      </trkpt>
      <trkpt lat="46.93931" lon="5.87775">
        <ele>341.41</ele>
        <time>2014-08-05T06:40:59Z</time>
      </trkpt>
      <trkpt lat="46.93855" lon="5.87748">
        <ele>339.48</ele>
        <time>2014-08-05T06:41:13Z</time>
      </trkpt>
      <trkpt lat="46.93851" lon="5.87746">
        <ele>339.96</ele>
        <time>2014-08-05T06:41:14Z</time>
      </trkpt>
      <trkpt lat="46.938" lon="5.87731">
        <ele>339.96</ele>
        <time>2014-08-05T06:41:28Z</time>
      </trkpt>
      <trkpt lat="46.9376" lon="5.87724">
        <ele>340.44</ele>
        <time>2014-08-05T06:41:38Z</time>
      </trkpt>
      <trkpt lat="46.93751" lon="5.87722">
        <ele>340.44</ele>
        <time>2014-08-05T06:41:40Z</time>
      </trkpt>
      <trkpt lat="46.93732" lon="5.87721">
        <ele>340.92</ele>
        <time>2014-08-05T06:41:45Z</time>
      </trkpt>
      <trkpt lat="46.9372" lon="5.87722">
        <ele>340.92</ele>
        <time>2014-08-05T06:41:50Z</time>
      </trkpt>
      <trkpt lat="46.93711" lon="5.87726">
        <ele>340.92</ele>
        <time>2014-08-05T06:41:56Z</time>
      </trkpt>
      <trkpt lat="46.93675" lon="5.87736">
        <ele>340.92</ele>
        <time>2014-08-05T06:42:08Z</time>
      </trkpt>
      <trkpt lat="46.93631" lon="5.87738">
        <ele>341.41</ele>
        <time>2014-08-05T06:42:20Z</time>
      </trkpt>
      <trkpt lat="46.93626" lon="5.87743">
        <ele>341.41</ele>
        <time>2014-08-05T06:42:34Z</time>
      </trkpt>
      <trkpt lat="46.93626" lon="5.87744">
        <ele>341.41</ele>
        <time>2014-08-05T06:42:52Z</time>
      </trkpt>
      <trkpt lat="46.93627" lon="5.87744">
        <ele>339.96</ele>
        <time>2014-08-05T06:43:04Z</time>
      </trkpt>
      <trkpt lat="46.93615" lon="5.87732">
        <ele>341.89</ele>
        <time>2014-08-05T06:45:13Z</time>
      </trkpt>
      <trkpt lat="46.93617" lon="5.87735">
        <ele>341.89</ele>
        <time>2014-08-05T06:45:14Z</time>
      </trkpt>
      <trkpt lat="46.93623" lon="5.87743">
        <ele>341.89</ele>
        <time>2014-08-05T06:45:16Z</time>
      </trkpt>
      <trkpt lat="46.93619" lon="5.87746">
        <ele>341.89</ele>
        <time>2014-08-05T06:45:19Z</time>
      </trkpt>
      <trkpt lat="46.93587" lon="5.87752">
        <ele>342.37</ele>
        <time>2014-08-05T06:45:31Z</time>
      </trkpt>
      <trkpt lat="46.93544" lon="5.87755">
        <ele>342.37</ele>
        <time>2014-08-05T06:45:44Z</time>
      </trkpt>
      <trkpt lat="46.93509" lon="5.8776">
        <ele>342.85</ele>
        <time>2014-08-05T06:45:54Z</time>
      </trkpt>
      <trkpt lat="46.93463" lon="5.87769">
        <ele>343.33</ele>
        <time>2014-08-05T06:46:08Z</time>
      </trkpt>
      <trkpt lat="46.93424" lon="5.87774">
        <ele>343.81</ele>
        <time>2014-08-05T06:46:21Z</time>
      </trkpt>
      <trkpt lat="46.93382" lon="5.87787">
        <ele>344.77</ele>
        <time>2014-08-05T06:46:32Z</time>
      </trkpt>
      <trkpt lat="46.93361" lon="5.87793">
        <ele>344.77</ele>
        <time>2014-08-05T06:46:37Z</time>
      </trkpt>
      <trkpt lat="46.93322" lon="5.87821">
        <ele>346.21</ele>
        <time>2014-08-05T06:46:48Z</time>
      </trkpt>
      <trkpt lat="46.93283" lon="5.87858">
        <ele>348.13</ele>
        <time>2014-08-05T06:47:02Z</time>
      </trkpt>
      <trkpt lat="46.93263" lon="5.87894">
        <ele>348.62</ele>
        <time>2014-08-05T06:47:15Z</time>
      </trkpt>
      <trkpt lat="46.93256" lon="5.87906">
        <ele>348.62</ele>
        <time>2014-08-05T06:47:20Z</time>
      </trkpt>
      <trkpt lat="46.93248" lon="5.87937">
        <ele>348.13</ele>
        <time>2014-08-05T06:47:32Z</time>
      </trkpt>
      <trkpt lat="46.93247" lon="5.87944">
        <ele>348.13</ele>
        <time>2014-08-05T06:47:50Z</time>
      </trkpt>
      <trkpt lat="46.93246" lon="5.87958">
        <ele>348.13</ele>
        <time>2014-08-05T06:48:02Z</time>
      </trkpt>
      <trkpt lat="46.93245" lon="5.87979">
        <ele>348.13</ele>
        <time>2014-08-05T06:48:13Z</time>
      </trkpt>
      <trkpt lat="46.93227" lon="5.88033">
        <ele>347.65</ele>
        <time>2014-08-05T06:48:26Z</time>
      </trkpt>
      <trkpt lat="46.93209" lon="5.88086">
        <ele>347.65</ele>
        <time>2014-08-05T06:48:36Z</time>
      </trkpt>
      <trkpt lat="46.93175" lon="5.88168">
        <ele>347.65</ele>
        <time>2014-08-05T06:48:51Z</time>
      </trkpt>
      <trkpt lat="46.93133" lon="5.88229">
        <ele>350.06</ele>
        <time>2014-08-05T06:49:07Z</time>
      </trkpt>
      <trkpt lat="46.93103" lon="5.88268">
        <ele>352.94</ele>
        <time>2014-08-05T06:49:22Z</time>
      </trkpt>
      <trkpt lat="46.93066" lon="5.88309">
        <ele>353.9</ele>
        <time>2014-08-05T06:49:36Z</time>
      </trkpt>
      <trkpt lat="46.93037" lon="5.88337">
        <ele>354.38</ele>
        <time>2014-08-05T06:49:50Z</time>
      </trkpt>
      <trkpt lat="46.93036" lon="5.88338">
        <ele>354.38</ele>
        <time>2014-08-05T06:50:01Z</time>
      </trkpt>
      <trkpt lat="46.93035" lon="5.8834">
        <ele>354.38</ele>
        <time>2014-08-05T06:50:02Z</time>
      </trkpt>
      <trkpt lat="46.93035" lon="5.88341">
        <ele>354.86</ele>
        <time>2014-08-05T06:50:03Z</time>
      </trkpt>
      <trkpt lat="46.93034" lon="5.88343">
        <ele>354.38</ele>
        <time>2014-08-05T06:50:04Z</time>
      </trkpt>
      <trkpt lat="46.93032" lon="5.88346">
        <ele>354.86</ele>
        <time>2014-08-05T06:50:05Z</time>
      </trkpt>
      <trkpt lat="46.93031" lon="5.88349">
        <ele>354.38</ele>
        <time>2014-08-05T06:50:06Z</time>
      </trkpt>
      <trkpt lat="46.93029" lon="5.88351">
        <ele>354.38</ele>
        <time>2014-08-05T06:50:07Z</time>
      </trkpt>
      <trkpt lat="46.93028" lon="5.88354">
        <ele>354.38</ele>
        <time>2014-08-05T06:50:08Z</time>
      </trkpt>
      <trkpt lat="46.93005" lon="5.88402">
        <ele>353.9</ele>
        <time>2014-08-05T06:50:20Z</time>
      </trkpt>
      <trkpt lat="46.93001" lon="5.88414">
        <ele>353.9</ele>
        <time>2014-08-05T06:50:22Z</time>
      </trkpt>
      <trkpt lat="46.92999" lon="5.88419">
        <ele>353.9</ele>
        <time>2014-08-05T06:50:23Z</time>
      </trkpt>
      <trkpt lat="46.92993" lon="5.88428">
        <ele>354.38</ele>
        <time>2014-08-05T06:50:25Z</time>
      </trkpt>
      <trkpt lat="46.92984" lon="5.8844">
        <ele>354.38</ele>
        <time>2014-08-05T06:50:28Z</time>
      </trkpt>
      <trkpt lat="46.92979" lon="5.88451">
        <ele>354.38</ele>
        <time>2014-08-05T06:50:30Z</time>
      </trkpt>
      <trkpt lat="46.92977" lon="5.88456">
        <ele>354.38</ele>
        <time>2014-08-05T06:50:31Z</time>
      </trkpt>
      <trkpt lat="46.92976" lon="5.88461">
        <ele>354.38</ele>
        <time>2014-08-05T06:50:32Z</time>
      </trkpt>
      <trkpt lat="46.92975" lon="5.88466">
        <ele>354.86</ele>
        <time>2014-08-05T06:50:33Z</time>
      </trkpt>
      <trkpt lat="46.92973" lon="5.88471">
        <ele>354.38</ele>
        <time>2014-08-05T06:50:34Z</time>
      </trkpt>
      <trkpt lat="46.92971" lon="5.88476">
        <ele>354.38</ele>
        <time>2014-08-05T06:50:35Z</time>
      </trkpt>
      <trkpt lat="46.9297" lon="5.88481">
        <ele>354.86</ele>
        <time>2014-08-05T06:50:36Z</time>
      </trkpt>
      <trkpt lat="46.92969" lon="5.88486">
        <ele>354.86</ele>
        <time>2014-08-05T06:50:37Z</time>
      </trkpt>
      <trkpt lat="46.92967" lon="5.8849">
        <ele>354.86</ele>
        <time>2014-08-05T06:50:38Z</time>
      </trkpt>
      <trkpt lat="46.92966" lon="5.88495">
        <ele>354.86</ele>
        <time>2014-08-05T06:50:39Z</time>
      </trkpt>
      <trkpt lat="46.92965" lon="5.885">
        <ele>354.86</ele>
        <time>2014-08-05T06:50:40Z</time>
      </trkpt>
      <trkpt lat="46.92964" lon="5.88504">
        <ele>354.86</ele>
        <time>2014-08-05T06:50:41Z</time>
      </trkpt>
      <trkpt lat="46.92962" lon="5.88509">
        <ele>354.86</ele>
        <time>2014-08-05T06:50:42Z</time>
      </trkpt>
      <trkpt lat="46.92958" lon="5.88521">
        <ele>354.86</ele>
        <time>2014-08-05T06:50:52Z</time>
      </trkpt>
      <trkpt lat="46.92963" lon="5.88527">
        <ele>354.86</ele>
        <time>2014-08-05T06:51:03Z</time>
      </trkpt>
      <trkpt lat="46.92962" lon="5.88533">
        <ele>355.34</ele>
        <time>2014-08-05T06:55:42Z</time>
      </trkpt>
      <trkpt lat="46.92962" lon="5.88533">
        <ele>355.34</ele>
        <time>2014-08-05T06:55:43Z</time>
      </trkpt>
      <trkpt lat="46.92965" lon="5.88531">
        <ele>358.71</ele>
        <time>2014-08-05T06:55:56Z</time>
      </trkpt>
      <trkpt lat="46.92968" lon="5.88532">
        <ele>360.15</ele>
        <time>2014-08-05T06:56:02Z</time>
      </trkpt>
      <trkpt lat="46.92959" lon="5.88555">
        <ele>362.55</ele>
        <time>2014-08-05T06:56:13Z</time>
      </trkpt>
      <trkpt lat="46.92933" lon="5.88589">
        <ele>365.92</ele>
        <time>2014-08-05T06:56:26Z</time>
      </trkpt>
      <trkpt lat="46.9291" lon="5.88637">
        <ele>369.28</ele>
        <time>2014-08-05T06:56:38Z</time>
      </trkpt>
      <trkpt lat="46.9288" lon="5.88675">
        <ele>372.17</ele>
        <time>2014-08-05T06:56:51Z</time>
      </trkpt>
      <trkpt lat="46.92843" lon="5.88683">
        <ele>374.57</ele>
        <time>2014-08-05T06:57:04Z</time>
      </trkpt>
      <trkpt lat="46.92826" lon="5.88689">
        <ele>375.05</ele>
        <time>2014-08-05T06:57:15Z</time>
      </trkpt>
      <trkpt lat="46.92826" lon="5.88688">
        <ele>375.05</ele>
        <time>2014-08-05T06:57:49Z</time>
      </trkpt>
      <trkpt lat="46.92819" lon="5.8868">
        <ele>375.05</ele>
        <time>2014-08-05T06:57:54Z</time>
      </trkpt>
      <trkpt lat="46.92765" lon="5.88661">
        <ele>375.05</ele>
        <time>2014-08-05T06:58:12Z</time>
      </trkpt>
      <trkpt lat="46.92713" lon="5.88646">
        <ele>375.53</ele>
        <time>2014-08-05T06:58:28Z</time>
      </trkpt>
      <trkpt lat="46.92667" lon="5.88629">
        <ele>375.53</ele>
        <time>2014-08-05T06:58:41Z</time>
      </trkpt>
      <trkpt lat="46.92606" lon="5.88616">
        <ele>376.01</ele>
        <time>2014-08-05T06:58:56Z</time>
      </trkpt>
      <trkpt lat="46.92559" lon="5.88608">
        <ele>377.45</ele>
        <time>2014-08-05T06:59:10Z</time>
      </trkpt>
      <trkpt lat="46.92503" lon="5.886">
        <ele>378.42</ele>
        <time>2014-08-05T06:59:26Z</time>
      </trkpt>
      <trkpt lat="46.92447" lon="5.88594">
        <ele>379.38</ele>
        <time>2014-08-05T06:59:42Z</time>
      </trkpt>
      <trkpt lat="46.92426" lon="5.88588">
        <ele>379.86</ele>
        <time>2014-08-05T06:59:49Z</time>
      </trkpt>
      <trkpt lat="46.92416" lon="5.88584">
        <ele>380.34</ele>
        <time>2014-08-05T06:59:52Z</time>
      </trkpt>
      <trkpt lat="46.92361" lon="5.8859">
        <ele>381.3</ele>
        <time>2014-08-05T07:00:08Z</time>
      </trkpt>
      <trkpt lat="46.92314" lon="5.88596">
        <ele>381.3</ele>
        <time>2014-08-05T07:00:21Z</time>
      </trkpt>
      <trkpt lat="46.92257" lon="5.88603">
        <ele>382.26</ele>
        <time>2014-08-05T07:00:36Z</time>
      </trkpt>
      <trkpt lat="46.922" lon="5.88613">
        <ele>384.18</ele>
        <time>2014-08-05T07:00:52Z</time>
      </trkpt>
      <trkpt lat="46.92149" lon="5.88623">
        <ele>385.63</ele>
        <time>2014-08-05T07:01:07Z</time>
      </trkpt>
      <trkpt lat="46.92084" lon="5.88633">
        <ele>387.07</ele>
        <time>2014-08-05T07:01:26Z</time>
      </trkpt>
      <trkpt lat="46.92025" lon="5.88645">
        <ele>388.51</ele>
        <time>2014-08-05T07:01:44Z</time>
      </trkpt>
      <trkpt lat="46.91973" lon="5.88655">
        <ele>388.99</ele>
        <time>2014-08-05T07:02:00Z</time>
      </trkpt>
      <trkpt lat="46.91929" lon="5.88662">
        <ele>389.95</ele>
        <time>2014-08-05T07:02:13Z</time>
      </trkpt>
      <trkpt lat="46.91879" lon="5.8867">
        <ele>390.43</ele>
        <time>2014-08-05T07:02:27Z</time>
      </trkpt>
      <trkpt lat="46.91819" lon="5.88678">
        <ele>390.91</ele>
        <time>2014-08-05T07:02:44Z</time>
      </trkpt>
      <trkpt lat="46.9176" lon="5.88669">
        <ele>392.36</ele>
        <time>2014-08-05T07:03:01Z</time>
      </trkpt>
      <trkpt lat="46.91721" lon="5.88665">
        <ele>393.32</ele>
        <time>2014-08-05T07:03:14Z</time>
      </trkpt>
      <trkpt lat="46.91675" lon="5.88673">
        <ele>395.24</ele>
        <time>2014-08-05T07:03:32Z</time>
      </trkpt>
      <trkpt lat="46.9163" lon="5.88684">
        <ele>397.16</ele>
        <time>2014-08-05T07:03:50Z</time>
      </trkpt>
      <trkpt lat="46.91619" lon="5.8868">
        <ele>397.64</ele>
        <time>2014-08-05T07:03:56Z</time>
      </trkpt>
      <trkpt lat="46.91619" lon="5.88682">
        <ele>397.64</ele>
        <time>2014-08-05T07:04:03Z</time>
      </trkpt>
      <trkpt lat="46.91616" lon="5.88683">
        <ele>396.68</ele>
        <time>2014-08-05T07:04:14Z</time>
      </trkpt>
      <trkpt lat="46.91619" lon="5.88679">
        <ele>397.16</ele>
        <time>2014-08-05T07:24:25Z</time>
      </trkpt>
      <trkpt lat="46.91618" lon="5.88679">
        <ele>396.68</ele>
        <time>2014-08-05T07:24:26Z</time>
      </trkpt>
      <trkpt lat="46.91621" lon="5.8869">
        <ele>393.8</ele>
        <time>2014-08-05T07:24:40Z</time>
      </trkpt>
      <trkpt lat="46.9162" lon="5.88688">
        <ele>390.91</ele>
        <time>2014-08-05T07:24:53Z</time>
      </trkpt>
      <trkpt lat="46.91616" lon="5.88689">
        <ele>388.03</ele>
        <time>2014-08-05T07:25:10Z</time>
      </trkpt>
      <trkpt lat="46.91582" lon="5.88695">
        <ele>388.99</ele>
        <time>2014-08-05T07:25:26Z</time>
      </trkpt>
      <trkpt lat="46.91545" lon="5.88704">
        <ele>391.39</ele>
        <time>2014-08-05T07:25:43Z</time>
      </trkpt>
      <trkpt lat="46.91508" lon="5.88703">
        <ele>393.8</ele>
        <time>2014-08-05T07:26:00Z</time>
      </trkpt>
      <trkpt lat="46.91477" lon="5.88692">
        <ele>395.72</ele>
        <time>2014-08-05T07:26:15Z</time>
      </trkpt>
      <trkpt lat="46.91447" lon="5.88683">
        <ele>397.64</ele>
        <time>2014-08-05T07:26:30Z</time>
      </trkpt>
      <trkpt lat="46.91418" lon="5.88689">
        <ele>400.53</ele>
        <time>2014-08-05T07:26:44Z</time>
      </trkpt>
      <trkpt lat="46.9139" lon="5.88721">
        <ele>403.41</ele>
        <time>2014-08-05T07:27:02Z</time>
      </trkpt>
      <trkpt lat="46.91378" lon="5.88758">
        <ele>405.33</ele>
        <time>2014-08-05T07:27:16Z</time>
      </trkpt>
      <trkpt lat="46.91366" lon="5.88804">
        <ele>408.22</ele>
        <time>2014-08-05T07:27:32Z</time>
      </trkpt>
      <trkpt lat="46.91349" lon="5.88838">
        <ele>410.62</ele>
        <time>2014-08-05T07:27:47Z</time>
      </trkpt>
      <trkpt lat="46.91327" lon="5.88874">
        <ele>413.5</ele>
        <time>2014-08-05T07:28:04Z</time>
      </trkpt>
      <trkpt lat="46.91294" lon="5.88893">
        <ele>415.43</ele>
        <time>2014-08-05T07:28:18Z</time>
      </trkpt>
      <trkpt lat="46.91252" lon="5.88891">
        <ele>417.35</ele>
        <time>2014-08-05T07:28:36Z</time>
      </trkpt>
      <trkpt lat="46.91206" lon="5.88893">
        <ele>418.79</ele>
        <time>2014-08-05T07:28:55Z</time>
      </trkpt>
      <trkpt lat="46.91169" lon="5.88894">
        <ele>420.23</ele>
        <time>2014-08-05T07:29:09Z</time>
      </trkpt>
      <trkpt lat="46.91133" lon="5.88901">
        <ele>421.68</ele>
        <time>2014-08-05T07:29:24Z</time>
      </trkpt>
      <trkpt lat="46.91107" lon="5.88921">
        <ele>423.12</ele>
        <time>2014-08-05T07:29:36Z</time>
      </trkpt>
      <trkpt lat="46.91086" lon="5.8896">
        <ele>423.12</ele>
        <time>2014-08-05T07:29:48Z</time>
      </trkpt>
      <trkpt lat="46.91044" lon="5.88996">
        <ele>424.08</ele>
        <time>2014-08-05T07:30:02Z</time>
      </trkpt>
      <trkpt lat="46.90998" lon="5.89025">
        <ele>426</ele>
        <time>2014-08-05T07:30:16Z</time>
      </trkpt>
      <trkpt lat="46.90951" lon="5.89039">
        <ele>428.4</ele>
        <time>2014-08-05T07:30:31Z</time>
      </trkpt>
      <trkpt lat="46.90939" lon="5.89041">
        <ele>428.4</ele>
        <time>2014-08-05T07:30:35Z</time>
      </trkpt>
      <trkpt lat="46.90902" lon="5.89046">
        <ele>431.29</ele>
        <time>2014-08-05T07:30:49Z</time>
      </trkpt>
      <trkpt lat="46.90864" lon="5.89047">
        <ele>433.69</ele>
        <time>2014-08-05T07:31:04Z</time>
      </trkpt>
      <trkpt lat="46.90826" lon="5.89049">
        <ele>436.1</ele>
        <time>2014-08-05T07:31:21Z</time>
      </trkpt>
      <trkpt lat="46.90787" lon="5.89051">
        <ele>438.02</ele>
        <time>2014-08-05T07:31:37Z</time>
      </trkpt>
      <trkpt lat="46.90753" lon="5.89047">
        <ele>439.94</ele>
        <time>2014-08-05T07:31:52Z</time>
      </trkpt>
      <trkpt lat="46.90709" lon="5.89046">
        <ele>442.82</ele>
        <time>2014-08-05T07:32:12Z</time>
      </trkpt>
      <trkpt lat="46.90675" lon="5.89048">
        <ele>445.71</ele>
        <time>2014-08-05T07:32:29Z</time>
      </trkpt>
      <trkpt lat="46.90638" lon="5.89048">
        <ele>448.59</ele>
        <time>2014-08-05T07:32:46Z</time>
      </trkpt>
      <trkpt lat="46.90609" lon="5.89047">
        <ele>451</ele>
        <time>2014-08-05T07:33:00Z</time>
      </trkpt>
      <trkpt lat="46.90585" lon="5.89042">
        <ele>452.44</ele>
        <time>2014-08-05T07:33:11Z</time>
      </trkpt>
      <trkpt lat="46.90551" lon="5.89037">
        <ele>454.84</ele>
        <time>2014-08-05T07:33:26Z</time>
      </trkpt>
      <trkpt lat="46.90508" lon="5.89025">
        <ele>457.72</ele>
        <time>2014-08-05T07:33:45Z</time>
      </trkpt>
      <trkpt lat="46.90473" lon="5.89009">
        <ele>459.65</ele>
        <time>2014-08-05T07:34:01Z</time>
      </trkpt>
      <trkpt lat="46.90437" lon="5.88988">
        <ele>461.57</ele>
        <time>2014-08-05T07:34:17Z</time>
      </trkpt>
      <trkpt lat="46.90401" lon="5.88989">
        <ele>463.97</ele>
        <time>2014-08-05T07:34:33Z</time>
      </trkpt>
      <trkpt lat="46.90374" lon="5.88995">
        <ele>465.42</ele>
        <time>2014-08-05T07:34:44Z</time>
      </trkpt>
      <trkpt lat="46.90335" lon="5.8898">
        <ele>466.38</ele>
        <time>2014-08-05T07:34:58Z</time>
      </trkpt>
      <trkpt lat="46.90282" lon="5.8897">
        <ele>467.34</ele>
        <time>2014-08-05T07:35:15Z</time>
      </trkpt>
      <trkpt lat="46.90213" lon="5.88963">
        <ele>468.78</ele>
        <time>2014-08-05T07:35:34Z</time>
      </trkpt>
      <trkpt lat="46.90163" lon="5.88977">
        <ele>468.78</ele>
        <time>2014-08-05T07:35:48Z</time>
      </trkpt>
      <trkpt lat="46.9013" lon="5.89031">
        <ele>469.74</ele>
        <time>2014-08-05T07:36:02Z</time>
      </trkpt>
      <trkpt lat="46.90119" lon="5.89109">
        <ele>469.74</ele>
        <time>2014-08-05T07:36:17Z</time>
      </trkpt>
      <trkpt lat="46.90109" lon="5.89174">
        <ele>472.14</ele>
        <time>2014-08-05T07:36:30Z</time>
      </trkpt>
      <trkpt lat="46.90094" lon="5.89216">
        <ele>473.11</ele>
        <time>2014-08-05T07:36:42Z</time>
      </trkpt>
      <trkpt lat="46.90065" lon="5.89248">
        <ele>475.03</ele>
        <time>2014-08-05T07:36:54Z</time>
      </trkpt>
      <trkpt lat="46.90035" lon="5.89271">
        <ele>476.95</ele>
        <time>2014-08-05T07:37:07Z</time>
      </trkpt>
      <trkpt lat="46.90011" lon="5.89291">
        <ele>478.87</ele>
        <time>2014-08-05T07:37:20Z</time>
      </trkpt>
      <trkpt lat="46.89976" lon="5.89295">
        <ele>480.8</ele>
        <time>2014-08-05T07:37:32Z</time>
      </trkpt>
      <trkpt lat="46.89939" lon="5.89294">
        <ele>482.24</ele>
        <time>2014-08-05T07:37:46Z</time>
      </trkpt>
      <trkpt lat="46.89904" lon="5.89282">
        <ele>483.2</ele>
        <time>2014-08-05T07:38:00Z</time>
      </trkpt>
      <trkpt lat="46.89869" lon="5.89269">
        <ele>485.12</ele>
        <time>2014-08-05T07:38:14Z</time>
      </trkpt>
      <trkpt lat="46.89832" lon="5.89271">
        <ele>487.05</ele>
        <time>2014-08-05T07:38:29Z</time>
      </trkpt>
      <trkpt lat="46.89792" lon="5.89293">
        <ele>488.49</ele>
        <time>2014-08-05T07:38:45Z</time>
      </trkpt>
      <trkpt lat="46.89762" lon="5.89298">
        <ele>489.93</ele>
        <time>2014-08-05T07:38:57Z</time>
      </trkpt>
      <trkpt lat="46.8972" lon="5.89306">
        <ele>491.85</ele>
        <time>2014-08-05T07:39:14Z</time>
      </trkpt>
      <trkpt lat="46.8968" lon="5.89306">
        <ele>494.26</ele>
        <time>2014-08-05T07:39:31Z</time>
      </trkpt>
      <trkpt lat="46.89641" lon="5.89298">
        <ele>496.18</ele>
        <time>2014-08-05T07:39:47Z</time>
      </trkpt>
      <trkpt lat="46.89606" lon="5.89286">
        <ele>498.1</ele>
        <time>2014-08-05T07:40:02Z</time>
      </trkpt>
      <trkpt lat="46.89568" lon="5.89283">
        <ele>499.54</ele>
        <time>2014-08-05T07:40:18Z</time>
      </trkpt>
      <trkpt lat="46.8953" lon="5.89294">
        <ele>501.95</ele>
        <time>2014-08-05T07:40:35Z</time>
      </trkpt>
      <trkpt lat="46.89488" lon="5.89316">
        <ele>503.87</ele>
        <time>2014-08-05T07:40:53Z</time>
      </trkpt>
      <trkpt lat="46.89452" lon="5.89333">
        <ele>504.83</ele>
        <time>2014-08-05T07:41:08Z</time>
      </trkpt>
      <trkpt lat="46.89424" lon="5.89342">
        <ele>506.27</ele>
        <time>2014-08-05T07:41:20Z</time>
      </trkpt>
      <trkpt lat="46.89415" lon="5.89347">
        <ele>506.75</ele>
        <time>2014-08-05T07:41:25Z</time>
      </trkpt>
      <trkpt lat="46.89403" lon="5.89356">
        <ele>508.19</ele>
        <time>2014-08-05T07:41:32Z</time>
      </trkpt>
      <trkpt lat="46.89376" lon="5.89371">
        <ele>509.64</ele>
        <time>2014-08-05T07:41:47Z</time>
      </trkpt>
      <trkpt lat="46.89357" lon="5.89378">
        <ele>511.08</ele>
        <time>2014-08-05T07:41:59Z</time>
      </trkpt>
      <trkpt lat="46.89353" lon="5.89384">
        <ele>511.56</ele>
        <time>2014-08-05T07:42:03Z</time>
      </trkpt>
      <trkpt lat="46.89348" lon="5.89384">
        <ele>512.04</ele>
        <time>2014-08-05T07:42:07Z</time>
      </trkpt>
      <trkpt lat="46.89331" lon="5.89382">
        <ele>512.52</ele>
        <time>2014-08-05T07:42:15Z</time>
      </trkpt>
      <trkpt lat="46.89299" lon="5.89377">
        <ele>513.96</ele>
        <time>2014-08-05T07:42:27Z</time>
      </trkpt>
      <trkpt lat="46.89283" lon="5.89373">
        <ele>514.92</ele>
        <time>2014-08-05T07:42:33Z</time>
      </trkpt>
      <trkpt lat="46.89251" lon="5.8936">
        <ele>516.37</ele>
        <time>2014-08-05T07:42:47Z</time>
      </trkpt>
      <trkpt lat="46.89213" lon="5.89354">
        <ele>518.29</ele>
        <time>2014-08-05T07:43:03Z</time>
      </trkpt>
      <trkpt lat="46.89178" lon="5.89355">
        <ele>520.21</ele>
        <time>2014-08-05T07:43:17Z</time>
      </trkpt>
      <trkpt lat="46.89144" lon="5.89346">
        <ele>521.65</ele>
        <time>2014-08-05T07:43:31Z</time>
      </trkpt>
      <trkpt lat="46.89106" lon="5.89338">
        <ele>523.58</ele>
        <time>2014-08-05T07:43:47Z</time>
      </trkpt>
      <trkpt lat="46.89079" lon="5.89331">
        <ele>525.5</ele>
        <time>2014-08-05T07:43:59Z</time>
      </trkpt>
      <trkpt lat="46.89043" lon="5.89321">
        <ele>527.42</ele>
        <time>2014-08-05T07:44:15Z</time>
      </trkpt>
      <trkpt lat="46.89036" lon="5.89319">
        <ele>527.9</ele>
        <time>2014-08-05T07:44:18Z</time>
      </trkpt>
      <trkpt lat="46.88999" lon="5.89314">
        <ele>529.82</ele>
        <time>2014-08-05T07:44:34Z</time>
      </trkpt>
      <trkpt lat="46.88978" lon="5.89325">
        <ele>530.79</ele>
        <time>2014-08-05T07:44:44Z</time>
      </trkpt>
      <trkpt lat="46.88971" lon="5.89333">
        <ele>531.27</ele>
        <time>2014-08-05T07:44:48Z</time>
      </trkpt>
      <trkpt lat="46.88942" lon="5.89396">
        <ele>532.71</ele>
        <time>2014-08-05T07:45:07Z</time>
      </trkpt>
      <trkpt lat="46.88928" lon="5.89438">
        <ele>534.15</ele>
        <time>2014-08-05T07:45:20Z</time>
      </trkpt>
      <trkpt lat="46.88911" lon="5.89494">
        <ele>536.55</ele>
        <time>2014-08-05T07:45:38Z</time>
      </trkpt>
      <trkpt lat="46.889" lon="5.89545">
        <ele>538.48</ele>
        <time>2014-08-05T07:45:54Z</time>
      </trkpt>
      <trkpt lat="46.88888" lon="5.89575">
        <ele>540.4</ele>
        <time>2014-08-05T07:46:07Z</time>
      </trkpt>
      <trkpt lat="46.88872" lon="5.89585">
        <ele>542.32</ele>
        <time>2014-08-05T07:46:20Z</time>
      </trkpt>
      <trkpt lat="46.88855" lon="5.89588">
        <ele>543.76</ele>
        <time>2014-08-05T07:46:33Z</time>
      </trkpt>
      <trkpt lat="46.88825" lon="5.8961">
        <ele>545.2</ele>
        <time>2014-08-05T07:46:44Z</time>
      </trkpt>
      <trkpt lat="46.88799" lon="5.89621">
        <ele>546.65</ele>
        <time>2014-08-05T07:46:55Z</time>
      </trkpt>
      <trkpt lat="46.88795" lon="5.89618">
        <ele>547.13</ele>
        <time>2014-08-05T07:46:59Z</time>
      </trkpt>
      <trkpt lat="46.88761" lon="5.89635">
        <ele>549.05</ele>
        <time>2014-08-05T07:47:13Z</time>
      </trkpt>
      <trkpt lat="46.8876" lon="5.89634">
        <ele>549.05</ele>
        <time>2014-08-05T07:47:14Z</time>
      </trkpt>
      <trkpt lat="46.88757" lon="5.89633">
        <ele>549.05</ele>
        <time>2014-08-05T07:47:16Z</time>
      </trkpt>
      <trkpt lat="46.88739" lon="5.8964">
        <ele>550.49</ele>
        <time>2014-08-05T07:47:24Z</time>
      </trkpt>
      <trkpt lat="46.8873" lon="5.89646">
        <ele>550.49</ele>
        <time>2014-08-05T07:47:26Z</time>
      </trkpt>
      <trkpt lat="46.88721" lon="5.89641">
        <ele>550.97</ele>
        <time>2014-08-05T07:47:32Z</time>
      </trkpt>
      <trkpt lat="46.88705" lon="5.89645">
        <ele>552.41</ele>
        <time>2014-08-05T07:47:41Z</time>
      </trkpt>
      <trkpt lat="46.8868" lon="5.89662">
        <ele>553.86</ele>
        <time>2014-08-05T07:47:54Z</time>
      </trkpt>
      <trkpt lat="46.88671" lon="5.8967">
        <ele>553.86</ele>
        <time>2014-08-05T07:47:56Z</time>
      </trkpt>
      <trkpt lat="46.88667" lon="5.89672">
        <ele>554.34</ele>
        <time>2014-08-05T07:47:58Z</time>
      </trkpt>
      <trkpt lat="46.88616" lon="5.89689">
        <ele>555.78</ele>
        <time>2014-08-05T07:48:11Z</time>
      </trkpt>
      <trkpt lat="46.88613" lon="5.89689">
        <ele>556.74</ele>
        <time>2014-08-05T07:48:12Z</time>
      </trkpt>
      <trkpt lat="46.88553" lon="5.89704">
        <ele>557.22</ele>
        <time>2014-08-05T07:48:26Z</time>
      </trkpt>
      <trkpt lat="46.88525" lon="5.89703">
        <ele>558.18</ele>
        <time>2014-08-05T07:48:37Z</time>
      </trkpt>
      <trkpt lat="46.88478" lon="5.89696">
        <ele>560.59</ele>
        <time>2014-08-05T07:48:56Z</time>
      </trkpt>
      <trkpt lat="46.88439" lon="5.89698">
        <ele>562.99</ele>
        <time>2014-08-05T07:49:13Z</time>
      </trkpt>
      <trkpt lat="46.88431" lon="5.897">
        <ele>563.47</ele>
        <time>2014-08-05T07:49:17Z</time>
      </trkpt>
      <trkpt lat="46.88413" lon="5.89706">
        <ele>564.91</ele>
        <time>2014-08-05T07:49:24Z</time>
      </trkpt>
      <trkpt lat="46.88383" lon="5.89718">
        <ele>566.35</ele>
        <time>2014-08-05T07:49:37Z</time>
      </trkpt>
      <trkpt lat="46.88355" lon="5.89732">
        <ele>567.8</ele>
        <time>2014-08-05T07:49:50Z</time>
      </trkpt>
      <trkpt lat="46.88332" lon="5.89756">
        <ele>568.76</ele>
        <time>2014-08-05T07:50:03Z</time>
      </trkpt>
      <trkpt lat="46.88298" lon="5.89792">
        <ele>569.24</ele>
        <time>2014-08-05T07:50:15Z</time>
      </trkpt>
      <trkpt lat="46.88259" lon="5.89836">
        <ele>570.2</ele>
        <time>2014-08-05T07:50:29Z</time>
      </trkpt>
      <trkpt lat="46.88216" lon="5.89885">
        <ele>572.12</ele>
        <time>2014-08-05T07:50:45Z</time>
      </trkpt>
      <trkpt lat="46.88184" lon="5.89925">
        <ele>573.08</ele>
        <time>2014-08-05T07:50:59Z</time>
      </trkpt>
      <trkpt lat="46.88146" lon="5.89966">
        <ele>574.04</ele>
        <time>2014-08-05T07:51:13Z</time>
      </trkpt>
      <trkpt lat="46.88115" lon="5.90003">
        <ele>575.01</ele>
        <time>2014-08-05T07:51:26Z</time>
      </trkpt>
      <trkpt lat="46.88102" lon="5.90016">
        <ele>575.01</ele>
        <time>2014-08-05T07:51:32Z</time>
      </trkpt>
      <trkpt lat="46.88094" lon="5.90031">
        <ele>575.49</ele>
        <time>2014-08-05T07:51:36Z</time>
      </trkpt>
      <trkpt lat="46.88084" lon="5.90047">
        <ele>575.97</ele>
        <time>2014-08-05T07:51:49Z</time>
      </trkpt>
      <trkpt lat="46.88084" lon="5.90047">
        <ele>575.97</ele>
        <time>2014-08-05T07:52:13Z</time>
      </trkpt>
      <trkpt lat="46.88084" lon="5.90048">
        <ele>575.97</ele>
        <time>2014-08-05T07:52:36Z</time>
      </trkpt>
      <trkpt lat="46.88084" lon="5.90048">
        <ele>575.97</ele>
        <time>2014-08-05T07:52:37Z</time>
      </trkpt>
      <trkpt lat="46.88059" lon="5.90052">
        <ele>575.97</ele>
        <time>2014-08-05T07:52:46Z</time>
      </trkpt>
      <trkpt lat="46.88013" lon="5.90043">
        <ele>576.93</ele>
        <time>2014-08-05T07:52:58Z</time>
      </trkpt>
      <trkpt lat="46.87966" lon="5.90031">
        <ele>577.89</ele>
        <time>2014-08-05T07:53:11Z</time>
      </trkpt>
      <trkpt lat="46.87924" lon="5.90028">
        <ele>578.85</ele>
        <time>2014-08-05T07:53:22Z</time>
      </trkpt>
      <trkpt lat="46.87876" lon="5.90028">
        <ele>579.81</ele>
        <time>2014-08-05T07:53:34Z</time>
      </trkpt>
      <trkpt lat="46.87834" lon="5.90024">
        <ele>580.77</ele>
        <time>2014-08-05T07:53:45Z</time>
      </trkpt>
      <trkpt lat="46.8783" lon="5.90024">
        <ele>580.77</ele>
        <time>2014-08-05T07:53:46Z</time>
      </trkpt>
      <trkpt lat="46.87809" lon="5.90023">
        <ele>581.25</ele>
        <time>2014-08-05T07:53:51Z</time>
      </trkpt>
      <trkpt lat="46.87776" lon="5.90016">
        <ele>581.73</ele>
        <time>2014-08-05T07:54:00Z</time>
      </trkpt>
      <trkpt lat="46.87751" lon="5.90006">
        <ele>582.22</ele>
        <time>2014-08-05T07:54:06Z</time>
      </trkpt>
      <trkpt lat="46.87712" lon="5.89994">
        <ele>583.18</ele>
        <time>2014-08-05T07:54:15Z</time>
      </trkpt>
      <trkpt lat="46.87691" lon="5.89987">
        <ele>583.18</ele>
        <time>2014-08-05T07:54:20Z</time>
      </trkpt>
      <trkpt lat="46.87653" lon="5.89979">
        <ele>584.14</ele>
        <time>2014-08-05T07:54:28Z</time>
      </trkpt>
      <trkpt lat="46.87597" lon="5.8996">
        <ele>585.58</ele>
        <time>2014-08-05T07:54:42Z</time>
      </trkpt>
      <trkpt lat="46.87593" lon="5.89959">
        <ele>585.58</ele>
        <time>2014-08-05T07:54:43Z</time>
      </trkpt>
      <trkpt lat="46.87576" lon="5.89955">
        <ele>585.58</ele>
        <time>2014-08-05T07:54:47Z</time>
      </trkpt>
      <trkpt lat="46.87562" lon="5.89948">
        <ele>586.06</ele>
        <time>2014-08-05T07:54:51Z</time>
      </trkpt>
      <trkpt lat="46.87558" lon="5.89947">
        <ele>586.06</ele>
        <time>2014-08-05T07:54:52Z</time>
      </trkpt>
      <trkpt lat="46.87547" lon="5.89941">
        <ele>586.06</ele>
        <time>2014-08-05T07:54:55Z</time>
      </trkpt>
      <trkpt lat="46.87483" lon="5.8993">
        <ele>587.98</ele>
        <time>2014-08-05T07:55:09Z</time>
      </trkpt>
      <trkpt lat="46.87447" lon="5.89922">
        <ele>589.43</ele>
        <time>2014-08-05T07:55:21Z</time>
      </trkpt>
      <trkpt lat="46.87414" lon="5.89935">
        <ele>590.87</ele>
        <time>2014-08-05T07:55:35Z</time>
      </trkpt>
      <trkpt lat="46.8739" lon="5.89957">
        <ele>592.79</ele>
        <time>2014-08-05T07:55:47Z</time>
      </trkpt>
      <trkpt lat="46.87358" lon="5.89983">
        <ele>594.23</ele>
        <time>2014-08-05T07:55:57Z</time>
      </trkpt>
      <trkpt lat="46.87311" lon="5.89986">
        <ele>595.67</ele>
        <time>2014-08-05T07:56:11Z</time>
      </trkpt>
      <trkpt lat="46.8726" lon="5.89978">
        <ele>596.15</ele>
        <time>2014-08-05T07:56:25Z</time>
      </trkpt>
      <trkpt lat="46.87187" lon="5.8996">
        <ele>597.12</ele>
        <time>2014-08-05T07:56:43Z</time>
      </trkpt>
      <trkpt lat="46.87124" lon="5.89937">
        <ele>599.04</ele>
        <time>2014-08-05T07:57:00Z</time>
      </trkpt>
      <trkpt lat="46.87073" lon="5.89919">
        <ele>601.44</ele>
        <time>2014-08-05T07:57:16Z</time>
      </trkpt>
      <trkpt lat="46.87065" lon="5.8992">
        <ele>601.92</ele>
        <time>2014-08-05T07:57:19Z</time>
      </trkpt>
      <trkpt lat="46.87058" lon="5.89923">
        <ele>601.92</ele>
        <time>2014-08-05T07:57:30Z</time>
      </trkpt>
      <trkpt lat="46.87075" lon="5.89926">
        <ele>601.92</ele>
        <time>2014-08-05T07:57:41Z</time>
      </trkpt>
      <trkpt lat="46.87076" lon="5.89925">
        <ele>601.44</ele>
        <time>2014-08-05T07:57:49Z</time>
      </trkpt>
      <trkpt lat="46.8707" lon="5.89926">
        <ele>601.92</ele>
        <time>2014-08-05T07:57:55Z</time>
      </trkpt>
      <trkpt lat="46.87078" lon="5.89927">
        <ele>601.44</ele>
        <time>2014-08-05T07:58:06Z</time>
      </trkpt>
      <trkpt lat="46.8708" lon="5.89928">
        <ele>601.44</ele>
        <time>2014-08-05T07:58:21Z</time>
      </trkpt>
      <trkpt lat="46.8708" lon="5.89928">
        <ele>601.44</ele>
        <time>2014-08-05T07:58:41Z</time>
      </trkpt>
      <trkpt lat="46.87077" lon="5.89922">
        <ele>601.44</ele>
        <time>2014-08-05T07:58:46Z</time>
      </trkpt>
      <trkpt lat="46.8707" lon="5.89919">
        <ele>601.92</ele>
        <time>2014-08-05T07:58:51Z</time>
      </trkpt>
      <trkpt lat="46.87063" lon="5.89924">
        <ele>601.92</ele>
        <time>2014-08-05T07:58:59Z</time>
      </trkpt>
      <trkpt lat="46.87058" lon="5.89923">
        <ele>601.44</ele>
        <time>2014-08-05T07:59:09Z</time>
      </trkpt>
      <trkpt lat="46.8683" lon="5.89895">
        <ele>607.21</ele>
        <time>2014-08-05T08:01:18Z</time>
      </trkpt>
      <trkpt lat="46.86827" lon="5.89898">
        <ele>607.69</ele>
        <time>2014-08-05T08:01:19Z</time>
      </trkpt>
      <trkpt lat="46.86778" lon="5.89938">
        <ele>608.65</ele>
        <time>2014-08-05T08:01:35Z</time>
      </trkpt>
      <trkpt lat="46.86718" lon="5.89934">
        <ele>609.13</ele>
        <time>2014-08-05T08:01:51Z</time>
      </trkpt>
      <trkpt lat="46.86658" lon="5.89937">
        <ele>610.09</ele>
        <time>2014-08-05T08:02:07Z</time>
      </trkpt>
      <trkpt lat="46.866" lon="5.89941">
        <ele>611.06</ele>
        <time>2014-08-05T08:02:22Z</time>
      </trkpt>
      <trkpt lat="46.8655" lon="5.89908">
        <ele>612.02</ele>
        <time>2014-08-05T08:02:36Z</time>
      </trkpt>
      <trkpt lat="46.865" lon="5.8991">
        <ele>612.98</ele>
        <time>2014-08-05T08:02:49Z</time>
      </trkpt>
      <trkpt lat="46.8649" lon="5.89913">
        <ele>612.98</ele>
        <time>2014-08-05T08:02:52Z</time>
      </trkpt>
      <trkpt lat="46.86457" lon="5.8992">
        <ele>613.94</ele>
        <time>2014-08-05T08:03:02Z</time>
      </trkpt>
      <trkpt lat="46.86416" lon="5.89931">
        <ele>614.42</ele>
        <time>2014-08-05T08:03:13Z</time>
      </trkpt>
      <trkpt lat="46.86378" lon="5.89934">
        <ele>615.38</ele>
        <time>2014-08-05T08:03:24Z</time>
      </trkpt>
      <trkpt lat="46.86339" lon="5.8994">
        <ele>615.86</ele>
        <time>2014-08-05T08:03:34Z</time>
      </trkpt>
      <trkpt lat="46.86269" lon="5.8996">
        <ele>616.34</ele>
        <time>2014-08-05T08:03:46Z</time>
      </trkpt>
      <trkpt lat="46.86205" lon="5.89974">
        <ele>617.3</ele>
        <time>2014-08-05T08:04:02Z</time>
      </trkpt>
      <trkpt lat="46.86162" lon="5.8998">
        <ele>617.78</ele>
        <time>2014-08-05T08:04:12Z</time>
      </trkpt>
      <trkpt lat="46.86108" lon="5.89997">
        <ele>618.26</ele>
        <time>2014-08-05T08:04:26Z</time>
      </trkpt>
      <trkpt lat="46.86096" lon="5.90011">
        <ele>618.75</ele>
        <time>2014-08-05T08:04:30Z</time>
      </trkpt>
      <trkpt lat="46.86068" lon="5.90068">
        <ele>619.71</ele>
        <time>2014-08-05T08:04:43Z</time>
      </trkpt>
      <trkpt lat="46.86063" lon="5.90077">
        <ele>619.71</ele>
        <time>2014-08-05T08:04:45Z</time>
      </trkpt>
      <trkpt lat="46.86023" lon="5.9013">
        <ele>621.63</ele>
        <time>2014-08-05T08:04:59Z</time>
      </trkpt>
      <trkpt lat="46.85983" lon="5.90178">
        <ele>623.07</ele>
        <time>2014-08-05T08:05:13Z</time>
      </trkpt>
      <trkpt lat="46.85957" lon="5.90228">
        <ele>624.51</ele>
        <time>2014-08-05T08:05:24Z</time>
      </trkpt>
      <trkpt lat="46.85947" lon="5.90246">
        <ele>624.99</ele>
        <time>2014-08-05T08:05:28Z</time>
      </trkpt>
      <trkpt lat="46.85919" lon="5.90311">
        <ele>626.44</ele>
        <time>2014-08-05T08:05:42Z</time>
      </trkpt>
      <trkpt lat="46.85883" lon="5.90366">
        <ele>627.88</ele>
        <time>2014-08-05T08:05:56Z</time>
      </trkpt>
      <trkpt lat="46.8583" lon="5.90377">
        <ele>628.36</ele>
        <time>2014-08-05T08:06:07Z</time>
      </trkpt>
      <trkpt lat="46.85781" lon="5.90377">
        <ele>628.36</ele>
        <time>2014-08-05T08:06:16Z</time>
      </trkpt>
      <trkpt lat="46.85761" lon="5.9038">
        <ele>628.84</ele>
        <time>2014-08-05T08:06:20Z</time>
      </trkpt>
      <trkpt lat="46.85733" lon="5.90399">
        <ele>628.84</ele>
        <time>2014-08-05T08:06:26Z</time>
      </trkpt>
      <trkpt lat="46.85715" lon="5.9039">
        <ele>628.36</ele>
        <time>2014-08-05T08:06:35Z</time>
      </trkpt>
      <trkpt lat="46.85711" lon="5.90387">
        <ele>627.4</ele>
        <time>2014-08-05T08:06:43Z</time>
      </trkpt>
      <trkpt lat="46.85705" lon="5.90395">
        <ele>628.36</ele>
        <time>2014-08-05T08:08:12Z</time>
      </trkpt>
      <trkpt lat="46.85705" lon="5.90395">
        <ele>627.88</ele>
        <time>2014-08-05T08:08:13Z</time>
      </trkpt>
      <trkpt lat="46.85708" lon="5.90397">
        <ele>627.88</ele>
        <time>2014-08-05T08:08:28Z</time>
      </trkpt>
      <trkpt lat="46.85704" lon="5.90391">
        <ele>627.88</ele>
        <time>2014-08-05T08:08:32Z</time>
      </trkpt>
      <trkpt lat="46.8569" lon="5.90371">
        <ele>626.44</ele>
        <time>2014-08-05T08:08:37Z</time>
      </trkpt>
      <trkpt lat="46.85653" lon="5.90328">
        <ele>622.59</ele>
        <time>2014-08-05T08:08:44Z</time>
      </trkpt>
      <trkpt lat="46.85627" lon="5.903">
        <ele>621.63</ele>
        <time>2014-08-05T08:08:48Z</time>
      </trkpt>
      <trkpt lat="46.8559" lon="5.90283">
        <ele>619.71</ele>
        <time>2014-08-05T08:08:53Z</time>
      </trkpt>
      <trkpt lat="46.8551" lon="5.90299">
        <ele>615.86</ele>
        <time>2014-08-05T08:09:02Z</time>
      </trkpt>
      <trkpt lat="46.85402" lon="5.90321">
        <ele>613.94</ele>
        <time>2014-08-05T08:09:15Z</time>
      </trkpt>
      <trkpt lat="46.85332" lon="5.90331">
        <ele>615.38</ele>
        <time>2014-08-05T08:09:25Z</time>
      </trkpt>
      <trkpt lat="46.85276" lon="5.90338">
        <ele>618.26</ele>
        <time>2014-08-05T08:09:35Z</time>
      </trkpt>
      <trkpt lat="46.85261" lon="5.90342">
        <ele>619.23</ele>
        <time>2014-08-05T08:09:38Z</time>
      </trkpt>
      <trkpt lat="46.85237" lon="5.90346">
        <ele>619.71</ele>
        <time>2014-08-05T08:09:45Z</time>
      </trkpt>
      <trkpt lat="46.85223" lon="5.90357">
        <ele>620.67</ele>
        <time>2014-08-05T08:09:55Z</time>
      </trkpt>
      <trkpt lat="46.8522" lon="5.90364">
        <ele>620.67</ele>
        <time>2014-08-05T08:09:58Z</time>
      </trkpt>
      <trkpt lat="46.85214" lon="5.90375">
        <ele>621.15</ele>
        <time>2014-08-05T08:10:06Z</time>
      </trkpt>
      <trkpt lat="46.85194" lon="5.90381">
        <ele>621.63</ele>
        <time>2014-08-05T08:10:13Z</time>
      </trkpt>
      <trkpt lat="46.85183" lon="5.90389">
        <ele>622.59</ele>
        <time>2014-08-05T08:10:18Z</time>
      </trkpt>
      <trkpt lat="46.85169" lon="5.90396">
        <ele>623.55</ele>
        <time>2014-08-05T08:10:24Z</time>
      </trkpt>
      <trkpt lat="46.85153" lon="5.90402">
        <ele>624.03</ele>
        <time>2014-08-05T08:10:28Z</time>
      </trkpt>
      <trkpt lat="46.85099" lon="5.90416">
        <ele>625.96</ele>
        <time>2014-08-05T08:10:43Z</time>
      </trkpt>
      <trkpt lat="46.85082" lon="5.90421">
        <ele>626.44</ele>
        <time>2014-08-05T08:10:47Z</time>
      </trkpt>
      <trkpt lat="46.85063" lon="5.90417">
        <ele>627.4</ele>
        <time>2014-08-05T08:10:56Z</time>
      </trkpt>
      <trkpt lat="46.85034" lon="5.90401">
        <ele>628.84</ele>
        <time>2014-08-05T08:11:09Z</time>
      </trkpt>
      <trkpt lat="46.85016" lon="5.9039">
        <ele>629.8</ele>
        <time>2014-08-05T08:11:20Z</time>
      </trkpt>
      <trkpt lat="46.84975" lon="5.90381">
        <ele>630.76</ele>
        <time>2014-08-05T08:11:35Z</time>
      </trkpt>
      <trkpt lat="46.84946" lon="5.90365">
        <ele>631.72</ele>
        <time>2014-08-05T08:11:46Z</time>
      </trkpt>
      <trkpt lat="46.84938" lon="5.90361">
        <ele>632.2</ele>
        <time>2014-08-05T08:11:49Z</time>
      </trkpt>
      <trkpt lat="46.84928" lon="5.90358">
        <ele>632.2</ele>
        <time>2014-08-05T08:11:52Z</time>
      </trkpt>
      <trkpt lat="46.84898" lon="5.90346">
        <ele>632.68</ele>
        <time>2014-08-05T08:12:01Z</time>
      </trkpt>
      <trkpt lat="46.84891" lon="5.90343">
        <ele>633.17</ele>
        <time>2014-08-05T08:12:04Z</time>
      </trkpt>
      <trkpt lat="46.84871" lon="5.90324">
        <ele>633.17</ele>
        <time>2014-08-05T08:12:12Z</time>
      </trkpt>
      <trkpt lat="46.84829" lon="5.90286">
        <ele>633.17</ele>
        <time>2014-08-05T08:12:26Z</time>
      </trkpt>
      <trkpt lat="46.84811" lon="5.90262">
        <ele>633.65</ele>
        <time>2014-08-05T08:12:33Z</time>
      </trkpt>
      <trkpt lat="46.84793" lon="5.9025">
        <ele>633.65</ele>
        <time>2014-08-05T08:12:35Z</time>
      </trkpt>
      <trkpt lat="46.84765" lon="5.90188">
        <ele>635.57</ele>
        <time>2014-08-05T08:12:48Z</time>
      </trkpt>
      <trkpt lat="46.84746" lon="5.90152">
        <ele>637.01</ele>
        <time>2014-08-05T08:12:57Z</time>
      </trkpt>
      <trkpt lat="46.84737" lon="5.90133">
        <ele>637.97</ele>
        <time>2014-08-05T08:13:02Z</time>
      </trkpt>
      <trkpt lat="46.84728" lon="5.90094">
        <ele>639.41</ele>
        <time>2014-08-05T08:13:14Z</time>
      </trkpt>
      <trkpt lat="46.84698" lon="5.90047">
        <ele>640.86</ele>
        <time>2014-08-05T08:13:27Z</time>
      </trkpt>
      <trkpt lat="46.84678" lon="5.89995">
        <ele>641.82</ele>
        <time>2014-08-05T08:13:41Z</time>
      </trkpt>
      <trkpt lat="46.84663" lon="5.89939">
        <ele>642.3</ele>
        <time>2014-08-05T08:13:55Z</time>
      </trkpt>
      <trkpt lat="46.84661" lon="5.89902">
        <ele>642.78</ele>
        <time>2014-08-05T08:14:06Z</time>
      </trkpt>
      <trkpt lat="46.84658" lon="5.89882">
        <ele>643.26</ele>
        <time>2014-08-05T08:14:12Z</time>
      </trkpt>
      <trkpt lat="46.84633" lon="5.89837">
        <ele>644.22</ele>
        <time>2014-08-05T08:14:25Z</time>
      </trkpt>
      <trkpt lat="46.84625" lon="5.89804">
        <ele>645.18</ele>
        <time>2014-08-05T08:14:35Z</time>
      </trkpt>
      <trkpt lat="46.84586" lon="5.8976">
        <ele>646.62</ele>
        <time>2014-08-05T08:14:49Z</time>
      </trkpt>
      <trkpt lat="46.84572" lon="5.8972">
        <ele>647.59</ele>
        <time>2014-08-05T08:15:02Z</time>
      </trkpt>
      <trkpt lat="46.84534" lon="5.89671">
        <ele>649.03</ele>
        <time>2014-08-05T08:15:14Z</time>
      </trkpt>
      <trkpt lat="46.84524" lon="5.89645">
        <ele>650.47</ele>
        <time>2014-08-05T08:15:25Z</time>
      </trkpt>
      <trkpt lat="46.84503" lon="5.8962">
        <ele>652.87</ele>
        <time>2014-08-05T08:15:38Z</time>
      </trkpt>
      <trkpt lat="46.84479" lon="5.89593">
        <ele>654.31</ele>
        <time>2014-08-05T08:15:49Z</time>
      </trkpt>
      <trkpt lat="46.84453" lon="5.89541">
        <ele>656.24</ele>
        <time>2014-08-05T08:16:03Z</time>
      </trkpt>
      <trkpt lat="46.84424" lon="5.89488">
        <ele>656.72</ele>
        <time>2014-08-05T08:16:16Z</time>
      </trkpt>
      <trkpt lat="46.84404" lon="5.89443">
        <ele>657.68</ele>
        <time>2014-08-05T08:16:27Z</time>
      </trkpt>
      <trkpt lat="46.84381" lon="5.89401">
        <ele>658.16</ele>
        <time>2014-08-05T08:16:38Z</time>
      </trkpt>
      <trkpt lat="46.84354" lon="5.8935">
        <ele>659.12</ele>
        <time>2014-08-05T08:16:51Z</time>
      </trkpt>
      <trkpt lat="46.84312" lon="5.89292">
        <ele>659.12</ele>
        <time>2014-08-05T08:17:02Z</time>
      </trkpt>
      <trkpt lat="46.84308" lon="5.89286">
        <ele>659.12</ele>
        <time>2014-08-05T08:17:03Z</time>
      </trkpt>
      <trkpt lat="46.84296" lon="5.89264">
        <ele>659.6</ele>
        <time>2014-08-05T08:17:07Z</time>
      </trkpt>
      <trkpt lat="46.84277" lon="5.89215">
        <ele>658.64</ele>
        <time>2014-08-05T08:17:15Z</time>
      </trkpt>
      <trkpt lat="46.84226" lon="5.8912">
        <ele>658.16</ele>
        <time>2014-08-05T08:17:30Z</time>
      </trkpt>
      <trkpt lat="46.8418" lon="5.89034">
        <ele>657.2</ele>
        <time>2014-08-05T08:17:43Z</time>
      </trkpt>
      <trkpt lat="46.84168" lon="5.89012">
        <ele>657.2</ele>
        <time>2014-08-05T08:17:46Z</time>
      </trkpt>
      <trkpt lat="46.84104" lon="5.88924">
        <ele>657.2</ele>
        <time>2014-08-05T08:17:58Z</time>
      </trkpt>
      <trkpt lat="46.84079" lon="5.88872">
        <ele>657.68</ele>
        <time>2014-08-05T08:18:07Z</time>
      </trkpt>
      <trkpt lat="46.8406" lon="5.88847">
        <ele>657.68</ele>
        <time>2014-08-05T08:18:12Z</time>
      </trkpt>
      <trkpt lat="46.84035" lon="5.88831">
        <ele>656.72</ele>
        <time>2014-08-05T08:18:17Z</time>
      </trkpt>
      <trkpt lat="46.83959" lon="5.88783">
        <ele>654.8</ele>
        <time>2014-08-05T08:18:29Z</time>
      </trkpt>
      <trkpt lat="46.83923" lon="5.88749">
        <ele>655.28</ele>
        <time>2014-08-05T08:18:35Z</time>
      </trkpt>
      <trkpt lat="46.8391" lon="5.88738">
        <ele>655.28</ele>
        <time>2014-08-05T08:18:37Z</time>
      </trkpt>
      <trkpt lat="46.83896" lon="5.88722">
        <ele>655.28</ele>
        <time>2014-08-05T08:18:40Z</time>
      </trkpt>
      <trkpt lat="46.83867" lon="5.88692">
        <ele>655.28</ele>
        <time>2014-08-05T08:18:46Z</time>
      </trkpt>
      <trkpt lat="46.83849" lon="5.88671">
        <ele>655.76</ele>
        <time>2014-08-05T08:18:50Z</time>
      </trkpt>
      <trkpt lat="46.8382" lon="5.88627">
        <ele>655.76</ele>
        <time>2014-08-05T08:18:57Z</time>
      </trkpt>
      <trkpt lat="46.83783" lon="5.88553">
        <ele>655.76</ele>
        <time>2014-08-05T08:19:08Z</time>
      </trkpt>
      <trkpt lat="46.83779" lon="5.88547">
        <ele>655.76</ele>
        <time>2014-08-05T08:19:09Z</time>
      </trkpt>
      <trkpt lat="46.83757" lon="5.88502">
        <ele>655.28</ele>
        <time>2014-08-05T08:19:15Z</time>
      </trkpt>
      <trkpt lat="46.83724" lon="5.8842">
        <ele>654.31</ele>
        <time>2014-08-05T08:19:26Z</time>
      </trkpt>
      <trkpt lat="46.83707" lon="5.88341">
        <ele>652.87</ele>
        <time>2014-08-05T08:19:34Z</time>
      </trkpt>
      <trkpt lat="46.83691" lon="5.88258">
        <ele>650.95</ele>
        <time>2014-08-05T08:19:42Z</time>
      </trkpt>
      <trkpt lat="46.83679" lon="5.88218">
        <ele>649.99</ele>
        <time>2014-08-05T08:19:46Z</time>
      </trkpt>
      <trkpt lat="46.8367" lon="5.88174">
        <ele>649.03</ele>
        <time>2014-08-05T08:19:50Z</time>
      </trkpt>
      <trkpt lat="46.83658" lon="5.88109">
        <ele>647.59</ele>
        <time>2014-08-05T08:19:56Z</time>
      </trkpt>
      <trkpt lat="46.8364" lon="5.8804">
        <ele>647.1</ele>
        <time>2014-08-05T08:20:03Z</time>
      </trkpt>
      <trkpt lat="46.83636" lon="5.88021">
        <ele>647.1</ele>
        <time>2014-08-05T08:20:05Z</time>
      </trkpt>
      <trkpt lat="46.83627" lon="5.87977">
        <ele>647.1</ele>
        <time>2014-08-05T08:20:10Z</time>
      </trkpt>
      <trkpt lat="46.83626" lon="5.8787">
        <ele>648.07</ele>
        <time>2014-08-05T08:20:24Z</time>
      </trkpt>
      <trkpt lat="46.83635" lon="5.87812">
        <ele>650.95</ele>
        <time>2014-08-05T08:20:40Z</time>
      </trkpt>
      <trkpt lat="46.83639" lon="5.87769">
        <ele>652.87</ele>
        <time>2014-08-05T08:20:52Z</time>
      </trkpt>
      <trkpt lat="46.8364" lon="5.87727">
        <ele>654.31</ele>
        <time>2014-08-05T08:21:03Z</time>
      </trkpt>
      <trkpt lat="46.83634" lon="5.87686">
        <ele>655.76</ele>
        <time>2014-08-05T08:21:15Z</time>
      </trkpt>
      <trkpt lat="46.83618" lon="5.87653">
        <ele>657.2</ele>
        <time>2014-08-05T08:21:27Z</time>
      </trkpt>
      <trkpt lat="46.83614" lon="5.87643">
        <ele>657.68</ele>
        <time>2014-08-05T08:21:33Z</time>
      </trkpt>
      <trkpt lat="46.83609" lon="5.87634">
        <ele>658.16</ele>
        <time>2014-08-05T08:21:37Z</time>
      </trkpt>
      <trkpt lat="46.836" lon="5.87621">
        <ele>659.12</ele>
        <time>2014-08-05T08:21:43Z</time>
      </trkpt>
      <trkpt lat="46.83574" lon="5.8756">
        <ele>661.52</ele>
        <time>2014-08-05T08:21:59Z</time>
      </trkpt>
      <trkpt lat="46.83562" lon="5.87519">
        <ele>662.97</ele>
        <time>2014-08-05T08:22:11Z</time>
      </trkpt>
      <trkpt lat="46.83549" lon="5.87473">
        <ele>664.89</ele>
        <time>2014-08-05T08:22:25Z</time>
      </trkpt>
      <trkpt lat="46.83537" lon="5.87431">
        <ele>666.81</ele>
        <time>2014-08-05T08:22:38Z</time>
      </trkpt>
      <trkpt lat="46.83528" lon="5.87391">
        <ele>668.25</ele>
        <time>2014-08-05T08:22:50Z</time>
      </trkpt>
      <trkpt lat="46.83527" lon="5.8734">
        <ele>670.18</ele>
        <time>2014-08-05T08:23:04Z</time>
      </trkpt>
      <trkpt lat="46.83541" lon="5.87293">
        <ele>671.14</ele>
        <time>2014-08-05T08:23:17Z</time>
      </trkpt>
      <trkpt lat="46.83559" lon="5.87258">
        <ele>671.62</ele>
        <time>2014-08-05T08:23:28Z</time>
      </trkpt>
      <trkpt lat="46.83566" lon="5.87213">
        <ele>672.1</ele>
        <time>2014-08-05T08:23:40Z</time>
      </trkpt>
      <trkpt lat="46.83548" lon="5.87174">
        <ele>673.06</ele>
        <time>2014-08-05T08:23:53Z</time>
      </trkpt>
      <trkpt lat="46.83545" lon="5.87171">
        <ele>673.06</ele>
        <time>2014-08-05T08:23:54Z</time>
      </trkpt>
      <trkpt lat="46.83537" lon="5.87155">
        <ele>673.54</ele>
        <time>2014-08-05T08:23:58Z</time>
      </trkpt>
      <trkpt lat="46.83509" lon="5.87098">
        <ele>674.5</ele>
        <time>2014-08-05T08:24:12Z</time>
      </trkpt>
      <trkpt lat="46.8349" lon="5.87062">
        <ele>675.46</ele>
        <time>2014-08-05T08:24:21Z</time>
      </trkpt>
      <trkpt lat="46.83455" lon="5.86982">
        <ele>676.42</ele>
        <time>2014-08-05T08:24:38Z</time>
      </trkpt>
      <trkpt lat="46.83441" lon="5.86943">
        <ele>675.94</ele>
        <time>2014-08-05T08:24:48Z</time>
      </trkpt>
      <trkpt lat="46.83397" lon="5.86879">
        <ele>674.5</ele>
        <time>2014-08-05T08:25:01Z</time>
      </trkpt>
      <trkpt lat="46.8331" lon="5.86806">
        <ele>671.14</ele>
        <time>2014-08-05T08:25:15Z</time>
      </trkpt>
      <trkpt lat="46.83208" lon="5.8672">
        <ele>671.14</ele>
        <time>2014-08-05T08:25:32Z</time>
      </trkpt>
      <trkpt lat="46.83116" lon="5.86647">
        <ele>670.66</ele>
        <time>2014-08-05T08:25:48Z</time>
      </trkpt>
      <trkpt lat="46.83041" lon="5.8659">
        <ele>670.18</ele>
        <time>2014-08-05T08:26:01Z</time>
      </trkpt>
      <trkpt lat="46.8298" lon="5.86549">
        <ele>670.66</ele>
        <time>2014-08-05T08:26:12Z</time>
      </trkpt>
      <trkpt lat="46.82954" lon="5.86539">
        <ele>670.18</ele>
        <time>2014-08-05T08:26:17Z</time>
      </trkpt>
      <trkpt lat="46.82927" lon="5.86537">
        <ele>669.7</ele>
        <time>2014-08-05T08:26:22Z</time>
      </trkpt>
      <trkpt lat="46.82911" lon="5.86536">
        <ele>669.22</ele>
        <time>2014-08-05T08:26:25Z</time>
      </trkpt>
      <trkpt lat="46.82878" lon="5.86534">
        <ele>668.25</ele>
        <time>2014-08-05T08:26:31Z</time>
      </trkpt>
      <trkpt lat="46.82859" lon="5.86534">
        <ele>667.29</ele>
        <time>2014-08-05T08:26:34Z</time>
      </trkpt>
      <trkpt lat="46.82823" lon="5.86516">
        <ele>664.89</ele>
        <time>2014-08-05T08:26:39Z</time>
      </trkpt>
      <trkpt lat="46.82789" lon="5.86476">
        <ele>664.89</ele>
        <time>2014-08-05T08:26:46Z</time>
      </trkpt>
      <trkpt lat="46.82779" lon="5.86462">
        <ele>665.85</ele>
        <time>2014-08-05T08:26:52Z</time>
      </trkpt>
      <trkpt lat="46.82796" lon="5.86487">
        <ele>664.89</ele>
        <time>2014-08-05T08:27:01Z</time>
      </trkpt>
      <trkpt lat="46.828" lon="5.86491">
        <ele>664.89</ele>
        <time>2014-08-05T08:27:08Z</time>
      </trkpt>
      <trkpt lat="46.828" lon="5.86491">
        <ele>664.41</ele>
        <time>2014-08-05T08:27:28Z</time>
      </trkpt>
      <trkpt lat="46.82801" lon="5.8649">
        <ele>664.41</ele>
        <time>2014-08-05T08:27:40Z</time>
      </trkpt>
      <trkpt lat="46.8279" lon="5.86467">
        <ele>664.89</ele>
        <time>2014-08-05T08:27:50Z</time>
      </trkpt>
      <trkpt lat="46.82786" lon="5.86461">
        <ele>664.89</ele>
        <time>2014-08-05T08:28:00Z</time>
      </trkpt>
      <trkpt lat="46.82786" lon="5.86461">
        <ele>664.89</ele>
        <time>2014-08-05T08:28:25Z</time>
      </trkpt>
      <trkpt lat="46.82786" lon="5.86461">
        <ele>664.89</ele>
        <time>2014-08-05T08:28:46Z</time>
      </trkpt>
      <trkpt lat="46.82785" lon="5.8646">
        <ele>664.89</ele>
        <time>2014-08-05T08:29:13Z</time>
      </trkpt>
      <trkpt lat="46.82781" lon="5.86458">
        <ele>665.85</ele>
        <time>2014-08-05T08:29:19Z</time>
      </trkpt>
      <trkpt lat="46.82776" lon="5.86455">
        <ele>665.85</ele>
        <time>2014-08-05T08:29:23Z</time>
      </trkpt>
      <trkpt lat="46.82761" lon="5.86442">
        <ele>666.33</ele>
        <time>2014-08-05T08:29:32Z</time>
      </trkpt>
      <trkpt lat="46.82745" lon="5.86433">
        <ele>665.85</ele>
        <time>2014-08-05T08:29:40Z</time>
      </trkpt>
      <trkpt lat="46.82733" lon="5.86428">
        <ele>665.85</ele>
        <time>2014-08-05T08:29:45Z</time>
      </trkpt>
      <trkpt lat="46.8271" lon="5.86407">
        <ele>664.89</ele>
        <time>2014-08-05T08:29:57Z</time>
      </trkpt>
      <trkpt lat="46.82709" lon="5.86406">
        <ele>664.89</ele>
        <time>2014-08-05T08:29:58Z</time>
      </trkpt>
      <trkpt lat="46.82697" lon="5.86404">
        <ele>664.89</ele>
        <time>2014-08-05T08:30:03Z</time>
      </trkpt>
      <trkpt lat="46.8267" lon="5.86384">
        <ele>663.45</ele>
        <time>2014-08-05T08:30:14Z</time>
      </trkpt>
      <trkpt lat="46.82639" lon="5.86353">
        <ele>662.01</ele>
        <time>2014-08-05T08:30:24Z</time>
      </trkpt>
      <trkpt lat="46.82636" lon="5.86341">
        <ele>661.04</ele>
        <time>2014-08-05T08:30:26Z</time>
      </trkpt>
      <trkpt lat="46.82629" lon="5.86322">
        <ele>660.56</ele>
        <time>2014-08-05T08:30:29Z</time>
      </trkpt>
      <trkpt lat="46.82625" lon="5.86308">
        <ele>660.08</ele>
        <time>2014-08-05T08:30:31Z</time>
      </trkpt>
      <trkpt lat="46.82606" lon="5.86288">
        <ele>658.16</ele>
        <time>2014-08-05T08:30:36Z</time>
      </trkpt>
      <trkpt lat="46.82579" lon="5.86287">
        <ele>659.12</ele>
        <time>2014-08-05T08:30:41Z</time>
      </trkpt>
      <trkpt lat="46.82532" lon="5.86292">
        <ele>662.01</ele>
        <time>2014-08-05T08:30:54Z</time>
      </trkpt>
      <trkpt lat="46.82512" lon="5.86265">
        <ele>662.97</ele>
        <time>2014-08-05T08:31:03Z</time>
      </trkpt>
      <trkpt lat="46.82476" lon="5.86217">
        <ele>663.93</ele>
        <time>2014-08-05T08:31:16Z</time>
      </trkpt>
      <trkpt lat="46.82457" lon="5.86197">
        <ele>664.89</ele>
        <time>2014-08-05T08:31:23Z</time>
      </trkpt>
      <trkpt lat="46.82443" lon="5.8618">
        <ele>665.37</ele>
        <time>2014-08-05T08:31:29Z</time>
      </trkpt>
      <trkpt lat="46.82436" lon="5.86174">
        <ele>665.85</ele>
        <time>2014-08-05T08:31:32Z</time>
      </trkpt>
      <trkpt lat="46.82424" lon="5.86166">
        <ele>665.85</ele>
        <time>2014-08-05T08:31:37Z</time>
      </trkpt>
      <trkpt lat="46.82404" lon="5.86145">
        <ele>666.33</ele>
        <time>2014-08-05T08:31:45Z</time>
      </trkpt>
      <trkpt lat="46.82393" lon="5.86124">
        <ele>666.81</ele>
        <time>2014-08-05T08:31:51Z</time>
      </trkpt>
      <trkpt lat="46.8235" lon="5.86064">
        <ele>667.29</ele>
        <time>2014-08-05T08:32:10Z</time>
      </trkpt>
      <trkpt lat="46.82341" lon="5.86049">
        <ele>666.81</ele>
        <time>2014-08-05T08:32:13Z</time>
      </trkpt>
      <trkpt lat="46.82309" lon="5.85997">
        <ele>664.41</ele>
        <time>2014-08-05T08:32:21Z</time>
      </trkpt>
      <trkpt lat="46.82286" lon="5.85973">
        <ele>663.93</ele>
        <time>2014-08-05T08:32:25Z</time>
      </trkpt>
      <trkpt lat="46.82162" lon="5.85914">
        <ele>662.49</ele>
        <time>2014-08-05T08:32:43Z</time>
      </trkpt>
      <trkpt lat="46.82072" lon="5.85881">
        <ele>659.6</ele>
        <time>2014-08-05T08:32:56Z</time>
      </trkpt>
      <trkpt lat="46.82063" lon="5.85879">
        <ele>659.12</ele>
        <time>2014-08-05T08:32:57Z</time>
      </trkpt>
      <trkpt lat="46.81957" lon="5.85889">
        <ele>658.16</ele>
        <time>2014-08-05T08:33:11Z</time>
      </trkpt>
      <trkpt lat="46.81867" lon="5.85878">
        <ele>656.24</ele>
        <time>2014-08-05T08:33:24Z</time>
      </trkpt>
      <trkpt lat="46.81764" lon="5.85856">
        <ele>655.28</ele>
        <time>2014-08-05T08:33:39Z</time>
      </trkpt>
      <trkpt lat="46.81653" lon="5.85833">
        <ele>653.35</ele>
        <time>2014-08-05T08:33:55Z</time>
      </trkpt>
      <trkpt lat="46.81532" lon="5.85808">
        <ele>649.99</ele>
        <time>2014-08-05T08:34:11Z</time>
      </trkpt>
      <trkpt lat="46.81436" lon="5.85789">
        <ele>649.51</ele>
        <time>2014-08-05T08:34:24Z</time>
      </trkpt>
      <trkpt lat="46.8134" lon="5.85729">
        <ele>647.59</ele>
        <time>2014-08-05T08:34:39Z</time>
      </trkpt>
      <trkpt lat="46.81227" lon="5.8564">
        <ele>645.66</ele>
        <time>2014-08-05T08:34:57Z</time>
      </trkpt>
      <trkpt lat="46.81198" lon="5.85615">
        <ele>645.66</ele>
        <time>2014-08-05T08:35:02Z</time>
      </trkpt>
      <trkpt lat="46.81176" lon="5.85584">
        <ele>646.14</ele>
        <time>2014-08-05T08:35:07Z</time>
      </trkpt>
      <trkpt lat="46.81145" lon="5.85506">
        <ele>646.14</ele>
        <time>2014-08-05T08:35:19Z</time>
      </trkpt>
      <trkpt lat="46.81105" lon="5.85393">
        <ele>644.22</ele>
        <time>2014-08-05T08:35:33Z</time>
      </trkpt>
      <trkpt lat="46.81075" lon="5.8531">
        <ele>643.74</ele>
        <time>2014-08-05T08:35:43Z</time>
      </trkpt>
      <trkpt lat="46.81067" lon="5.85296">
        <ele>643.26</ele>
        <time>2014-08-05T08:35:45Z</time>
      </trkpt>
      <trkpt lat="46.81033" lon="5.85253">
        <ele>642.3</ele>
        <time>2014-08-05T08:35:52Z</time>
      </trkpt>
      <trkpt lat="46.81024" lon="5.85239">
        <ele>641.82</ele>
        <time>2014-08-05T08:35:54Z</time>
      </trkpt>
      <trkpt lat="46.80976" lon="5.85157">
        <ele>641.82</ele>
        <time>2014-08-05T08:36:06Z</time>
      </trkpt>
      <trkpt lat="46.80969" lon="5.85148">
        <ele>641.82</ele>
        <time>2014-08-05T08:36:08Z</time>
      </trkpt>
      <trkpt lat="46.80906" lon="5.85055">
        <ele>639.41</ele>
        <time>2014-08-05T08:36:23Z</time>
      </trkpt>
      <trkpt lat="46.80827" lon="5.84968">
        <ele>637.01</ele>
        <time>2014-08-05T08:36:37Z</time>
      </trkpt>
      <trkpt lat="46.80761" lon="5.84909">
        <ele>636.53</ele>
        <time>2014-08-05T08:36:48Z</time>
      </trkpt>
      <trkpt lat="46.80637" lon="5.84846">
        <ele>633.65</ele>
        <time>2014-08-05T08:37:06Z</time>
      </trkpt>
      <trkpt lat="46.80603" lon="5.84821">
        <ele>633.65</ele>
        <time>2014-08-05T08:37:12Z</time>
      </trkpt>
      <trkpt lat="46.8055" lon="5.84796">
        <ele>633.65</ele>
        <time>2014-08-05T08:37:21Z</time>
      </trkpt>
      <trkpt lat="46.80467" lon="5.84775">
        <ele>632.68</ele>
        <time>2014-08-05T08:37:34Z</time>
      </trkpt>
      <trkpt lat="46.80455" lon="5.84769">
        <ele>633.17</ele>
        <time>2014-08-05T08:37:36Z</time>
      </trkpt>
      <trkpt lat="46.80438" lon="5.84749">
        <ele>633.65</ele>
        <time>2014-08-05T08:37:40Z</time>
      </trkpt>
      <trkpt lat="46.80388" lon="5.84651">
        <ele>632.68</ele>
        <time>2014-08-05T08:37:54Z</time>
      </trkpt>
      <trkpt lat="46.80342" lon="5.84535">
        <ele>630.76</ele>
        <time>2014-08-05T08:38:08Z</time>
      </trkpt>
      <trkpt lat="46.80331" lon="5.84505">
        <ele>629.32</ele>
        <time>2014-08-05T08:38:11Z</time>
      </trkpt>
      <trkpt lat="46.80321" lon="5.84462">
        <ele>628.84</ele>
        <time>2014-08-05T08:38:15Z</time>
      </trkpt>
      <trkpt lat="46.80286" lon="5.84401">
        <ele>628.84</ele>
        <time>2014-08-05T08:38:23Z</time>
      </trkpt>
      <trkpt lat="46.80262" lon="5.84387">
        <ele>629.32</ele>
        <time>2014-08-05T08:38:27Z</time>
      </trkpt>
      <trkpt lat="46.80163" lon="5.84341">
        <ele>627.88</ele>
        <time>2014-08-05T08:38:43Z</time>
      </trkpt>
      <trkpt lat="46.80096" lon="5.84277">
        <ele>626.92</ele>
        <time>2014-08-05T08:38:55Z</time>
      </trkpt>
      <trkpt lat="46.8002" lon="5.84207">
        <ele>626.44</ele>
        <time>2014-08-05T08:39:08Z</time>
      </trkpt>
      <trkpt lat="46.79927" lon="5.84134">
        <ele>625.47</ele>
        <time>2014-08-05T08:39:24Z</time>
      </trkpt>
      <trkpt lat="46.79892" lon="5.84114">
        <ele>624.03</ele>
        <time>2014-08-05T08:39:29Z</time>
      </trkpt>
      <trkpt lat="46.79805" lon="5.84111">
        <ele>622.11</ele>
        <time>2014-08-05T08:39:41Z</time>
      </trkpt>
      <trkpt lat="46.79731" lon="5.84072">
        <ele>620.67</ele>
        <time>2014-08-05T08:39:51Z</time>
      </trkpt>
      <trkpt lat="46.79635" lon="5.83975">
        <ele>619.23</ele>
        <time>2014-08-05T08:40:07Z</time>
      </trkpt>
      <trkpt lat="46.79601" lon="5.83939">
        <ele>618.26</ele>
        <time>2014-08-05T08:40:13Z</time>
      </trkpt>
      <trkpt lat="46.79578" lon="5.83904">
        <ele>617.3</ele>
        <time>2014-08-05T08:40:18Z</time>
      </trkpt>
      <trkpt lat="46.79537" lon="5.83802">
        <ele>614.9</ele>
        <time>2014-08-05T08:40:31Z</time>
      </trkpt>
      <trkpt lat="46.79484" lon="5.8374">
        <ele>612.98</ele>
        <time>2014-08-05T08:40:43Z</time>
      </trkpt>
      <trkpt lat="46.79481" lon="5.83737">
        <ele>612.98</ele>
        <time>2014-08-05T08:40:44Z</time>
      </trkpt>
      <trkpt lat="46.79478" lon="5.83728">
        <ele>612.5</ele>
        <time>2014-08-05T08:40:56Z</time>
      </trkpt>
      <trkpt lat="46.79478" lon="5.83727">
        <ele>612.5</ele>
        <time>2014-08-05T08:41:18Z</time>
      </trkpt>
      <trkpt lat="46.79478" lon="5.83728">
        <ele>612.5</ele>
        <time>2014-08-05T08:41:49Z</time>
      </trkpt>
      <trkpt lat="46.79478" lon="5.83727">
        <ele>612.02</ele>
        <time>2014-08-05T08:42:18Z</time>
      </trkpt>
      <trkpt lat="46.79478" lon="5.83727">
        <ele>612.02</ele>
        <time>2014-08-05T08:42:21Z</time>
      </trkpt>
      <trkpt lat="46.79467" lon="5.83752">
        <ele>612.98</ele>
        <time>2014-08-05T08:42:31Z</time>
      </trkpt>
      <trkpt lat="46.7946" lon="5.83768">
        <ele>612.98</ele>
        <time>2014-08-05T08:42:35Z</time>
      </trkpt>
      <trkpt lat="46.79447" lon="5.83791">
        <ele>613.46</ele>
        <time>2014-08-05T08:42:43Z</time>
      </trkpt>
      <trkpt lat="46.79453" lon="5.83792">
        <ele>613.46</ele>
        <time>2014-08-05T08:42:48Z</time>
      </trkpt>
      <trkpt lat="46.79456" lon="5.83793">
        <ele>613.94</ele>
        <time>2014-08-05T08:42:51Z</time>
      </trkpt>
      <trkpt lat="46.7946" lon="5.83785">
        <ele>613.94</ele>
        <time>2014-08-05T08:42:55Z</time>
      </trkpt>
      <trkpt lat="46.79468" lon="5.83783">
        <ele>614.42</ele>
        <time>2014-08-05T08:43:00Z</time>
      </trkpt>
      <trkpt lat="46.7947" lon="5.83785">
        <ele>613.94</ele>
        <time>2014-08-05T08:43:10Z</time>
      </trkpt>
      <trkpt lat="46.79463" lon="5.83784">
        <ele>613.94</ele>
        <time>2014-08-05T08:51:18Z</time>
      </trkpt>
      <trkpt lat="46.79464" lon="5.83784">
        <ele>613.94</ele>
        <time>2014-08-05T08:51:19Z</time>
      </trkpt>
      <trkpt lat="46.79463" lon="5.83777">
        <ele>614.42</ele>
        <time>2014-08-05T08:51:31Z</time>
      </trkpt>
      <trkpt lat="46.79461" lon="5.83775">
        <ele>614.9</ele>
        <time>2014-08-05T08:51:38Z</time>
      </trkpt>
      <trkpt lat="46.79458" lon="5.83781">
        <ele>614.9</ele>
        <time>2014-08-05T08:51:42Z</time>
      </trkpt>
      <trkpt lat="46.79455" lon="5.83791">
        <ele>614.9</ele>
        <time>2014-08-05T08:51:46Z</time>
      </trkpt>
      <trkpt lat="46.79449" lon="5.83783">
        <ele>613.94</ele>
        <time>2014-08-05T08:51:53Z</time>
      </trkpt>
      <trkpt lat="46.79474" lon="5.83736">
        <ele>613.46</ele>
        <time>2014-08-05T08:52:05Z</time>
      </trkpt>
      <trkpt lat="46.7948" lon="5.83713">
        <ele>612.98</ele>
        <time>2014-08-05T08:52:09Z</time>
      </trkpt>
      <trkpt lat="46.7948" lon="5.8369">
        <ele>612.98</ele>
        <time>2014-08-05T08:52:13Z</time>
      </trkpt>
      <trkpt lat="46.79476" lon="5.83658">
        <ele>612.02</ele>
        <time>2014-08-05T08:52:18Z</time>
      </trkpt>
      <trkpt lat="46.79469" lon="5.83626">
        <ele>610.57</ele>
        <time>2014-08-05T08:52:22Z</time>
      </trkpt>
      <trkpt lat="46.79463" lon="5.83583">
        <ele>606.25</ele>
        <time>2014-08-05T08:52:26Z</time>
      </trkpt>
      <trkpt lat="46.79482" lon="5.83544">
        <ele>602.88</ele>
        <time>2014-08-05T08:52:30Z</time>
      </trkpt>
      <trkpt lat="46.79498" lon="5.83529">
        <ele>600.96</ele>
        <time>2014-08-05T08:52:32Z</time>
      </trkpt>
      <trkpt lat="46.79533" lon="5.83505">
        <ele>598.56</ele>
        <time>2014-08-05T08:52:36Z</time>
      </trkpt>
      <trkpt lat="46.7956" lon="5.83468">
        <ele>596.64</ele>
        <time>2014-08-05T08:52:40Z</time>
      </trkpt>
      <trkpt lat="46.79569" lon="5.83446">
        <ele>596.64</ele>
        <time>2014-08-05T08:52:42Z</time>
      </trkpt>
      <trkpt lat="46.7959" lon="5.83415">
        <ele>596.15</ele>
        <time>2014-08-05T08:52:46Z</time>
      </trkpt>
      <trkpt lat="46.79631" lon="5.83371">
        <ele>596.15</ele>
        <time>2014-08-05T08:52:54Z</time>
      </trkpt>
      <trkpt lat="46.79664" lon="5.83356">
        <ele>595.67</ele>
        <time>2014-08-05T08:53:00Z</time>
      </trkpt>
      <trkpt lat="46.79711" lon="5.83352">
        <ele>595.67</ele>
        <time>2014-08-05T08:53:09Z</time>
      </trkpt>
      <trkpt lat="46.79731" lon="5.83354">
        <ele>595.67</ele>
        <time>2014-08-05T08:53:13Z</time>
      </trkpt>
      <trkpt lat="46.79755" lon="5.83356">
        <ele>595.67</ele>
        <time>2014-08-05T08:53:18Z</time>
      </trkpt>
      <trkpt lat="46.79777" lon="5.83356">
        <ele>595.67</ele>
        <time>2014-08-05T08:53:23Z</time>
      </trkpt>
      <trkpt lat="46.7979" lon="5.83355">
        <ele>595.67</ele>
        <time>2014-08-05T08:53:26Z</time>
      </trkpt>
      <trkpt lat="46.79863" lon="5.8335">
        <ele>594.23</ele>
        <time>2014-08-05T08:53:42Z</time>
      </trkpt>
      <trkpt lat="46.79877" lon="5.83348">
        <ele>594.23</ele>
        <time>2014-08-05T08:53:45Z</time>
      </trkpt>
      <trkpt lat="46.79893" lon="5.8335">
        <ele>594.23</ele>
        <time>2014-08-05T08:53:53Z</time>
      </trkpt>
      <trkpt lat="46.79893" lon="5.8335">
        <ele>594.23</ele>
        <time>2014-08-05T08:54:13Z</time>
      </trkpt>
      <trkpt lat="46.79893" lon="5.8335">
        <ele>594.71</ele>
        <time>2014-08-05T08:54:34Z</time>
      </trkpt>
      <trkpt lat="46.79893" lon="5.8335">
        <ele>594.23</ele>
        <time>2014-08-05T08:54:56Z</time>
      </trkpt>
      <trkpt lat="46.79895" lon="5.8335">
        <ele>594.23</ele>
        <time>2014-08-05T08:55:13Z</time>
      </trkpt>
      <trkpt lat="46.79907" lon="5.8335">
        <ele>594.23</ele>
        <time>2014-08-05T08:55:18Z</time>
      </trkpt>
      <trkpt lat="46.79953" lon="5.83322">
        <ele>593.75</ele>
        <time>2014-08-05T08:55:29Z</time>
      </trkpt>
      <trkpt lat="46.79961" lon="5.83316">
        <ele>593.27</ele>
        <time>2014-08-05T08:55:31Z</time>
      </trkpt>
      <trkpt lat="46.79991" lon="5.83297">
        <ele>592.79</ele>
        <time>2014-08-05T08:55:38Z</time>
      </trkpt>
      <trkpt lat="46.80018" lon="5.8326">
        <ele>592.31</ele>
        <time>2014-08-05T08:55:46Z</time>
      </trkpt>
      <trkpt lat="46.80028" lon="5.83243">
        <ele>592.31</ele>
        <time>2014-08-05T08:55:49Z</time>
      </trkpt>
      <trkpt lat="46.80042" lon="5.83223">
        <ele>591.83</ele>
        <time>2014-08-05T08:55:53Z</time>
      </trkpt>
      <trkpt lat="46.80051" lon="5.83214">
        <ele>591.35</ele>
        <time>2014-08-05T08:55:55Z</time>
      </trkpt>
      <trkpt lat="46.8014" lon="5.83165">
        <ele>589.43</ele>
        <time>2014-08-05T08:56:12Z</time>
      </trkpt>
      <trkpt lat="46.80241" lon="5.83117">
        <ele>587.98</ele>
        <time>2014-08-05T08:56:31Z</time>
      </trkpt>
      <trkpt lat="46.80316" lon="5.83067">
        <ele>586.54</ele>
        <time>2014-08-05T08:56:47Z</time>
      </trkpt>
      <trkpt lat="46.80343" lon="5.83039">
        <ele>586.06</ele>
        <time>2014-08-05T08:56:53Z</time>
      </trkpt>
      <trkpt lat="46.80383" lon="5.82975">
        <ele>584.62</ele>
        <time>2014-08-05T08:57:04Z</time>
      </trkpt>
      <trkpt lat="46.80428" lon="5.82827">
        <ele>582.22</ele>
        <time>2014-08-05T08:57:23Z</time>
      </trkpt>
      <trkpt lat="46.80461" lon="5.82683">
        <ele>580.77</ele>
        <time>2014-08-05T08:57:40Z</time>
      </trkpt>
      <trkpt lat="46.80466" lon="5.82663">
        <ele>580.29</ele>
        <time>2014-08-05T08:57:48Z</time>
      </trkpt>
      <trkpt lat="46.80466" lon="5.82663">
        <ele>579.81</ele>
        <time>2014-08-05T08:58:17Z</time>
      </trkpt>
      <trkpt lat="46.80466" lon="5.82663">
        <ele>580.29</ele>
        <time>2014-08-05T08:58:48Z</time>
      </trkpt>
      <trkpt lat="46.80466" lon="5.82663">
        <ele>580.29</ele>
        <time>2014-08-05T08:59:07Z</time>
      </trkpt>
      <trkpt lat="46.80466" lon="5.8266">
        <ele>579.81</ele>
        <time>2014-08-05T08:59:12Z</time>
      </trkpt>
      <trkpt lat="46.80469" lon="5.82644">
        <ele>579.81</ele>
        <time>2014-08-05T08:59:16Z</time>
      </trkpt>
      <trkpt lat="46.80499" lon="5.82512">
        <ele>578.85</ele>
        <time>2014-08-05T08:59:35Z</time>
      </trkpt>
      <trkpt lat="46.8053" lon="5.82375">
        <ele>578.37</ele>
        <time>2014-08-05T08:59:53Z</time>
      </trkpt>
      <trkpt lat="46.80559" lon="5.82244">
        <ele>578.85</ele>
        <time>2014-08-05T09:00:11Z</time>
      </trkpt>
      <trkpt lat="46.80587" lon="5.82123">
        <ele>579.33</ele>
        <time>2014-08-05T09:00:28Z</time>
      </trkpt>
      <trkpt lat="46.80616" lon="5.81994">
        <ele>578.85</ele>
        <time>2014-08-05T09:00:45Z</time>
      </trkpt>
      <trkpt lat="46.80634" lon="5.8191">
        <ele>579.33</ele>
        <time>2014-08-05T09:00:57Z</time>
      </trkpt>
      <trkpt lat="46.80641" lon="5.81883">
        <ele>579.33</ele>
        <time>2014-08-05T09:01:01Z</time>
      </trkpt>
      <trkpt lat="46.80672" lon="5.81753">
        <ele>578.85</ele>
        <time>2014-08-05T09:01:19Z</time>
      </trkpt>
      <trkpt lat="46.80704" lon="5.81611">
        <ele>577.89</ele>
        <time>2014-08-05T09:01:37Z</time>
      </trkpt>
      <trkpt lat="46.80733" lon="5.81483">
        <ele>578.37</ele>
        <time>2014-08-05T09:01:53Z</time>
      </trkpt>
      <trkpt lat="46.80764" lon="5.81362">
        <ele>580.29</ele>
        <time>2014-08-05T09:02:11Z</time>
      </trkpt>
      <trkpt lat="46.80782" lon="5.81273">
        <ele>581.25</ele>
        <time>2014-08-05T09:02:25Z</time>
      </trkpt>
      <trkpt lat="46.80808" lon="5.8115">
        <ele>580.77</ele>
        <time>2014-08-05T09:02:42Z</time>
      </trkpt>
      <trkpt lat="46.8083" lon="5.81046">
        <ele>580.29</ele>
        <time>2014-08-05T09:02:57Z</time>
      </trkpt>
      <trkpt lat="46.80859" lon="5.80914">
        <ele>577.89</ele>
        <time>2014-08-05T09:03:13Z</time>
      </trkpt>
      <trkpt lat="46.80891" lon="5.80776">
        <ele>575.97</ele>
        <time>2014-08-05T09:03:29Z</time>
      </trkpt>
      <trkpt lat="46.80924" lon="5.80628">
        <ele>575.97</ele>
        <time>2014-08-05T09:03:47Z</time>
      </trkpt>
      <trkpt lat="46.80952" lon="5.80505">
        <ele>577.89</ele>
        <time>2014-08-05T09:04:05Z</time>
      </trkpt>
      <trkpt lat="46.80964" lon="5.80449">
        <ele>578.85</ele>
        <time>2014-08-05T09:04:14Z</time>
      </trkpt>
      <trkpt lat="46.80969" lon="5.80425">
        <ele>579.33</ele>
        <time>2014-08-05T09:04:18Z</time>
      </trkpt>
      <trkpt lat="46.80994" lon="5.80317">
        <ele>581.25</ele>
        <time>2014-08-05T09:04:36Z</time>
      </trkpt>
      <trkpt lat="46.81001" lon="5.80281">
        <ele>581.73</ele>
        <time>2014-08-05T09:04:42Z</time>
      </trkpt>
      <trkpt lat="46.81021" lon="5.80188">
        <ele>582.22</ele>
        <time>2014-08-05T09:04:57Z</time>
      </trkpt>
      <trkpt lat="46.81044" lon="5.80097">
        <ele>581.73</ele>
        <time>2014-08-05T09:05:11Z</time>
      </trkpt>
      <trkpt lat="46.81068" lon="5.79991">
        <ele>581.25</ele>
        <time>2014-08-05T09:05:26Z</time>
      </trkpt>
      <trkpt lat="46.81074" lon="5.79962">
        <ele>581.25</ele>
        <time>2014-08-05T09:05:30Z</time>
      </trkpt>
      <trkpt lat="46.81079" lon="5.79926">
        <ele>580.77</ele>
        <time>2014-08-05T09:05:35Z</time>
      </trkpt>
      <trkpt lat="46.81084" lon="5.79896">
        <ele>580.77</ele>
        <time>2014-08-05T09:05:39Z</time>
      </trkpt>
      <trkpt lat="46.81084" lon="5.79889">
        <ele>580.77</ele>
        <time>2014-08-05T09:05:40Z</time>
      </trkpt>
      <trkpt lat="46.81068" lon="5.79872">
        <ele>580.29</ele>
        <time>2014-08-05T09:05:44Z</time>
      </trkpt>
      <trkpt lat="46.81062" lon="5.79871">
        <ele>579.81</ele>
        <time>2014-08-05T09:05:45Z</time>
      </trkpt>
      <trkpt lat="46.81056" lon="5.79871">
        <ele>579.81</ele>
        <time>2014-08-05T09:05:46Z</time>
      </trkpt>
      <trkpt lat="46.81026" lon="5.79872">
        <ele>579.33</ele>
        <time>2014-08-05T09:05:51Z</time>
      </trkpt>
      <trkpt lat="46.81014" lon="5.79874">
        <ele>579.33</ele>
        <time>2014-08-05T09:05:53Z</time>
      </trkpt>
      <trkpt lat="46.81008" lon="5.79873">
        <ele>579.33</ele>
        <time>2014-08-05T09:05:54Z</time>
      </trkpt>
      <trkpt lat="46.80995" lon="5.7987">
        <ele>579.33</ele>
        <time>2014-08-05T09:05:56Z</time>
      </trkpt>
      <trkpt lat="46.80989" lon="5.7987">
        <ele>579.33</ele>
        <time>2014-08-05T09:05:57Z</time>
      </trkpt>
      <trkpt lat="46.80983" lon="5.7987">
        <ele>579.33</ele>
        <time>2014-08-05T09:05:58Z</time>
      </trkpt>
      <trkpt lat="46.80976" lon="5.7987">
        <ele>579.33</ele>
        <time>2014-08-05T09:05:59Z</time>
      </trkpt>
      <trkpt lat="46.80971" lon="5.79869">
        <ele>578.85</ele>
        <time>2014-08-05T09:06:00Z</time>
      </trkpt>
      <trkpt lat="46.80965" lon="5.79869">
        <ele>578.85</ele>
        <time>2014-08-05T09:06:01Z</time>
      </trkpt>
      <trkpt lat="46.8094" lon="5.79868">
        <ele>578.85</ele>
        <time>2014-08-05T09:06:05Z</time>
      </trkpt>
      <trkpt lat="46.80935" lon="5.79868">
        <ele>578.85</ele>
        <time>2014-08-05T09:06:06Z</time>
      </trkpt>
      <trkpt lat="46.80851" lon="5.79866">
        <ele>577.41</ele>
        <time>2014-08-05T09:06:19Z</time>
      </trkpt>
      <trkpt lat="46.8077" lon="5.79863">
        <ele>575.49</ele>
        <time>2014-08-05T09:06:31Z</time>
      </trkpt>
      <trkpt lat="46.80694" lon="5.79859">
        <ele>573.08</ele>
        <time>2014-08-05T09:06:41Z</time>
      </trkpt>
      <trkpt lat="46.80657" lon="5.79857">
        <ele>572.6</ele>
        <time>2014-08-05T09:06:46Z</time>
      </trkpt>
      <trkpt lat="46.80624" lon="5.79857">
        <ele>572.6</ele>
        <time>2014-08-05T09:06:51Z</time>
      </trkpt>
      <trkpt lat="46.80532" lon="5.79854">
        <ele>571.64</ele>
        <time>2014-08-05T09:07:05Z</time>
      </trkpt>
      <trkpt lat="46.80414" lon="5.79848">
        <ele>571.16</ele>
        <time>2014-08-05T09:07:23Z</time>
      </trkpt>
      <trkpt lat="46.80361" lon="5.79845">
        <ele>571.64</ele>
        <time>2014-08-05T09:07:32Z</time>
      </trkpt>
      <trkpt lat="46.80267" lon="5.79844">
        <ele>571.16</ele>
        <time>2014-08-05T09:07:48Z</time>
      </trkpt>
      <trkpt lat="46.80231" lon="5.79843">
        <ele>570.68</ele>
        <time>2014-08-05T09:07:54Z</time>
      </trkpt>
      <trkpt lat="46.8014" lon="5.79839">
        <ele>570.2</ele>
        <time>2014-08-05T09:08:09Z</time>
      </trkpt>
      <trkpt lat="46.80066" lon="5.79834">
        <ele>570.2</ele>
        <time>2014-08-05T09:08:21Z</time>
      </trkpt>
      <trkpt lat="46.80006" lon="5.79833">
        <ele>569.72</ele>
        <time>2014-08-05T09:08:31Z</time>
      </trkpt>
      <trkpt lat="46.79913" lon="5.79829">
        <ele>569.72</ele>
        <time>2014-08-05T09:08:46Z</time>
      </trkpt>
      <trkpt lat="46.79823" lon="5.79823">
        <ele>569.24</ele>
        <time>2014-08-05T09:09:01Z</time>
      </trkpt>
      <trkpt lat="46.79745" lon="5.7982">
        <ele>569.72</ele>
        <time>2014-08-05T09:09:14Z</time>
      </trkpt>
      <trkpt lat="46.79675" lon="5.79815">
        <ele>570.68</ele>
        <time>2014-08-05T09:09:26Z</time>
      </trkpt>
      <trkpt lat="46.79599" lon="5.79813">
        <ele>569.72</ele>
        <time>2014-08-05T09:09:38Z</time>
      </trkpt>
      <trkpt lat="46.7952" lon="5.79806">
        <ele>568.76</ele>
        <time>2014-08-05T09:09:50Z</time>
      </trkpt>
      <trkpt lat="46.79425" lon="5.79814">
        <ele>565.39</ele>
        <time>2014-08-05T09:10:04Z</time>
      </trkpt>
      <trkpt lat="46.79316" lon="5.79808">
        <ele>562.51</ele>
        <time>2014-08-05T09:10:18Z</time>
      </trkpt>
      <trkpt lat="46.79268" lon="5.79802">
        <ele>560.11</ele>
        <time>2014-08-05T09:10:24Z</time>
      </trkpt>
      <trkpt lat="46.79145" lon="5.79769">
        <ele>557.7</ele>
        <time>2014-08-05T09:10:40Z</time>
      </trkpt>
      <trkpt lat="46.79042" lon="5.79738">
        <ele>558.66</ele>
        <time>2014-08-05T09:10:57Z</time>
      </trkpt>
      <trkpt lat="46.79037" lon="5.79737">
        <ele>558.66</ele>
        <time>2014-08-05T09:10:58Z</time>
      </trkpt>
      <trkpt lat="46.78958" lon="5.79715">
        <ele>559.62</ele>
        <time>2014-08-05T09:11:13Z</time>
      </trkpt>
      <trkpt lat="46.78893" lon="5.79687">
        <ele>559.14</ele>
        <time>2014-08-05T09:11:25Z</time>
      </trkpt>
      <trkpt lat="46.78874" lon="5.79677">
        <ele>558.66</ele>
        <time>2014-08-05T09:11:29Z</time>
      </trkpt>
      <trkpt lat="46.78864" lon="5.79672">
        <ele>558.66</ele>
        <time>2014-08-05T09:11:31Z</time>
      </trkpt>
      <trkpt lat="46.78838" lon="5.79657">
        <ele>558.66</ele>
        <time>2014-08-05T09:11:37Z</time>
      </trkpt>
      <trkpt lat="46.78769" lon="5.79624">
        <ele>556.74</ele>
        <time>2014-08-05T09:11:50Z</time>
      </trkpt>
      <trkpt lat="46.78705" lon="5.7959">
        <ele>553.38</ele>
        <time>2014-08-05T09:12:01Z</time>
      </trkpt>
      <trkpt lat="46.7869" lon="5.79579">
        <ele>552.41</ele>
        <time>2014-08-05T09:12:03Z</time>
      </trkpt>
      <trkpt lat="46.78677" lon="5.79563">
        <ele>551.45</ele>
        <time>2014-08-05T09:12:05Z</time>
      </trkpt>
      <trkpt lat="46.7866" lon="5.79533">
        <ele>550.01</ele>
        <time>2014-08-05T09:12:08Z</time>
      </trkpt>
      <trkpt lat="46.78644" lon="5.79503">
        <ele>548.57</ele>
        <time>2014-08-05T09:12:11Z</time>
      </trkpt>
      <trkpt lat="46.78602" lon="5.79488">
        <ele>545.69</ele>
        <time>2014-08-05T09:12:16Z</time>
      </trkpt>
      <trkpt lat="46.78573" lon="5.79496">
        <ele>545.2</ele>
        <time>2014-08-05T09:12:20Z</time>
      </trkpt>
      <trkpt lat="46.78551" lon="5.79487">
        <ele>543.76</ele>
        <time>2014-08-05T09:12:28Z</time>
      </trkpt>
      <trkpt lat="46.78552" lon="5.79486">
        <ele>543.76</ele>
        <time>2014-08-05T09:12:45Z</time>
      </trkpt>
      <trkpt lat="46.78552" lon="5.79486">
        <ele>544.24</ele>
        <time>2014-08-05T09:13:18Z</time>
      </trkpt>
      <trkpt lat="46.78551" lon="5.79486">
        <ele>543.76</ele>
        <time>2014-08-05T09:13:22Z</time>
      </trkpt>
      <trkpt lat="46.78541" lon="5.79478">
        <ele>543.28</ele>
        <time>2014-08-05T09:13:27Z</time>
      </trkpt>
      <trkpt lat="46.7851" lon="5.79453">
        <ele>542.32</ele>
        <time>2014-08-05T09:13:35Z</time>
      </trkpt>
      <trkpt lat="46.78501" lon="5.79447">
        <ele>541.84</ele>
        <time>2014-08-05T09:13:37Z</time>
      </trkpt>
      <trkpt lat="46.78484" lon="5.79441">
        <ele>541.36</ele>
        <time>2014-08-05T09:13:40Z</time>
      </trkpt>
      <trkpt lat="46.78411" lon="5.79384">
        <ele>538.96</ele>
        <time>2014-08-05T09:13:53Z</time>
      </trkpt>
      <trkpt lat="46.78313" lon="5.79315">
        <ele>536.07</ele>
        <time>2014-08-05T09:14:08Z</time>
      </trkpt>
      <trkpt lat="46.78234" lon="5.79244">
        <ele>534.63</ele>
        <time>2014-08-05T09:14:21Z</time>
      </trkpt>
      <trkpt lat="46.78143" lon="5.79175">
        <ele>534.15</ele>
        <time>2014-08-05T09:14:37Z</time>
      </trkpt>
      <trkpt lat="46.78071" lon="5.79113">
        <ele>534.15</ele>
        <time>2014-08-05T09:14:51Z</time>
      </trkpt>
      <trkpt lat="46.77978" lon="5.79018">
        <ele>535.59</ele>
        <time>2014-08-05T09:15:12Z</time>
      </trkpt>
      <trkpt lat="46.77892" lon="5.78957">
        <ele>535.11</ele>
        <time>2014-08-05T09:15:29Z</time>
      </trkpt>
      <trkpt lat="46.77814" lon="5.78847">
        <ele>534.63</ele>
        <time>2014-08-05T09:15:48Z</time>
      </trkpt>
      <trkpt lat="46.77737" lon="5.78733">
        <ele>533.67</ele>
        <time>2014-08-05T09:16:06Z</time>
      </trkpt>
      <trkpt lat="46.77658" lon="5.78634">
        <ele>533.67</ele>
        <time>2014-08-05T09:16:24Z</time>
      </trkpt>
      <trkpt lat="46.77584" lon="5.78546">
        <ele>533.19</ele>
        <time>2014-08-05T09:16:41Z</time>
      </trkpt>
      <trkpt lat="46.77542" lon="5.78493">
        <ele>533.19</ele>
        <time>2014-08-05T09:16:51Z</time>
      </trkpt>
      <trkpt lat="46.77533" lon="5.78473">
        <ele>533.19</ele>
        <time>2014-08-05T09:16:54Z</time>
      </trkpt>
      <trkpt lat="46.77511" lon="5.78352">
        <ele>533.67</ele>
        <time>2014-08-05T09:17:11Z</time>
      </trkpt>
      <trkpt lat="46.77509" lon="5.78341">
        <ele>533.67</ele>
        <time>2014-08-05T09:17:19Z</time>
      </trkpt>
      <trkpt lat="46.77507" lon="5.78336">
        <ele>533.67</ele>
        <time>2014-08-05T09:17:39Z</time>
      </trkpt>
      <trkpt lat="46.77503" lon="5.78313">
        <ele>534.15</ele>
        <time>2014-08-05T09:17:45Z</time>
      </trkpt>
      <trkpt lat="46.77492" lon="5.78245">
        <ele>535.59</ele>
        <time>2014-08-05T09:17:58Z</time>
      </trkpt>
      <trkpt lat="46.77473" lon="5.78173">
        <ele>537.99</ele>
        <time>2014-08-05T09:18:15Z</time>
      </trkpt>
      <trkpt lat="46.77444" lon="5.78157">
        <ele>539.92</ele>
        <time>2014-08-05T09:18:27Z</time>
      </trkpt>
      <trkpt lat="46.77417" lon="5.7816">
        <ele>541.84</ele>
        <time>2014-08-05T09:18:39Z</time>
      </trkpt>
      <trkpt lat="46.77397" lon="5.78166">
        <ele>543.76</ele>
        <time>2014-08-05T09:18:49Z</time>
      </trkpt>
      <trkpt lat="46.77365" lon="5.78169">
        <ele>545.2</ele>
        <time>2014-08-05T09:19:02Z</time>
      </trkpt>
      <trkpt lat="46.77339" lon="5.78172">
        <ele>547.13</ele>
        <time>2014-08-05T09:19:13Z</time>
      </trkpt>
      <trkpt lat="46.77307" lon="5.78176">
        <ele>548.57</ele>
        <time>2014-08-05T09:19:26Z</time>
      </trkpt>
      <trkpt lat="46.77271" lon="5.78177">
        <ele>550.49</ele>
        <time>2014-08-05T09:19:40Z</time>
      </trkpt>
      <trkpt lat="46.77237" lon="5.78182">
        <ele>552.41</ele>
        <time>2014-08-05T09:19:54Z</time>
      </trkpt>
      <trkpt lat="46.77206" lon="5.78179">
        <ele>553.86</ele>
        <time>2014-08-05T09:20:06Z</time>
      </trkpt>
      <trkpt lat="46.77178" lon="5.78148">
        <ele>556.74</ele>
        <time>2014-08-05T09:20:20Z</time>
      </trkpt>
      <trkpt lat="46.77169" lon="5.78132">
        <ele>557.22</ele>
        <time>2014-08-05T09:20:26Z</time>
      </trkpt>
      <trkpt lat="46.77165" lon="5.78119">
        <ele>557.7</ele>
        <time>2014-08-05T09:20:30Z</time>
      </trkpt>
      <trkpt lat="46.77149" lon="5.78084">
        <ele>559.62</ele>
        <time>2014-08-05T09:20:42Z</time>
      </trkpt>
      <trkpt lat="46.77129" lon="5.78033">
        <ele>561.07</ele>
        <time>2014-08-05T09:20:56Z</time>
      </trkpt>
      <trkpt lat="46.77114" lon="5.77973">
        <ele>561.55</ele>
        <time>2014-08-05T09:21:09Z</time>
      </trkpt>
      <trkpt lat="46.77095" lon="5.77899">
        <ele>562.03</ele>
        <time>2014-08-05T09:21:22Z</time>
      </trkpt>
      <trkpt lat="46.77043" lon="5.77784">
        <ele>561.55</ele>
        <time>2014-08-05T09:21:40Z</time>
      </trkpt>
      <trkpt lat="46.77026" lon="5.77748">
        <ele>562.03</ele>
        <time>2014-08-05T09:21:46Z</time>
      </trkpt>
      <trkpt lat="46.76998" lon="5.77691">
        <ele>561.55</ele>
        <time>2014-08-05T09:21:56Z</time>
      </trkpt>
      <trkpt lat="46.76981" lon="5.77657">
        <ele>561.55</ele>
        <time>2014-08-05T09:22:01Z</time>
      </trkpt>
      <trkpt lat="46.76931" lon="5.77546">
        <ele>562.03</ele>
        <time>2014-08-05T09:22:18Z</time>
      </trkpt>
      <trkpt lat="46.76885" lon="5.77446">
        <ele>561.07</ele>
        <time>2014-08-05T09:22:33Z</time>
      </trkpt>
      <trkpt lat="46.76854" lon="5.77386">
        <ele>561.55</ele>
        <time>2014-08-05T09:22:42Z</time>
      </trkpt>
      <trkpt lat="46.76841" lon="5.77363">
        <ele>562.51</ele>
        <time>2014-08-05T09:22:46Z</time>
      </trkpt>
      <trkpt lat="46.76829" lon="5.77339">
        <ele>563.47</ele>
        <time>2014-08-05T09:22:50Z</time>
      </trkpt>
      <trkpt lat="46.76786" lon="5.77243">
        <ele>565.39</ele>
        <time>2014-08-05T09:23:07Z</time>
      </trkpt>
      <trkpt lat="46.76738" lon="5.77144">
        <ele>565.87</ele>
        <time>2014-08-05T09:23:25Z</time>
      </trkpt>
      <trkpt lat="46.76709" lon="5.77083">
        <ele>567.32</ele>
        <time>2014-08-05T09:23:37Z</time>
      </trkpt>
      <trkpt lat="46.76668" lon="5.76995">
        <ele>568.76</ele>
        <time>2014-08-05T09:23:53Z</time>
      </trkpt>
      <trkpt lat="46.76663" lon="5.76984">
        <ele>569.24</ele>
        <time>2014-08-05T09:23:55Z</time>
      </trkpt>
      <trkpt lat="46.76634" lon="5.76921">
        <ele>571.64</ele>
        <time>2014-08-05T09:24:10Z</time>
      </trkpt>
      <trkpt lat="46.76611" lon="5.76878">
        <ele>573.08</ele>
        <time>2014-08-05T09:24:22Z</time>
      </trkpt>
      <trkpt lat="46.76582" lon="5.76821">
        <ele>573.08</ele>
        <time>2014-08-05T09:24:34Z</time>
      </trkpt>
      <trkpt lat="46.76534" lon="5.76739">
        <ele>570.68</ele>
        <time>2014-08-05T09:24:47Z</time>
      </trkpt>
      <trkpt lat="46.76484" lon="5.76655">
        <ele>567.8</ele>
        <time>2014-08-05T09:25:00Z</time>
      </trkpt>
      <trkpt lat="46.76461" lon="5.76618">
        <ele>566.35</ele>
        <time>2014-08-05T09:25:05Z</time>
      </trkpt>
      <trkpt lat="46.76399" lon="5.76544">
        <ele>562.99</ele>
        <time>2014-08-05T09:25:16Z</time>
      </trkpt>
      <trkpt lat="46.76342" lon="5.76473">
        <ele>561.55</ele>
        <time>2014-08-05T09:25:27Z</time>
      </trkpt>
      <trkpt lat="46.76323" lon="5.76449">
        <ele>561.07</ele>
        <time>2014-08-05T09:25:31Z</time>
      </trkpt>
      <trkpt lat="46.76288" lon="5.76397">
        <ele>561.07</ele>
        <time>2014-08-05T09:25:40Z</time>
      </trkpt>
      <trkpt lat="46.7628" lon="5.76377">
        <ele>561.55</ele>
        <time>2014-08-05T09:25:43Z</time>
      </trkpt>
      <trkpt lat="46.76275" lon="5.76351">
        <ele>561.55</ele>
        <time>2014-08-05T09:25:47Z</time>
      </trkpt>
      <trkpt lat="46.76273" lon="5.76339">
        <ele>561.55</ele>
        <time>2014-08-05T09:25:49Z</time>
      </trkpt>
      <trkpt lat="46.76262" lon="5.76258">
        <ele>562.03</ele>
        <time>2014-08-05T09:26:01Z</time>
      </trkpt>
      <trkpt lat="46.76259" lon="5.76237">
        <ele>561.55</ele>
        <time>2014-08-05T09:26:04Z</time>
      </trkpt>
      <trkpt lat="46.76257" lon="5.76223">
        <ele>561.55</ele>
        <time>2014-08-05T09:26:06Z</time>
      </trkpt>
      <trkpt lat="46.76244" lon="5.7614">
        <ele>562.03</ele>
        <time>2014-08-05T09:26:18Z</time>
      </trkpt>
      <trkpt lat="46.7624" lon="5.76112">
        <ele>562.03</ele>
        <time>2014-08-05T09:26:22Z</time>
      </trkpt>
      <trkpt lat="46.76228" lon="5.76047">
        <ele>563.47</ele>
        <time>2014-08-05T09:26:32Z</time>
      </trkpt>
      <trkpt lat="46.76188" lon="5.75956">
        <ele>563.95</ele>
        <time>2014-08-05T09:26:47Z</time>
      </trkpt>
      <trkpt lat="46.76157" lon="5.75891">
        <ele>563.47</ele>
        <time>2014-08-05T09:26:57Z</time>
      </trkpt>
      <trkpt lat="46.76138" lon="5.7585">
        <ele>562.99</ele>
        <time>2014-08-05T09:27:03Z</time>
      </trkpt>
      <trkpt lat="46.76046" lon="5.75768">
        <ele>561.07</ele>
        <time>2014-08-05T09:27:19Z</time>
      </trkpt>
      <trkpt lat="46.75965" lon="5.75725">
        <ele>562.03</ele>
        <time>2014-08-05T09:27:32Z</time>
      </trkpt>
      <trkpt lat="46.75895" lon="5.75735">
        <ele>563.95</ele>
        <time>2014-08-05T09:27:45Z</time>
      </trkpt>
      <trkpt lat="46.75847" lon="5.75736">
        <ele>567.32</ele>
        <time>2014-08-05T09:27:58Z</time>
      </trkpt>
      <trkpt lat="46.75843" lon="5.75734">
        <ele>567.32</ele>
        <time>2014-08-05T09:27:59Z</time>
      </trkpt>
      <trkpt lat="46.75811" lon="5.75719">
        <ele>567.8</ele>
        <time>2014-08-05T09:28:07Z</time>
      </trkpt>
      <trkpt lat="46.75803" lon="5.75712">
        <ele>567.8</ele>
        <time>2014-08-05T09:28:09Z</time>
      </trkpt>
      <trkpt lat="46.75782" lon="5.7569">
        <ele>566.83</ele>
        <time>2014-08-05T09:28:14Z</time>
      </trkpt>
      <trkpt lat="46.75699" lon="5.75647">
        <ele>566.35</ele>
        <time>2014-08-05T09:28:30Z</time>
      </trkpt>
      <trkpt lat="46.75631" lon="5.75615">
        <ele>565.39</ele>
        <time>2014-08-05T09:28:42Z</time>
      </trkpt>
      <trkpt lat="46.75554" lon="5.75605">
        <ele>565.87</ele>
        <time>2014-08-05T09:28:56Z</time>
      </trkpt>
      <trkpt lat="46.75472" lon="5.75566">
        <ele>566.83</ele>
        <time>2014-08-05T09:29:13Z</time>
      </trkpt>
      <trkpt lat="46.75459" lon="5.75558">
        <ele>567.32</ele>
        <time>2014-08-05T09:29:16Z</time>
      </trkpt>
      <trkpt lat="46.75395" lon="5.75497">
        <ele>566.35</ele>
        <time>2014-08-05T09:29:31Z</time>
      </trkpt>
      <trkpt lat="46.75381" lon="5.75484">
        <ele>566.35</ele>
        <time>2014-08-05T09:29:34Z</time>
      </trkpt>
      <trkpt lat="46.75308" lon="5.75427">
        <ele>567.32</ele>
        <time>2014-08-05T09:29:49Z</time>
      </trkpt>
      <trkpt lat="46.75236" lon="5.75347">
        <ele>567.8</ele>
        <time>2014-08-05T09:30:06Z</time>
      </trkpt>
      <trkpt lat="46.7521" lon="5.7531">
        <ele>568.28</ele>
        <time>2014-08-05T09:30:13Z</time>
      </trkpt>
      <trkpt lat="46.75203" lon="5.75272">
        <ele>568.76</ele>
        <time>2014-08-05T09:30:19Z</time>
      </trkpt>
      <trkpt lat="46.75209" lon="5.75211">
        <ele>569.24</ele>
        <time>2014-08-05T09:30:32Z</time>
      </trkpt>
      <trkpt lat="46.75211" lon="5.75183">
        <ele>569.24</ele>
        <time>2014-08-05T09:30:38Z</time>
      </trkpt>
      <trkpt lat="46.75214" lon="5.75168">
        <ele>568.28</ele>
        <time>2014-08-05T09:30:41Z</time>
      </trkpt>
      <trkpt lat="46.75213" lon="5.75139">
        <ele>568.28</ele>
        <time>2014-08-05T09:30:47Z</time>
      </trkpt>
      <trkpt lat="46.75213" lon="5.75137">
        <ele>567.8</ele>
        <time>2014-08-05T09:30:53Z</time>
      </trkpt>
      <trkpt lat="46.75214" lon="5.75131">
        <ele>567.8</ele>
        <time>2014-08-05T09:30:56Z</time>
      </trkpt>
      <trkpt lat="46.75212" lon="5.75121">
        <ele>567.8</ele>
        <time>2014-08-05T09:30:59Z</time>
      </trkpt>
      <trkpt lat="46.75223" lon="5.75093">
        <ele>567.8</ele>
        <time>2014-08-05T09:31:06Z</time>
      </trkpt>
      <trkpt lat="46.75228" lon="5.75068">
        <ele>566.83</ele>
        <time>2014-08-05T09:31:10Z</time>
      </trkpt>
      <trkpt lat="46.75259" lon="5.74985">
        <ele>563.47</ele>
        <time>2014-08-05T09:31:20Z</time>
      </trkpt>
      <trkpt lat="46.75308" lon="5.74852">
        <ele>561.07</ele>
        <time>2014-08-05T09:31:34Z</time>
      </trkpt>
      <trkpt lat="46.75322" lon="5.7481">
        <ele>561.07</ele>
        <time>2014-08-05T09:31:39Z</time>
      </trkpt>
      <trkpt lat="46.7534" lon="5.74696">
        <ele>558.66</ele>
        <time>2014-08-05T09:31:51Z</time>
      </trkpt>
      <trkpt lat="46.75353" lon="5.74652">
        <ele>557.22</ele>
        <time>2014-08-05T09:31:56Z</time>
      </trkpt>
      <trkpt lat="46.75359" lon="5.74636">
        <ele>556.74</ele>
        <time>2014-08-05T09:31:58Z</time>
      </trkpt>
      <trkpt lat="46.75369" lon="5.74602">
        <ele>556.26</ele>
        <time>2014-08-05T09:32:02Z</time>
      </trkpt>
      <trkpt lat="46.75416" lon="5.74507">
        <ele>556.74</ele>
        <time>2014-08-05T09:32:17Z</time>
      </trkpt>
      <trkpt lat="46.75455" lon="5.74461">
        <ele>557.7</ele>
        <time>2014-08-05T09:32:30Z</time>
      </trkpt>
      <trkpt lat="46.75491" lon="5.74474">
        <ele>559.14</ele>
        <time>2014-08-05T09:32:40Z</time>
      </trkpt>
      <trkpt lat="46.75504" lon="5.74479">
        <ele>559.14</ele>
        <time>2014-08-05T09:32:43Z</time>
      </trkpt>
      <trkpt lat="46.7553" lon="5.74488">
        <ele>559.62</ele>
        <time>2014-08-05T09:32:52Z</time>
      </trkpt>
      <trkpt lat="46.75548" lon="5.74482">
        <ele>560.11</ele>
        <time>2014-08-05T09:33:02Z</time>
      </trkpt>
      <trkpt lat="46.75548" lon="5.74482">
        <ele>560.11</ele>
        <time>2014-08-05T09:33:31Z</time>
      </trkpt>
      <trkpt lat="46.75548" lon="5.74482">
        <ele>559.62</ele>
        <time>2014-08-05T09:33:45Z</time>
      </trkpt>
      <trkpt lat="46.75544" lon="5.74487">
        <ele>559.62</ele>
        <time>2014-08-05T09:33:52Z</time>
      </trkpt>
      <trkpt lat="46.75545" lon="5.7449">
        <ele>559.62</ele>
        <time>2014-08-05T09:33:55Z</time>
      </trkpt>
      <trkpt lat="46.75542" lon="5.74485">
        <ele>559.62</ele>
        <time>2014-08-05T09:34:04Z</time>
      </trkpt>
      <trkpt lat="46.75545" lon="5.74482">
        <ele>559.62</ele>
        <time>2014-08-05T09:34:07Z</time>
      </trkpt>
      <trkpt lat="46.75547" lon="5.74481">
        <ele>560.11</ele>
        <time>2014-08-05T09:34:18Z</time>
      </trkpt>
      <trkpt lat="46.75547" lon="5.74481">
        <ele>560.11</ele>
        <time>2014-08-05T09:34:34Z</time>
      </trkpt>
      <trkpt lat="46.75547" lon="5.74481">
        <ele>560.11</ele>
        <time>2014-08-05T09:35:00Z</time>
      </trkpt>
      <trkpt lat="46.75556" lon="5.74459">
        <ele>559.62</ele>
        <time>2014-08-05T09:35:10Z</time>
      </trkpt>
      <trkpt lat="46.75575" lon="5.74403">
        <ele>559.14</ele>
        <time>2014-08-05T09:35:21Z</time>
      </trkpt>
      <trkpt lat="46.75611" lon="5.74294">
        <ele>556.26</ele>
        <time>2014-08-05T09:35:35Z</time>
      </trkpt>
      <trkpt lat="46.75641" lon="5.74212">
        <ele>553.86</ele>
        <time>2014-08-05T09:35:45Z</time>
      </trkpt>
      <trkpt lat="46.75643" lon="5.74178">
        <ele>552.9</ele>
        <time>2014-08-05T09:35:49Z</time>
      </trkpt>
      <trkpt lat="46.75647" lon="5.74028">
        <ele>549.53</ele>
        <time>2014-08-05T09:36:05Z</time>
      </trkpt>
      <trkpt lat="46.75652" lon="5.73833">
        <ele>546.65</ele>
        <time>2014-08-05T09:36:23Z</time>
      </trkpt>
      <trkpt lat="46.75658" lon="5.73695">
        <ele>545.69</ele>
        <time>2014-08-05T09:36:37Z</time>
      </trkpt>
      <trkpt lat="46.75662" lon="5.73537">
        <ele>544.24</ele>
        <time>2014-08-05T09:36:53Z</time>
      </trkpt>
      <trkpt lat="46.75668" lon="5.73367">
        <ele>542.32</ele>
        <time>2014-08-05T09:37:10Z</time>
      </trkpt>
      <trkpt lat="46.75645" lon="5.73242">
        <ele>541.36</ele>
        <time>2014-08-05T09:37:23Z</time>
      </trkpt>
      <trkpt lat="46.75604" lon="5.73111">
        <ele>539.44</ele>
        <time>2014-08-05T09:37:38Z</time>
      </trkpt>
      <trkpt lat="46.75593" lon="5.73078">
        <ele>538.96</ele>
        <time>2014-08-05T09:37:42Z</time>
      </trkpt>
      <trkpt lat="46.75548" lon="5.7293">
        <ele>537.03</ele>
        <time>2014-08-05T09:37:59Z</time>
      </trkpt>
      <trkpt lat="46.75509" lon="5.72805">
        <ele>535.59</ele>
        <time>2014-08-05T09:38:13Z</time>
      </trkpt>
      <trkpt lat="46.75471" lon="5.7268">
        <ele>535.11</ele>
        <time>2014-08-05T09:38:28Z</time>
      </trkpt>
      <trkpt lat="46.75453" lon="5.7262">
        <ele>535.11</ele>
        <time>2014-08-05T09:38:36Z</time>
      </trkpt>
      <trkpt lat="46.75447" lon="5.72593">
        <ele>535.11</ele>
        <time>2014-08-05T09:38:40Z</time>
      </trkpt>
      <trkpt lat="46.75424" lon="5.72563">
        <ele>534.15</ele>
        <time>2014-08-05T09:38:48Z</time>
      </trkpt>
      <trkpt lat="46.75375" lon="5.72535">
        <ele>534.15</ele>
        <time>2014-08-05T09:39:03Z</time>
      </trkpt>
      <trkpt lat="46.75332" lon="5.72531">
        <ele>534.63</ele>
        <time>2014-08-05T09:39:15Z</time>
      </trkpt>
      <trkpt lat="46.75295" lon="5.72519">
        <ele>534.63</ele>
        <time>2014-08-05T09:39:24Z</time>
      </trkpt>
      <trkpt lat="46.7524" lon="5.72513">
        <ele>536.55</ele>
        <time>2014-08-05T09:39:39Z</time>
      </trkpt>
      <trkpt lat="46.75193" lon="5.72506">
        <ele>539.92</ele>
        <time>2014-08-05T09:39:55Z</time>
      </trkpt>
      <trkpt lat="46.75166" lon="5.72481">
        <ele>539.44</ele>
        <time>2014-08-05T09:40:08Z</time>
      </trkpt>
      <trkpt lat="46.75152" lon="5.72444">
        <ele>537.99</ele>
        <time>2014-08-05T09:40:14Z</time>
      </trkpt>
      <trkpt lat="46.75147" lon="5.7243">
        <ele>537.51</ele>
        <time>2014-08-05T09:40:16Z</time>
      </trkpt>
      <trkpt lat="46.75121" lon="5.72358">
        <ele>537.03</ele>
        <time>2014-08-05T09:40:29Z</time>
      </trkpt>
      <trkpt lat="46.75117" lon="5.72354">
        <ele>536.55</ele>
        <time>2014-08-05T09:40:40Z</time>
      </trkpt>
      <trkpt lat="46.75117" lon="5.72354">
        <ele>536.55</ele>
        <time>2014-08-05T09:41:13Z</time>
      </trkpt>
      <trkpt lat="46.75116" lon="5.72354">
        <ele>536.55</ele>
        <time>2014-08-05T09:41:46Z</time>
      </trkpt>
      <trkpt lat="46.75115" lon="5.72354">
        <ele>536.55</ele>
        <time>2014-08-05T09:41:47Z</time>
      </trkpt>
      <trkpt lat="46.75103" lon="5.72355">
        <ele>536.07</ele>
        <time>2014-08-05T09:41:52Z</time>
      </trkpt>
      <trkpt lat="46.75071" lon="5.72368">
        <ele>536.07</ele>
        <time>2014-08-05T09:42:01Z</time>
      </trkpt>
      <trkpt lat="46.75018" lon="5.72395">
        <ele>537.99</ele>
        <time>2014-08-05T09:42:16Z</time>
      </trkpt>
      <trkpt lat="46.74962" lon="5.72361">
        <ele>538.48</ele>
        <time>2014-08-05T09:42:31Z</time>
      </trkpt>
      <trkpt lat="46.74906" lon="5.72297">
        <ele>538.48</ele>
        <time>2014-08-05T09:42:46Z</time>
      </trkpt>
      <trkpt lat="46.7489" lon="5.72278">
        <ele>538.96</ele>
        <time>2014-08-05T09:42:51Z</time>
      </trkpt>
      <trkpt lat="46.74876" lon="5.72236">
        <ele>540.4</ele>
        <time>2014-08-05T09:42:59Z</time>
      </trkpt>
      <trkpt lat="46.74878" lon="5.72218">
        <ele>540.88</ele>
        <time>2014-08-05T09:43:02Z</time>
      </trkpt>
      <trkpt lat="46.74901" lon="5.72116">
        <ele>541.84</ele>
        <time>2014-08-05T09:43:18Z</time>
      </trkpt>
      <trkpt lat="46.74897" lon="5.72003">
        <ele>541.36</ele>
        <time>2014-08-05T09:43:34Z</time>
      </trkpt>
      <trkpt lat="46.74879" lon="5.71867">
        <ele>540.88</ele>
        <time>2014-08-05T09:43:53Z</time>
      </trkpt>
      <trkpt lat="46.74846" lon="5.71741">
        <ele>538.48</ele>
        <time>2014-08-05T09:44:08Z</time>
      </trkpt>
      <trkpt lat="46.74841" lon="5.71723">
        <ele>538.48</ele>
        <time>2014-08-05T09:44:10Z</time>
      </trkpt>
      <trkpt lat="46.74826" lon="5.71692">
        <ele>538.48</ele>
        <time>2014-08-05T09:44:14Z</time>
      </trkpt>
      <trkpt lat="46.7477" lon="5.71617">
        <ele>540.4</ele>
        <time>2014-08-05T09:44:29Z</time>
      </trkpt>
      <trkpt lat="46.74713" lon="5.71545">
        <ele>540.4</ele>
        <time>2014-08-05T09:44:44Z</time>
      </trkpt>
      <trkpt lat="46.7463" lon="5.71429">
        <ele>537.99</ele>
        <time>2014-08-05T09:45:01Z</time>
      </trkpt>
      <trkpt lat="46.74577" lon="5.71319">
        <ele>538.96</ele>
        <time>2014-08-05T09:45:16Z</time>
      </trkpt>
      <trkpt lat="46.74543" lon="5.71215">
        <ele>540.88</ele>
        <time>2014-08-05T09:45:34Z</time>
      </trkpt>
      <trkpt lat="46.74506" lon="5.71104">
        <ele>541.84</ele>
        <time>2014-08-05T09:45:54Z</time>
      </trkpt>
      <trkpt lat="46.74473" lon="5.71004">
        <ele>542.32</ele>
        <time>2014-08-05T09:46:11Z</time>
      </trkpt>
      <trkpt lat="46.74451" lon="5.70956">
        <ele>542.8</ele>
        <time>2014-08-05T09:46:20Z</time>
      </trkpt>
      <trkpt lat="46.74392" lon="5.70868">
        <ele>539.44</ele>
        <time>2014-08-05T09:46:34Z</time>
      </trkpt>
      <trkpt lat="46.74324" lon="5.70768">
        <ele>537.99</ele>
        <time>2014-08-05T09:46:49Z</time>
      </trkpt>
      <trkpt lat="46.74272" lon="5.70692">
        <ele>539.44</ele>
        <time>2014-08-05T09:47:04Z</time>
      </trkpt>
      <trkpt lat="46.74233" lon="5.70635">
        <ele>541.36</ele>
        <time>2014-08-05T09:47:18Z</time>
      </trkpt>
      <trkpt lat="46.74196" lon="5.70581">
        <ele>543.28</ele>
        <time>2014-08-05T09:47:33Z</time>
      </trkpt>
      <trkpt lat="46.74163" lon="5.70535">
        <ele>544.72</ele>
        <time>2014-08-05T09:47:47Z</time>
      </trkpt>
      <trkpt lat="46.74137" lon="5.70497">
        <ele>544.72</ele>
        <time>2014-08-05T09:47:57Z</time>
      </trkpt>
      <trkpt lat="46.74077" lon="5.70412">
        <ele>542.32</ele>
        <time>2014-08-05T09:48:11Z</time>
      </trkpt>
      <trkpt lat="46.74039" lon="5.70348">
        <ele>542.32</ele>
        <time>2014-08-05T09:48:20Z</time>
      </trkpt>
      <trkpt lat="46.74028" lon="5.70309">
        <ele>542.8</ele>
        <time>2014-08-05T09:48:26Z</time>
      </trkpt>
      <trkpt lat="46.74007" lon="5.70207">
        <ele>544.72</ele>
        <time>2014-08-05T09:48:43Z</time>
      </trkpt>
      <trkpt lat="46.73991" lon="5.70173">
        <ele>544.24</ele>
        <time>2014-08-05T09:48:49Z</time>
      </trkpt>
      <trkpt lat="46.73957" lon="5.70147">
        <ele>542.8</ele>
        <time>2014-08-05T09:48:56Z</time>
      </trkpt>
      <trkpt lat="46.73936" lon="5.70127">
        <ele>542.32</ele>
        <time>2014-08-05T09:49:00Z</time>
      </trkpt>
      <trkpt lat="46.73911" lon="5.70082">
        <ele>543.28</ele>
        <time>2014-08-05T09:49:07Z</time>
      </trkpt>
      <trkpt lat="46.73892" lon="5.70049">
        <ele>542.8</ele>
        <time>2014-08-05T09:49:12Z</time>
      </trkpt>
      <trkpt lat="46.73859" lon="5.70015">
        <ele>541.84</ele>
        <time>2014-08-05T09:49:19Z</time>
      </trkpt>
      <trkpt lat="46.73804" lon="5.69994">
        <ele>541.84</ele>
        <time>2014-08-05T09:49:28Z</time>
      </trkpt>
      <trkpt lat="46.73765" lon="5.69957">
        <ele>543.28</ele>
        <time>2014-08-05T09:49:37Z</time>
      </trkpt>
      <trkpt lat="46.73758" lon="5.69946">
        <ele>543.76</ele>
        <time>2014-08-05T09:49:39Z</time>
      </trkpt>
      <trkpt lat="46.7375" lon="5.69929">
        <ele>544.24</ele>
        <time>2014-08-05T09:49:42Z</time>
      </trkpt>
      <trkpt lat="46.73748" lon="5.69911">
        <ele>544.72</ele>
        <time>2014-08-05T09:49:45Z</time>
      </trkpt>
      <trkpt lat="46.73743" lon="5.69881">
        <ele>544.24</ele>
        <time>2014-08-05T09:49:50Z</time>
      </trkpt>
      <trkpt lat="46.73737" lon="5.69863">
        <ele>543.76</ele>
        <time>2014-08-05T09:49:53Z</time>
      </trkpt>
      <trkpt lat="46.73721" lon="5.69846">
        <ele>542.8</ele>
        <time>2014-08-05T09:49:57Z</time>
      </trkpt>
      <trkpt lat="46.73711" lon="5.69839">
        <ele>542.32</ele>
        <time>2014-08-05T09:49:59Z</time>
      </trkpt>
      <trkpt lat="46.73696" lon="5.69834">
        <ele>540.88</ele>
        <time>2014-08-05T09:50:02Z</time>
      </trkpt>
      <trkpt lat="46.73689" lon="5.69832">
        <ele>540.4</ele>
        <time>2014-08-05T09:50:04Z</time>
      </trkpt>
      <trkpt lat="46.73674" lon="5.69839">
        <ele>539.44</ele>
        <time>2014-08-05T09:50:08Z</time>
      </trkpt>
      <trkpt lat="46.73667" lon="5.69848">
        <ele>538.96</ele>
        <time>2014-08-05T09:50:10Z</time>
      </trkpt>
      <trkpt lat="46.73627" lon="5.69892">
        <ele>537.51</ele>
        <time>2014-08-05T09:50:19Z</time>
      </trkpt>
      <trkpt lat="46.73577" lon="5.69947">
        <ele>535.11</ele>
        <time>2014-08-05T09:50:29Z</time>
      </trkpt>
      <trkpt lat="46.73564" lon="5.69949">
        <ele>535.11</ele>
        <time>2014-08-05T09:50:31Z</time>
      </trkpt>
      <trkpt lat="46.73536" lon="5.69934">
        <ele>535.11</ele>
        <time>2014-08-05T09:50:36Z</time>
      </trkpt>
      <trkpt lat="46.73529" lon="5.69922">
        <ele>535.11</ele>
        <time>2014-08-05T09:50:38Z</time>
      </trkpt>
      <trkpt lat="46.73523" lon="5.69909">
        <ele>534.63</ele>
        <time>2014-08-05T09:50:40Z</time>
      </trkpt>
      <trkpt lat="46.73514" lon="5.6989">
        <ele>534.15</ele>
        <time>2014-08-05T09:50:43Z</time>
      </trkpt>
      <trkpt lat="46.73512" lon="5.6984">
        <ele>533.19</ele>
        <time>2014-08-05T09:50:49Z</time>
      </trkpt>
      <trkpt lat="46.73489" lon="5.69774">
        <ele>531.75</ele>
        <time>2014-08-05T09:50:58Z</time>
      </trkpt>
      <trkpt lat="46.73414" lon="5.69719">
        <ele>532.23</ele>
        <time>2014-08-05T09:51:11Z</time>
      </trkpt>
      <trkpt lat="46.73366" lon="5.69684">
        <ele>533.67</ele>
        <time>2014-08-05T09:51:23Z</time>
      </trkpt>
      <trkpt lat="46.73307" lon="5.69639">
        <ele>532.71</ele>
        <time>2014-08-05T09:51:36Z</time>
      </trkpt>
      <trkpt lat="46.73298" lon="5.69594">
        <ele>533.67</ele>
        <time>2014-08-05T09:51:43Z</time>
      </trkpt>
      <trkpt lat="46.73303" lon="5.69475">
        <ele>533.67</ele>
        <time>2014-08-05T09:51:59Z</time>
      </trkpt>
      <trkpt lat="46.73307" lon="5.69373">
        <ele>534.63</ele>
        <time>2014-08-05T09:52:14Z</time>
      </trkpt>
      <trkpt lat="46.73307" lon="5.69359">
        <ele>534.63</ele>
        <time>2014-08-05T09:52:16Z</time>
      </trkpt>
      <trkpt lat="46.73307" lon="5.69329">
        <ele>535.11</ele>
        <time>2014-08-05T09:52:21Z</time>
      </trkpt>
      <trkpt lat="46.7331" lon="5.69292">
        <ele>536.07</ele>
        <time>2014-08-05T09:52:27Z</time>
      </trkpt>
      <trkpt lat="46.73312" lon="5.69221">
        <ele>537.99</ele>
        <time>2014-08-05T09:52:39Z</time>
      </trkpt>
      <trkpt lat="46.73309" lon="5.69152">
        <ele>538.48</ele>
        <time>2014-08-05T09:52:50Z</time>
      </trkpt>
      <trkpt lat="46.73277" lon="5.69027">
        <ele>535.59</ele>
        <time>2014-08-05T09:53:06Z</time>
      </trkpt>
      <trkpt lat="46.7327" lon="5.68995">
        <ele>534.15</ele>
        <time>2014-08-05T09:53:09Z</time>
      </trkpt>
      <trkpt lat="46.73254" lon="5.68923">
        <ele>532.23</ele>
        <time>2014-08-05T09:53:16Z</time>
      </trkpt>
      <trkpt lat="46.73262" lon="5.6881">
        <ele>528.86</ele>
        <time>2014-08-05T09:53:27Z</time>
      </trkpt>
      <trkpt lat="46.73266" lon="5.68773">
        <ele>527.42</ele>
        <time>2014-08-05T09:53:30Z</time>
      </trkpt>
      <trkpt lat="46.73268" lon="5.68748">
        <ele>526.94</ele>
        <time>2014-08-05T09:53:32Z</time>
      </trkpt>
      <trkpt lat="46.73253" lon="5.68674">
        <ele>527.9</ele>
        <time>2014-08-05T09:53:39Z</time>
      </trkpt>
      <trkpt lat="46.7318" lon="5.68568">
        <ele>526.94</ele>
        <time>2014-08-05T09:53:53Z</time>
      </trkpt>
      <trkpt lat="46.73128" lon="5.68506">
        <ele>529.82</ele>
        <time>2014-08-05T09:54:06Z</time>
      </trkpt>
      <trkpt lat="46.73124" lon="5.68501">
        <ele>529.82</ele>
        <time>2014-08-05T09:54:07Z</time>
      </trkpt>
      <trkpt lat="46.73073" lon="5.68405">
        <ele>530.3</ele>
        <time>2014-08-05T09:54:25Z</time>
      </trkpt>
      <trkpt lat="46.73022" lon="5.68296">
        <ele>528.38</ele>
        <time>2014-08-05T09:54:41Z</time>
      </trkpt>
      <trkpt lat="46.73006" lon="5.68271">
        <ele>528.38</ele>
        <time>2014-08-05T09:54:45Z</time>
      </trkpt>
      <trkpt lat="46.72983" lon="5.68247">
        <ele>527.42</ele>
        <time>2014-08-05T09:54:50Z</time>
      </trkpt>
      <trkpt lat="46.729" lon="5.68212">
        <ele>524.54</ele>
        <time>2014-08-05T09:55:04Z</time>
      </trkpt>
      <trkpt lat="46.72869" lon="5.68184">
        <ele>523.58</ele>
        <time>2014-08-05T09:55:10Z</time>
      </trkpt>
      <trkpt lat="46.72796" lon="5.68119">
        <ele>520.69</ele>
        <time>2014-08-05T09:55:24Z</time>
      </trkpt>
      <trkpt lat="46.72742" lon="5.68096">
        <ele>521.17</ele>
        <time>2014-08-05T09:55:34Z</time>
      </trkpt>
      <trkpt lat="46.72717" lon="5.68084">
        <ele>522.13</ele>
        <time>2014-08-05T09:55:40Z</time>
      </trkpt>
      <trkpt lat="46.72697" lon="5.68062">
        <ele>521.17</ele>
        <time>2014-08-05T09:55:45Z</time>
      </trkpt>
      <trkpt lat="46.72654" lon="5.67981">
        <ele>517.81</ele>
        <time>2014-08-05T09:55:55Z</time>
      </trkpt>
      <trkpt lat="46.72647" lon="5.6796">
        <ele>516.85</ele>
        <time>2014-08-05T09:55:57Z</time>
      </trkpt>
      <trkpt lat="46.72633" lon="5.67911">
        <ele>515.88</ele>
        <time>2014-08-05T09:56:02Z</time>
      </trkpt>
      <trkpt lat="46.72616" lon="5.67807">
        <ele>518.29</ele>
        <time>2014-08-05T09:56:16Z</time>
      </trkpt>
      <trkpt lat="46.72592" lon="5.67722">
        <ele>519.73</ele>
        <time>2014-08-05T09:56:30Z</time>
      </trkpt>
      <trkpt lat="46.72554" lon="5.67624">
        <ele>519.73</ele>
        <time>2014-08-05T09:56:44Z</time>
      </trkpt>
      <trkpt lat="46.72544" lon="5.67597">
        <ele>519.73</ele>
        <time>2014-08-05T09:56:48Z</time>
      </trkpt>
      <trkpt lat="46.72534" lon="5.67573">
        <ele>520.69</ele>
        <time>2014-08-05T09:56:52Z</time>
      </trkpt>
      <trkpt lat="46.7253" lon="5.67562">
        <ele>521.17</ele>
        <time>2014-08-05T09:56:54Z</time>
      </trkpt>
      <trkpt lat="46.72516" lon="5.67523">
        <ele>521.65</ele>
        <time>2014-08-05T09:57:01Z</time>
      </trkpt>
      <trkpt lat="46.72511" lon="5.67513">
        <ele>522.13</ele>
        <time>2014-08-05T09:57:03Z</time>
      </trkpt>
      <trkpt lat="46.72473" lon="5.67454">
        <ele>524.54</ele>
        <time>2014-08-05T09:57:17Z</time>
      </trkpt>
      <trkpt lat="46.72414" lon="5.67404">
        <ele>522.61</ele>
        <time>2014-08-05T09:57:30Z</time>
      </trkpt>
      <trkpt lat="46.72409" lon="5.67399">
        <ele>522.13</ele>
        <time>2014-08-05T09:57:31Z</time>
      </trkpt>
      <trkpt lat="46.72336" lon="5.67337">
        <ele>522.61</ele>
        <time>2014-08-05T09:57:47Z</time>
      </trkpt>
      <trkpt lat="46.72327" lon="5.67329">
        <ele>522.61</ele>
        <time>2014-08-05T09:57:49Z</time>
      </trkpt>
      <trkpt lat="46.72273" lon="5.67261">
        <ele>520.69</ele>
        <time>2014-08-05T09:58:02Z</time>
      </trkpt>
      <trkpt lat="46.7227" lon="5.67258">
        <ele>520.69</ele>
        <time>2014-08-05T09:58:11Z</time>
      </trkpt>
      <trkpt lat="46.7227" lon="5.67258">
        <ele>520.21</ele>
        <time>2014-08-05T09:58:40Z</time>
      </trkpt>
      <trkpt lat="46.7227" lon="5.67258">
        <ele>520.21</ele>
        <time>2014-08-05T09:59:08Z</time>
      </trkpt>
      <trkpt lat="46.7227" lon="5.67258">
        <ele>521.17</ele>
        <time>2014-08-05T09:59:16Z</time>
      </trkpt>
      <trkpt lat="46.72267" lon="5.67242">
        <ele>520.69</ele>
        <time>2014-08-05T09:59:23Z</time>
      </trkpt>
      <trkpt lat="46.72264" lon="5.67226">
        <ele>519.73</ele>
        <time>2014-08-05T09:59:26Z</time>
      </trkpt>
      <trkpt lat="46.72258" lon="5.67154">
        <ele>515.88</ele>
        <time>2014-08-05T09:59:34Z</time>
      </trkpt>
      <trkpt lat="46.72256" lon="5.67109">
        <ele>514.44</ele>
        <time>2014-08-05T09:59:38Z</time>
      </trkpt>
      <trkpt lat="46.72261" lon="5.67072">
        <ele>514.44</ele>
        <time>2014-08-05T09:59:42Z</time>
      </trkpt>
      <trkpt lat="46.72271" lon="5.67038">
        <ele>514.92</ele>
        <time>2014-08-05T09:59:47Z</time>
      </trkpt>
      <trkpt lat="46.72295" lon="5.66964">
        <ele>516.37</ele>
        <time>2014-08-05T10:00:02Z</time>
      </trkpt>
      <trkpt lat="46.72294" lon="5.6694">
        <ele>514.92</ele>
        <time>2014-08-05T10:00:08Z</time>
      </trkpt>
      <trkpt lat="46.72294" lon="5.66911">
        <ele>513.96</ele>
        <time>2014-08-05T10:00:12Z</time>
      </trkpt>
      <trkpt lat="46.72291" lon="5.66786">
        <ele>510.6</ele>
        <time>2014-08-05T10:00:24Z</time>
      </trkpt>
      <trkpt lat="46.72288" lon="5.66729">
        <ele>512.52</ele>
        <time>2014-08-05T10:00:31Z</time>
      </trkpt>
      <trkpt lat="46.72287" lon="5.66602">
        <ele>508.67</ele>
        <time>2014-08-05T10:00:44Z</time>
      </trkpt>
      <trkpt lat="46.72273" lon="5.66545">
        <ele>506.75</ele>
        <time>2014-08-05T10:00:49Z</time>
      </trkpt>
      <trkpt lat="46.72265" lon="5.66494">
        <ele>508.19</ele>
        <time>2014-08-05T10:00:55Z</time>
      </trkpt>
      <trkpt lat="46.72257" lon="5.66469">
        <ele>508.67</ele>
        <time>2014-08-05T10:00:59Z</time>
      </trkpt>
      <trkpt lat="46.72235" lon="5.66429">
        <ele>510.6</ele>
        <time>2014-08-05T10:01:07Z</time>
      </trkpt>
      <trkpt lat="46.72217" lon="5.66369">
        <ele>511.08</ele>
        <time>2014-08-05T10:01:17Z</time>
      </trkpt>
      <trkpt lat="46.72212" lon="5.66295">
        <ele>509.64</ele>
        <time>2014-08-05T10:01:26Z</time>
      </trkpt>
      <trkpt lat="46.722" lon="5.66262">
        <ele>509.16</ele>
        <time>2014-08-05T10:01:30Z</time>
      </trkpt>
      <trkpt lat="46.72161" lon="5.66193">
        <ele>509.16</ele>
        <time>2014-08-05T10:01:40Z</time>
      </trkpt>
      <trkpt lat="46.72142" lon="5.66136">
        <ele>511.08</ele>
        <time>2014-08-05T10:01:50Z</time>
      </trkpt>
      <trkpt lat="46.72136" lon="5.66114">
        <ele>511.56</ele>
        <time>2014-08-05T10:01:54Z</time>
      </trkpt>
      <trkpt lat="46.72132" lon="5.66097">
        <ele>511.08</ele>
        <time>2014-08-05T10:01:57Z</time>
      </trkpt>
      <trkpt lat="46.72129" lon="5.66084">
        <ele>511.08</ele>
        <time>2014-08-05T10:01:59Z</time>
      </trkpt>
      <trkpt lat="46.72119" lon="5.66059">
        <ele>510.6</ele>
        <time>2014-08-05T10:02:03Z</time>
      </trkpt>
      <trkpt lat="46.72089" lon="5.65971">
        <ele>513</ele>
        <time>2014-08-05T10:02:18Z</time>
      </trkpt>
      <trkpt lat="46.72037" lon="5.65888">
        <ele>512.04</ele>
        <time>2014-08-05T10:02:34Z</time>
      </trkpt>
      <trkpt lat="46.72034" lon="5.65881">
        <ele>512.04</ele>
        <time>2014-08-05T10:02:35Z</time>
      </trkpt>
      <trkpt lat="46.72025" lon="5.65832">
        <ele>510.12</ele>
        <time>2014-08-05T10:02:40Z</time>
      </trkpt>
      <trkpt lat="46.72025" lon="5.65677">
        <ele>506.75</ele>
        <time>2014-08-05T10:02:55Z</time>
      </trkpt>
      <trkpt lat="46.72027" lon="5.65642">
        <ele>506.27</ele>
        <time>2014-08-05T10:02:58Z</time>
      </trkpt>
      <trkpt lat="46.72011" lon="5.65567">
        <ele>504.83</ele>
        <time>2014-08-05T10:03:05Z</time>
      </trkpt>
      <trkpt lat="46.71932" lon="5.65443">
        <ele>503.39</ele>
        <time>2014-08-05T10:03:21Z</time>
      </trkpt>
      <trkpt lat="46.71881" lon="5.65367">
        <ele>503.87</ele>
        <time>2014-08-05T10:03:32Z</time>
      </trkpt>
      <trkpt lat="46.71863" lon="5.65344">
        <ele>504.83</ele>
        <time>2014-08-05T10:03:36Z</time>
      </trkpt>
      <trkpt lat="46.71802" lon="5.65312">
        <ele>504.83</ele>
        <time>2014-08-05T10:03:47Z</time>
      </trkpt>
      <trkpt lat="46.71775" lon="5.65254">
        <ele>503.87</ele>
        <time>2014-08-05T10:03:55Z</time>
      </trkpt>
      <trkpt lat="46.71775" lon="5.65245">
        <ele>503.39</ele>
        <time>2014-08-05T10:03:56Z</time>
      </trkpt>
      <trkpt lat="46.71774" lon="5.65226">
        <ele>503.87</ele>
        <time>2014-08-05T10:03:58Z</time>
      </trkpt>
      <trkpt lat="46.71774" lon="5.65105">
        <ele>501.46</ele>
        <time>2014-08-05T10:04:10Z</time>
      </trkpt>
      <trkpt lat="46.71756" lon="5.65065">
        <ele>500.98</ele>
        <time>2014-08-05T10:04:15Z</time>
      </trkpt>
      <trkpt lat="46.71741" lon="5.65047">
        <ele>501.46</ele>
        <time>2014-08-05T10:04:18Z</time>
      </trkpt>
      <trkpt lat="46.71724" lon="5.65013">
        <ele>501.46</ele>
        <time>2014-08-05T10:04:23Z</time>
      </trkpt>
      <trkpt lat="46.7172" lon="5.64999">
        <ele>501.95</ele>
        <time>2014-08-05T10:04:25Z</time>
      </trkpt>
      <trkpt lat="46.71706" lon="5.64936">
        <ele>502.43</ele>
        <time>2014-08-05T10:04:34Z</time>
      </trkpt>
      <trkpt lat="46.71703" lon="5.64905">
        <ele>501.46</ele>
        <time>2014-08-05T10:04:38Z</time>
      </trkpt>
      <trkpt lat="46.71714" lon="5.64844">
        <ele>500.5</ele>
        <time>2014-08-05T10:04:45Z</time>
      </trkpt>
      <trkpt lat="46.71702" lon="5.64789">
        <ele>500.02</ele>
        <time>2014-08-05T10:04:52Z</time>
      </trkpt>
      <trkpt lat="46.71636" lon="5.64738">
        <ele>500.5</ele>
        <time>2014-08-05T10:05:05Z</time>
      </trkpt>
      <trkpt lat="46.71626" lon="5.64712">
        <ele>500.98</ele>
        <time>2014-08-05T10:05:10Z</time>
      </trkpt>
      <trkpt lat="46.71637" lon="5.64597">
        <ele>498.1</ele>
        <time>2014-08-05T10:05:24Z</time>
      </trkpt>
      <trkpt lat="46.71639" lon="5.6458">
        <ele>498.58</ele>
        <time>2014-08-05T10:05:26Z</time>
      </trkpt>
      <trkpt lat="46.71638" lon="5.6454">
        <ele>498.1</ele>
        <time>2014-08-05T10:05:31Z</time>
      </trkpt>
      <trkpt lat="46.71629" lon="5.64514">
        <ele>498.1</ele>
        <time>2014-08-05T10:05:35Z</time>
      </trkpt>
      <trkpt lat="46.7157" lon="5.64443">
        <ele>499.54</ele>
        <time>2014-08-05T10:05:51Z</time>
      </trkpt>
      <trkpt lat="46.71563" lon="5.64435">
        <ele>499.54</ele>
        <time>2014-08-05T10:05:53Z</time>
      </trkpt>
      <trkpt lat="46.71555" lon="5.64427">
        <ele>500.02</ele>
        <time>2014-08-05T10:05:55Z</time>
      </trkpt>
      <trkpt lat="46.71541" lon="5.64413">
        <ele>500.02</ele>
        <time>2014-08-05T10:05:59Z</time>
      </trkpt>
      <trkpt lat="46.71483" lon="5.64397">
        <ele>501.95</ele>
        <time>2014-08-05T10:06:14Z</time>
      </trkpt>
      <trkpt lat="46.71439" lon="5.64405">
        <ele>503.87</ele>
        <time>2014-08-05T10:06:28Z</time>
      </trkpt>
      <trkpt lat="46.71417" lon="5.64417">
        <ele>503.87</ele>
        <time>2014-08-05T10:06:34Z</time>
      </trkpt>
      <trkpt lat="46.71402" lon="5.64427">
        <ele>503.39</ele>
        <time>2014-08-05T10:06:38Z</time>
      </trkpt>
      <trkpt lat="46.71369" lon="5.64443">
        <ele>502.91</ele>
        <time>2014-08-05T10:06:47Z</time>
      </trkpt>
      <trkpt lat="46.7137" lon="5.64452">
        <ele>502.43</ele>
        <time>2014-08-05T10:06:55Z</time>
      </trkpt>
      <trkpt lat="46.71371" lon="5.64451">
        <ele>502.43</ele>
        <time>2014-08-05T10:06:58Z</time>
      </trkpt>
      <trkpt lat="46.71372" lon="5.6445">
        <ele>502.43</ele>
        <time>2014-08-05T10:07:06Z</time>
      </trkpt>
      <trkpt lat="46.71374" lon="5.64441">
        <ele>500.98</ele>
        <time>2014-08-05T10:59:36Z</time>
      </trkpt>
      <trkpt lat="46.71373" lon="5.64442">
        <ele>500.98</ele>
        <time>2014-08-05T10:59:37Z</time>
      </trkpt>
      <trkpt lat="46.71369" lon="5.64448">
        <ele>497.62</ele>
        <time>2014-08-05T10:59:54Z</time>
      </trkpt>
      <trkpt lat="46.71369" lon="5.64448">
        <ele>496.66</ele>
        <time>2014-08-05T10:59:56Z</time>
      </trkpt>
      <trkpt lat="46.7137" lon="5.64448">
        <ele>493.77</ele>
        <time>2014-08-05T11:00:07Z</time>
      </trkpt>
      <trkpt lat="46.71366" lon="5.64447">
        <ele>492.33</ele>
        <time>2014-08-05T11:00:19Z</time>
      </trkpt>
      <trkpt lat="46.71363" lon="5.64455">
        <ele>491.85</ele>
        <time>2014-08-05T11:00:23Z</time>
      </trkpt>
      <trkpt lat="46.71354" lon="5.645">
        <ele>490.89</ele>
        <time>2014-08-05T11:00:33Z</time>
      </trkpt>
      <trkpt lat="46.71331" lon="5.64503">
        <ele>490.41</ele>
        <time>2014-08-05T11:00:45Z</time>
      </trkpt>
      <trkpt lat="46.71306" lon="5.64499">
        <ele>489.93</ele>
        <time>2014-08-05T11:00:57Z</time>
      </trkpt>
      <trkpt lat="46.71305" lon="5.645">
        <ele>489.93</ele>
        <time>2014-08-05T11:01:18Z</time>
      </trkpt>
      <trkpt lat="46.71305" lon="5.645">
        <ele>489.93</ele>
        <time>2014-08-05T11:01:41Z</time>
      </trkpt>
      <trkpt lat="46.71305" lon="5.645">
        <ele>489.93</ele>
        <time>2014-08-05T11:02:09Z</time>
      </trkpt>
      <trkpt lat="46.71305" lon="5.645">
        <ele>490.41</ele>
        <time>2014-08-05T11:02:33Z</time>
      </trkpt>
      <trkpt lat="46.71305" lon="5.64498">
        <ele>490.41</ele>
        <time>2014-08-05T11:02:54Z</time>
      </trkpt>
      <trkpt lat="46.71307" lon="5.64496">
        <ele>490.41</ele>
        <time>2014-08-05T11:02:57Z</time>
      </trkpt>
      <trkpt lat="46.71318" lon="5.64496">
        <ele>490.41</ele>
        <time>2014-08-05T11:03:06Z</time>
      </trkpt>
      <trkpt lat="46.71323" lon="5.64499">
        <ele>490.41</ele>
        <time>2014-08-05T11:03:10Z</time>
      </trkpt>
      <trkpt lat="46.71341" lon="5.64502">
        <ele>491.37</ele>
        <time>2014-08-05T11:03:22Z</time>
      </trkpt>
      <trkpt lat="46.71358" lon="5.64499">
        <ele>491.37</ele>
        <time>2014-08-05T11:03:33Z</time>
      </trkpt>
      <trkpt lat="46.71364" lon="5.64505">
        <ele>491.37</ele>
        <time>2014-08-05T11:03:43Z</time>
      </trkpt>
      <trkpt lat="46.71364" lon="5.64505">
        <ele>491.37</ele>
        <time>2014-08-05T11:03:51Z</time>
      </trkpt>
      <trkpt lat="46.71363" lon="5.64531">
        <ele>490.41</ele>
        <time>2014-08-05T11:04:00Z</time>
      </trkpt>
      <trkpt lat="46.71364" lon="5.64533">
        <ele>489.93</ele>
        <time>2014-08-05T11:04:12Z</time>
      </trkpt>
      <trkpt lat="46.71363" lon="5.64563">
        <ele>489.93</ele>
        <time>2014-08-05T11:04:22Z</time>
      </trkpt>
      <trkpt lat="46.71362" lon="5.64571">
        <ele>489.93</ele>
        <time>2014-08-05T11:04:24Z</time>
      </trkpt>
      <trkpt lat="46.71351" lon="5.64622">
        <ele>491.37</ele>
        <time>2014-08-05T11:04:36Z</time>
      </trkpt>
      <trkpt lat="46.71337" lon="5.64657">
        <ele>492.33</ele>
        <time>2014-08-05T11:04:48Z</time>
      </trkpt>
      <trkpt lat="46.71326" lon="5.64682">
        <ele>493.77</ele>
        <time>2014-08-05T11:04:57Z</time>
      </trkpt>
      <trkpt lat="46.71322" lon="5.64696">
        <ele>494.26</ele>
        <time>2014-08-05T11:05:02Z</time>
      </trkpt>
      <trkpt lat="46.7131" lon="5.64735">
        <ele>496.66</ele>
        <time>2014-08-05T11:05:16Z</time>
      </trkpt>
      <trkpt lat="46.713" lon="5.64755">
        <ele>497.14</ele>
        <time>2014-08-05T11:05:24Z</time>
      </trkpt>
      <trkpt lat="46.71289" lon="5.64774">
        <ele>497.62</ele>
        <time>2014-08-05T11:05:32Z</time>
      </trkpt>
      <trkpt lat="46.71263" lon="5.64813">
        <ele>498.58</ele>
        <time>2014-08-05T11:05:48Z</time>
      </trkpt>
      <trkpt lat="46.71246" lon="5.64842">
        <ele>498.1</ele>
        <time>2014-08-05T11:05:59Z</time>
      </trkpt>
      <trkpt lat="46.71224" lon="5.64886">
        <ele>496.18</ele>
        <time>2014-08-05T11:06:07Z</time>
      </trkpt>
      <trkpt lat="46.71186" lon="5.6494">
        <ele>493.29</ele>
        <time>2014-08-05T11:06:15Z</time>
      </trkpt>
      <trkpt lat="46.7114" lon="5.64989">
        <ele>491.85</ele>
        <time>2014-08-05T11:06:23Z</time>
      </trkpt>
      <trkpt lat="46.71084" lon="5.65064">
        <ele>491.37</ele>
        <time>2014-08-05T11:06:36Z</time>
      </trkpt>
      <trkpt lat="46.71042" lon="5.65145">
        <ele>491.85</ele>
        <time>2014-08-05T11:06:51Z</time>
      </trkpt>
      <trkpt lat="46.71027" lon="5.65198">
        <ele>493.77</ele>
        <time>2014-08-05T11:07:03Z</time>
      </trkpt>
      <trkpt lat="46.71015" lon="5.65263">
        <ele>495.7</ele>
        <time>2014-08-05T11:07:17Z</time>
      </trkpt>
      <trkpt lat="46.71003" lon="5.65328">
        <ele>495.7</ele>
        <time>2014-08-05T11:07:32Z</time>
      </trkpt>
      <trkpt lat="46.70997" lon="5.65373">
        <ele>496.18</ele>
        <time>2014-08-05T11:07:40Z</time>
      </trkpt>
      <trkpt lat="46.70987" lon="5.65405">
        <ele>495.7</ele>
        <time>2014-08-05T11:07:51Z</time>
      </trkpt>
      <trkpt lat="46.70987" lon="5.65405">
        <ele>493.77</ele>
        <time>2014-08-05T11:07:54Z</time>
      </trkpt>
      <trkpt lat="46.70989" lon="5.65411">
        <ele>495.7</ele>
        <time>2014-08-05T11:11:57Z</time>
      </trkpt>
      <trkpt lat="46.7099" lon="5.65411">
        <ele>495.7</ele>
        <time>2014-08-05T11:11:58Z</time>
      </trkpt>
      <trkpt lat="46.7099" lon="5.65412">
        <ele>499.06</ele>
        <time>2014-08-05T11:12:15Z</time>
      </trkpt>
      <trkpt lat="46.70989" lon="5.65411">
        <ele>501.46</ele>
        <time>2014-08-05T11:12:44Z</time>
      </trkpt>
      <trkpt lat="46.7099" lon="5.6541">
        <ele>501.95</ele>
        <time>2014-08-05T11:12:48Z</time>
      </trkpt>
      <trkpt lat="46.70987" lon="5.65436">
        <ele>502.43</ele>
        <time>2014-08-05T11:12:57Z</time>
      </trkpt>
      <trkpt lat="46.7098" lon="5.65509">
        <ele>501.95</ele>
        <time>2014-08-05T11:13:12Z</time>
      </trkpt>
      <trkpt lat="46.70977" lon="5.6561">
        <ele>501.95</ele>
        <time>2014-08-05T11:13:30Z</time>
      </trkpt>
      <trkpt lat="46.70962" lon="5.65686">
        <ele>503.39</ele>
        <time>2014-08-05T11:13:45Z</time>
      </trkpt>
      <trkpt lat="46.70951" lon="5.65731">
        <ele>504.83</ele>
        <time>2014-08-05T11:13:57Z</time>
      </trkpt>
      <trkpt lat="46.70927" lon="5.65782">
        <ele>505.79</ele>
        <time>2014-08-05T11:14:10Z</time>
      </trkpt>
      <trkpt lat="46.70898" lon="5.65832">
        <ele>506.75</ele>
        <time>2014-08-05T11:14:24Z</time>
      </trkpt>
      <trkpt lat="46.70864" lon="5.6588">
        <ele>506.75</ele>
        <time>2014-08-05T11:14:38Z</time>
      </trkpt>
      <trkpt lat="46.70822" lon="5.65913">
        <ele>506.75</ele>
        <time>2014-08-05T11:14:50Z</time>
      </trkpt>
      <trkpt lat="46.70753" lon="5.65953">
        <ele>506.27</ele>
        <time>2014-08-05T11:15:04Z</time>
      </trkpt>
      <trkpt lat="46.70659" lon="5.66003">
        <ele>503.87</ele>
        <time>2014-08-05T11:15:20Z</time>
      </trkpt>
      <trkpt lat="46.70624" lon="5.6598">
        <ele>501.95</ele>
        <time>2014-08-05T11:15:27Z</time>
      </trkpt>
      <trkpt lat="46.70626" lon="5.65963">
        <ele>501.46</ele>
        <time>2014-08-05T11:15:29Z</time>
      </trkpt>
      <trkpt lat="46.70633" lon="5.65946">
        <ele>500.02</ele>
        <time>2014-08-05T11:15:33Z</time>
      </trkpt>
      <trkpt lat="46.7064" lon="5.65932">
        <ele>500.02</ele>
        <time>2014-08-05T11:15:47Z</time>
      </trkpt>
      <trkpt lat="46.70645" lon="5.65923">
        <ele>500.02</ele>
        <time>2014-08-05T11:15:51Z</time>
      </trkpt>
      <trkpt lat="46.70663" lon="5.65901">
        <ele>498.1</ele>
        <time>2014-08-05T11:15:56Z</time>
      </trkpt>
      <trkpt lat="46.707" lon="5.65894">
        <ele>494.74</ele>
        <time>2014-08-05T11:16:01Z</time>
      </trkpt>
      <trkpt lat="46.70742" lon="5.659">
        <ele>490.89</ele>
        <time>2014-08-05T11:16:06Z</time>
      </trkpt>
      <trkpt lat="46.70771" lon="5.65897">
        <ele>488.49</ele>
        <time>2014-08-05T11:16:09Z</time>
      </trkpt>
      <trkpt lat="46.70831" lon="5.65862">
        <ele>484.16</ele>
        <time>2014-08-05T11:16:15Z</time>
      </trkpt>
      <trkpt lat="46.70857" lon="5.6583">
        <ele>480.8</ele>
        <time>2014-08-05T11:16:18Z</time>
      </trkpt>
      <trkpt lat="46.70864" lon="5.65819">
        <ele>479.84</ele>
        <time>2014-08-05T11:16:19Z</time>
      </trkpt>
      <trkpt lat="46.70897" lon="5.65745">
        <ele>474.55</ele>
        <time>2014-08-05T11:16:24Z</time>
      </trkpt>
      <trkpt lat="46.70903" lon="5.65729">
        <ele>473.59</ele>
        <time>2014-08-05T11:16:25Z</time>
      </trkpt>
      <trkpt lat="46.70919" lon="5.65662">
        <ele>468.78</ele>
        <time>2014-08-05T11:16:29Z</time>
      </trkpt>
      <trkpt lat="46.70925" lon="5.65612">
        <ele>466.38</ele>
        <time>2014-08-05T11:16:32Z</time>
      </trkpt>
      <trkpt lat="46.70916" lon="5.65541">
        <ele>461.57</ele>
        <time>2014-08-05T11:16:36Z</time>
      </trkpt>
      <trkpt lat="46.70897" lon="5.65476">
        <ele>457.24</ele>
        <time>2014-08-05T11:16:40Z</time>
      </trkpt>
      <trkpt lat="46.7089" lon="5.65444">
        <ele>454.84</ele>
        <time>2014-08-05T11:16:42Z</time>
      </trkpt>
      <trkpt lat="46.7088" lon="5.65355">
        <ele>449.07</ele>
        <time>2014-08-05T11:16:47Z</time>
      </trkpt>
      <trkpt lat="46.70869" lon="5.65302">
        <ele>444.75</ele>
        <time>2014-08-05T11:16:50Z</time>
      </trkpt>
      <trkpt lat="46.70858" lon="5.65253">
        <ele>441.86</ele>
        <time>2014-08-05T11:16:53Z</time>
      </trkpt>
      <trkpt lat="46.70856" lon="5.65214">
        <ele>438.98</ele>
        <time>2014-08-05T11:16:55Z</time>
      </trkpt>
      <trkpt lat="46.70859" lon="5.65171">
        <ele>436.1</ele>
        <time>2014-08-05T11:16:58Z</time>
      </trkpt>
      <trkpt lat="46.70859" lon="5.65147">
        <ele>435.13</ele>
        <time>2014-08-05T11:17:00Z</time>
      </trkpt>
      <trkpt lat="46.70893" lon="5.6509">
        <ele>430.33</ele>
        <time>2014-08-05T11:17:05Z</time>
      </trkpt>
      <trkpt lat="46.70902" lon="5.6508">
        <ele>429.37</ele>
        <time>2014-08-05T11:17:06Z</time>
      </trkpt>
      <trkpt lat="46.7094" lon="5.65044">
        <ele>425.52</ele>
        <time>2014-08-05T11:17:10Z</time>
      </trkpt>
      <trkpt lat="46.70977" lon="5.65">
        <ele>422.16</ele>
        <time>2014-08-05T11:17:14Z</time>
      </trkpt>
      <trkpt lat="46.71006" lon="5.64962">
        <ele>418.79</ele>
        <time>2014-08-05T11:17:17Z</time>
      </trkpt>
      <trkpt lat="46.71014" lon="5.64948">
        <ele>418.31</ele>
        <time>2014-08-05T11:17:18Z</time>
      </trkpt>
      <trkpt lat="46.71047" lon="5.64885">
        <ele>413.98</ele>
        <time>2014-08-05T11:17:22Z</time>
      </trkpt>
      <trkpt lat="46.71073" lon="5.6484">
        <ele>410.62</ele>
        <time>2014-08-05T11:17:25Z</time>
      </trkpt>
      <trkpt lat="46.711" lon="5.64796">
        <ele>406.77</ele>
        <time>2014-08-05T11:17:28Z</time>
      </trkpt>
      <trkpt lat="46.71117" lon="5.64765">
        <ele>404.37</ele>
        <time>2014-08-05T11:17:30Z</time>
      </trkpt>
      <trkpt lat="46.71131" lon="5.64732">
        <ele>401.49</ele>
        <time>2014-08-05T11:17:32Z</time>
      </trkpt>
      <trkpt lat="46.7115" lon="5.64681">
        <ele>397.64</ele>
        <time>2014-08-05T11:17:35Z</time>
      </trkpt>
      <trkpt lat="46.71155" lon="5.64664">
        <ele>396.2</ele>
        <time>2014-08-05T11:17:36Z</time>
      </trkpt>
      <trkpt lat="46.71168" lon="5.64619">
        <ele>392.84</ele>
        <time>2014-08-05T11:17:39Z</time>
      </trkpt>
      <trkpt lat="46.71191" lon="5.64564">
        <ele>388.99</ele>
        <time>2014-08-05T11:17:43Z</time>
      </trkpt>
      <trkpt lat="46.71208" lon="5.64523">
        <ele>386.11</ele>
        <time>2014-08-05T11:17:48Z</time>
      </trkpt>
      <trkpt lat="46.71211" lon="5.64521">
        <ele>385.63</ele>
        <time>2014-08-05T11:17:49Z</time>
      </trkpt>
      <trkpt lat="46.71217" lon="5.6453">
        <ele>384.66</ele>
        <time>2014-08-05T11:17:51Z</time>
      </trkpt>
      <trkpt lat="46.71204" lon="5.6457">
        <ele>383.22</ele>
        <time>2014-08-05T11:17:55Z</time>
      </trkpt>
      <trkpt lat="46.71186" lon="5.64612">
        <ele>379.86</ele>
        <time>2014-08-05T11:17:59Z</time>
      </trkpt>
      <trkpt lat="46.71157" lon="5.64656">
        <ele>376.01</ele>
        <time>2014-08-05T11:18:03Z</time>
      </trkpt>
      <trkpt lat="46.71116" lon="5.64698">
        <ele>373.13</ele>
        <time>2014-08-05T11:18:07Z</time>
      </trkpt>
      <trkpt lat="46.71078" lon="5.6474">
        <ele>369.76</ele>
        <time>2014-08-05T11:18:11Z</time>
      </trkpt>
      <trkpt lat="46.71039" lon="5.64779">
        <ele>366.4</ele>
        <time>2014-08-05T11:18:15Z</time>
      </trkpt>
      <trkpt lat="46.71018" lon="5.64798">
        <ele>364.96</ele>
        <time>2014-08-05T11:18:17Z</time>
      </trkpt>
      <trkpt lat="46.70974" lon="5.6482">
        <ele>361.11</ele>
        <time>2014-08-05T11:18:21Z</time>
      </trkpt>
      <trkpt lat="46.70964" lon="5.64825">
        <ele>359.19</ele>
        <time>2014-08-05T11:18:22Z</time>
      </trkpt>
      <trkpt lat="46.70953" lon="5.64825">
        <ele>358.71</ele>
        <time>2014-08-05T11:18:23Z</time>
      </trkpt>
      <trkpt lat="46.70896" lon="5.64853">
        <ele>353.9</ele>
        <time>2014-08-05T11:18:28Z</time>
      </trkpt>
      <trkpt lat="46.70887" lon="5.6486">
        <ele>352.94</ele>
        <time>2014-08-05T11:18:29Z</time>
      </trkpt>
      <trkpt lat="46.7087" lon="5.64873">
        <ele>351.5</ele>
        <time>2014-08-05T11:18:31Z</time>
      </trkpt>
      <trkpt lat="46.70857" lon="5.64882">
        <ele>350.06</ele>
        <time>2014-08-05T11:18:33Z</time>
      </trkpt>
      <trkpt lat="46.70845" lon="5.64905">
        <ele>348.13</ele>
        <time>2014-08-05T11:18:41Z</time>
      </trkpt>
      <trkpt lat="46.70844" lon="5.6491">
        <ele>348.13</ele>
        <time>2014-08-05T11:18:42Z</time>
      </trkpt>
      <trkpt lat="46.70821" lon="5.64937">
        <ele>344.29</ele>
        <time>2014-08-05T11:18:49Z</time>
      </trkpt>
      <trkpt lat="46.70808" lon="5.64905">
        <ele>340.92</ele>
        <time>2014-08-05T11:18:54Z</time>
      </trkpt>
      <trkpt lat="46.70808" lon="5.64892">
        <ele>339.96</ele>
        <time>2014-08-05T11:18:55Z</time>
      </trkpt>
      <trkpt lat="46.7081" lon="5.64874">
        <ele>338.52</ele>
        <time>2014-08-05T11:18:57Z</time>
      </trkpt>
      <trkpt lat="46.70871" lon="5.64785">
        <ele>335.16</ele>
        <time>2014-08-05T11:19:05Z</time>
      </trkpt>
      <trkpt lat="46.7089" lon="5.6476">
        <ele>333.23</ele>
        <time>2014-08-05T11:19:08Z</time>
      </trkpt>
      <trkpt lat="46.70909" lon="5.64737">
        <ele>329.39</ele>
        <time>2014-08-05T11:19:11Z</time>
      </trkpt>
      <trkpt lat="46.70921" lon="5.64723">
        <ele>327.95</ele>
        <time>2014-08-05T11:19:13Z</time>
      </trkpt>
      <trkpt lat="46.70932" lon="5.64712">
        <ele>326.02</ele>
        <time>2014-08-05T11:19:15Z</time>
      </trkpt>
      <trkpt lat="46.7094" lon="5.64702">
        <ele>325.06</ele>
        <time>2014-08-05T11:19:18Z</time>
      </trkpt>
      <trkpt lat="46.70941" lon="5.64695">
        <ele>325.06</ele>
        <time>2014-08-05T11:19:20Z</time>
      </trkpt>
      <trkpt lat="46.70942" lon="5.64695">
        <ele>325.06</ele>
        <time>2014-08-05T11:19:30Z</time>
      </trkpt>
      <trkpt lat="46.70942" lon="5.64695">
        <ele>325.06</ele>
        <time>2014-08-05T11:19:51Z</time>
      </trkpt>
      <trkpt lat="46.70941" lon="5.64695">
        <ele>325.06</ele>
        <time>2014-08-05T11:20:12Z</time>
      </trkpt>
      <trkpt lat="46.70935" lon="5.64699">
        <ele>325.06</ele>
        <time>2014-08-05T11:20:19Z</time>
      </trkpt>
      <trkpt lat="46.709" lon="5.64721">
        <ele>324.58</ele>
        <time>2014-08-05T11:20:33Z</time>
      </trkpt>
      <trkpt lat="46.70895" lon="5.64724">
        <ele>324.58</ele>
        <time>2014-08-05T11:20:35Z</time>
      </trkpt>
      <trkpt lat="46.70864" lon="5.64737">
        <ele>323.62</ele>
        <time>2014-08-05T11:20:47Z</time>
      </trkpt>
      <trkpt lat="46.70855" lon="5.64733">
        <ele>323.14</ele>
        <time>2014-08-05T11:20:59Z</time>
      </trkpt>
      <trkpt lat="46.70855" lon="5.64733">
        <ele>322.66</ele>
        <time>2014-08-05T11:21:05Z</time>
      </trkpt>
      <trkpt lat="46.70854" lon="5.64735">
        <ele>323.14</ele>
        <time>2014-08-05T11:54:06Z</time>
      </trkpt>
      <trkpt lat="46.70856" lon="5.64735">
        <ele>323.14</ele>
        <time>2014-08-05T11:54:23Z</time>
      </trkpt>
      <trkpt lat="46.70854" lon="5.64738">
        <ele>322.66</ele>
        <time>2014-08-05T11:54:25Z</time>
      </trkpt>
      <trkpt lat="46.7084" lon="5.64745">
        <ele>322.18</ele>
        <time>2014-08-05T11:54:31Z</time>
      </trkpt>
      <trkpt lat="46.70809" lon="5.6476">
        <ele>320.26</ele>
        <time>2014-08-05T11:54:37Z</time>
      </trkpt>
      <trkpt lat="46.70783" lon="5.64762">
        <ele>317.85</ele>
        <time>2014-08-05T11:54:41Z</time>
      </trkpt>
      <trkpt lat="46.70777" lon="5.64756">
        <ele>317.85</ele>
        <time>2014-08-05T11:54:42Z</time>
      </trkpt>
      <trkpt lat="46.70773" lon="5.64747">
        <ele>317.37</ele>
        <time>2014-08-05T11:54:43Z</time>
      </trkpt>
      <trkpt lat="46.70773" lon="5.64727">
        <ele>316.41</ele>
        <time>2014-08-05T11:54:44Z</time>
      </trkpt>
      <trkpt lat="46.70772" lon="5.64707">
        <ele>315.93</ele>
        <time>2014-08-05T11:54:46Z</time>
      </trkpt>
      <trkpt lat="46.70771" lon="5.64698">
        <ele>314.97</ele>
        <time>2014-08-05T11:54:47Z</time>
      </trkpt>
      <trkpt lat="46.70768" lon="5.64682">
        <ele>314.97</ele>
        <time>2014-08-05T11:54:49Z</time>
      </trkpt>
      <trkpt lat="46.70766" lon="5.64664">
        <ele>314.49</ele>
        <time>2014-08-05T11:54:51Z</time>
      </trkpt>
      <trkpt lat="46.70762" lon="5.64641">
        <ele>314.97</ele>
        <time>2014-08-05T11:54:54Z</time>
      </trkpt>
      <trkpt lat="46.7076" lon="5.64636">
        <ele>314.97</ele>
        <time>2014-08-05T11:54:55Z</time>
      </trkpt>
      <trkpt lat="46.70755" lon="5.64632">
        <ele>314.97</ele>
        <time>2014-08-05T11:54:57Z</time>
      </trkpt>
      <trkpt lat="46.70732" lon="5.64643">
        <ele>316.41</ele>
        <time>2014-08-05T11:55:09Z</time>
      </trkpt>
      <trkpt lat="46.70717" lon="5.64656">
        <ele>316.89</ele>
        <time>2014-08-05T11:55:18Z</time>
      </trkpt>
      <trkpt lat="46.70714" lon="5.64659">
        <ele>317.37</ele>
        <time>2014-08-05T11:55:21Z</time>
      </trkpt>
      <trkpt lat="46.70713" lon="5.64661">
        <ele>317.37</ele>
        <time>2014-08-05T11:55:34Z</time>
      </trkpt>
      <trkpt lat="46.70713" lon="5.64661">
        <ele>317.37</ele>
        <time>2014-08-05T11:55:55Z</time>
      </trkpt>
      <trkpt lat="46.70714" lon="5.64661">
        <ele>317.37</ele>
        <time>2014-08-05T11:56:15Z</time>
      </trkpt>
      <trkpt lat="46.70715" lon="5.64659">
        <ele>317.37</ele>
        <time>2014-08-05T11:56:16Z</time>
      </trkpt>
      <trkpt lat="46.70716" lon="5.64656">
        <ele>317.37</ele>
        <time>2014-08-05T11:56:18Z</time>
      </trkpt>
      <trkpt lat="46.70751" lon="5.64635">
        <ele>315.93</ele>
        <time>2014-08-05T11:56:28Z</time>
      </trkpt>
      <trkpt lat="46.70754" lon="5.64635">
        <ele>315.45</ele>
        <time>2014-08-05T11:56:29Z</time>
      </trkpt>
      <trkpt lat="46.70756" lon="5.64637">
        <ele>315.45</ele>
        <time>2014-08-05T11:56:30Z</time>
      </trkpt>
      <trkpt lat="46.70758" lon="5.64646">
        <ele>314.49</ele>
        <time>2014-08-05T11:56:33Z</time>
      </trkpt>
      <trkpt lat="46.70758" lon="5.64652">
        <ele>314.01</ele>
        <time>2014-08-05T11:56:46Z</time>
      </trkpt>
      <trkpt lat="46.70705" lon="5.64639">
        <ele>314.49</ele>
        <time>2014-08-05T11:56:52Z</time>
      </trkpt>
      <trkpt lat="46.70736" lon="5.64644">
        <ele>316.89</ele>
        <time>2014-08-05T12:24:55Z</time>
      </trkpt>
      <trkpt lat="46.70716" lon="5.64663">
        <ele>317.37</ele>
        <time>2014-08-05T12:25:08Z</time>
      </trkpt>
      <trkpt lat="46.70715" lon="5.64664">
        <ele>317.85</ele>
        <time>2014-08-05T12:25:20Z</time>
      </trkpt>
      <trkpt lat="46.70717" lon="5.64664">
        <ele>317.85</ele>
        <time>2014-08-05T12:25:39Z</time>
      </trkpt>
      <trkpt lat="46.70717" lon="5.64667">
        <ele>317.85</ele>
        <time>2014-08-05T12:26:01Z</time>
      </trkpt>
      <trkpt lat="46.70714" lon="5.6467">
        <ele>317.85</ele>
        <time>2014-08-05T12:26:18Z</time>
      </trkpt>
      <trkpt lat="46.70713" lon="5.64669">
        <ele>317.85</ele>
        <time>2014-08-05T12:26:34Z</time>
      </trkpt>
      <trkpt lat="46.70713" lon="5.64669">
        <ele>317.85</ele>
        <time>2014-08-05T12:26:58Z</time>
      </trkpt>
      <trkpt lat="46.70709" lon="5.64666">
        <ele>317.85</ele>
        <time>2014-08-05T12:27:03Z</time>
      </trkpt>
      <trkpt lat="46.70679" lon="5.64673">
        <ele>318.81</ele>
        <time>2014-08-05T12:27:15Z</time>
      </trkpt>
      <trkpt lat="46.70639" lon="5.64669">
        <ele>318.81</ele>
        <time>2014-08-05T12:27:28Z</time>
      </trkpt>
      <trkpt lat="46.70634" lon="5.64669">
        <ele>318.33</ele>
        <time>2014-08-05T12:27:29Z</time>
      </trkpt>
      <trkpt lat="46.70592" lon="5.64665">
        <ele>319.78</ele>
        <time>2014-08-05T12:27:41Z</time>
      </trkpt>
      <trkpt lat="46.70555" lon="5.6467">
        <ele>321.22</ele>
        <time>2014-08-05T12:27:54Z</time>
      </trkpt>
      <trkpt lat="46.70514" lon="5.64679">
        <ele>322.66</ele>
        <time>2014-08-05T12:28:08Z</time>
      </trkpt>
      <trkpt lat="46.70485" lon="5.64663">
        <ele>325.54</ele>
        <time>2014-08-05T12:28:19Z</time>
      </trkpt>
      <trkpt lat="46.70461" lon="5.6465">
        <ele>326.5</ele>
        <time>2014-08-05T12:28:28Z</time>
      </trkpt>
      <trkpt lat="46.70422" lon="5.64629">
        <ele>325.54</ele>
        <time>2014-08-05T12:28:39Z</time>
      </trkpt>
      <trkpt lat="46.70373" lon="5.64583">
        <ele>325.54</ele>
        <time>2014-08-05T12:28:50Z</time>
      </trkpt>
      <trkpt lat="46.70321" lon="5.6456">
        <ele>325.54</ele>
        <time>2014-08-05T12:29:01Z</time>
      </trkpt>
      <trkpt lat="46.70301" lon="5.64548">
        <ele>326.02</ele>
        <time>2014-08-05T12:29:05Z</time>
      </trkpt>
      <trkpt lat="46.70212" lon="5.64514">
        <ele>324.58</ele>
        <time>2014-08-05T12:29:25Z</time>
      </trkpt>
      <trkpt lat="46.70159" lon="5.64489">
        <ele>325.54</ele>
        <time>2014-08-05T12:29:39Z</time>
      </trkpt>
      <trkpt lat="46.70121" lon="5.64455">
        <ele>326.5</ele>
        <time>2014-08-05T12:29:51Z</time>
      </trkpt>
      <trkpt lat="46.70099" lon="5.64431">
        <ele>325.06</ele>
        <time>2014-08-05T12:29:57Z</time>
      </trkpt>
      <trkpt lat="46.70092" lon="5.64421">
        <ele>324.1</ele>
        <time>2014-08-05T12:29:59Z</time>
      </trkpt>
      <trkpt lat="46.70058" lon="5.64381">
        <ele>322.66</ele>
        <time>2014-08-05T12:30:08Z</time>
      </trkpt>
      <trkpt lat="46.70006" lon="5.6434">
        <ele>322.18</ele>
        <time>2014-08-05T12:30:21Z</time>
      </trkpt>
      <trkpt lat="46.69938" lon="5.64301">
        <ele>322.66</ele>
        <time>2014-08-05T12:30:38Z</time>
      </trkpt>
      <trkpt lat="46.69909" lon="5.64284">
        <ele>322.66</ele>
        <time>2014-08-05T12:30:45Z</time>
      </trkpt>
      <trkpt lat="46.69878" lon="5.64278">
        <ele>323.14</ele>
        <time>2014-08-05T12:30:52Z</time>
      </trkpt>
      <trkpt lat="46.698" lon="5.64257">
        <ele>324.1</ele>
        <time>2014-08-05T12:31:10Z</time>
      </trkpt>
      <trkpt lat="46.69765" lon="5.64259">
        <ele>324.58</ele>
        <time>2014-08-05T12:31:18Z</time>
      </trkpt>
      <trkpt lat="46.69747" lon="5.64261">
        <ele>324.58</ele>
        <time>2014-08-05T12:31:22Z</time>
      </trkpt>
      <trkpt lat="46.69714" lon="5.64269">
        <ele>324.58</ele>
        <time>2014-08-05T12:31:29Z</time>
      </trkpt>
      <trkpt lat="46.69662" lon="5.64264">
        <ele>326.5</ele>
        <time>2014-08-05T12:31:42Z</time>
      </trkpt>
      <trkpt lat="46.69629" lon="5.64261">
        <ele>327.95</ele>
        <time>2014-08-05T12:31:52Z</time>
      </trkpt>
      <trkpt lat="46.69602" lon="5.64246">
        <ele>330.35</ele>
        <time>2014-08-05T12:32:03Z</time>
      </trkpt>
      <trkpt lat="46.69565" lon="5.64228">
        <ele>332.75</ele>
        <time>2014-08-05T12:32:20Z</time>
      </trkpt>
      <trkpt lat="46.69553" lon="5.64221">
        <ele>333.71</ele>
        <time>2014-08-05T12:32:25Z</time>
      </trkpt>
      <trkpt lat="46.69546" lon="5.64218">
        <ele>334.2</ele>
        <time>2014-08-05T12:32:29Z</time>
      </trkpt>
      <trkpt lat="46.69543" lon="5.64215">
        <ele>334.2</ele>
        <time>2014-08-05T12:32:31Z</time>
      </trkpt>
      <trkpt lat="46.69534" lon="5.64206">
        <ele>335.64</ele>
        <time>2014-08-05T12:32:36Z</time>
      </trkpt>
      <trkpt lat="46.6951" lon="5.64182">
        <ele>338.04</ele>
        <time>2014-08-05T12:32:51Z</time>
      </trkpt>
      <trkpt lat="46.69488" lon="5.64166">
        <ele>340.92</ele>
        <time>2014-08-05T12:33:05Z</time>
      </trkpt>
      <trkpt lat="46.69464" lon="5.6414">
        <ele>343.81</ele>
        <time>2014-08-05T12:33:21Z</time>
      </trkpt>
      <trkpt lat="46.69437" lon="5.64124">
        <ele>346.69</ele>
        <time>2014-08-05T12:33:36Z</time>
      </trkpt>
      <trkpt lat="46.69436" lon="5.64122">
        <ele>346.69</ele>
        <time>2014-08-05T12:33:37Z</time>
      </trkpt>
      <trkpt lat="46.69429" lon="5.64121">
        <ele>347.17</ele>
        <time>2014-08-05T12:33:41Z</time>
      </trkpt>
      <trkpt lat="46.69407" lon="5.64113">
        <ele>350.06</ele>
        <time>2014-08-05T12:33:54Z</time>
      </trkpt>
      <trkpt lat="46.69378" lon="5.641">
        <ele>351.5</ele>
        <time>2014-08-05T12:34:10Z</time>
      </trkpt>
      <trkpt lat="46.69354" lon="5.64094">
        <ele>352.94</ele>
        <time>2014-08-05T12:34:23Z</time>
      </trkpt>
      <trkpt lat="46.69329" lon="5.64078">
        <ele>354.86</ele>
        <time>2014-08-05T12:34:37Z</time>
      </trkpt>
      <trkpt lat="46.69317" lon="5.64074">
        <ele>356.31</ele>
        <time>2014-08-05T12:34:44Z</time>
      </trkpt>
      <trkpt lat="46.69293" lon="5.64063">
        <ele>357.75</ele>
        <time>2014-08-05T12:34:57Z</time>
      </trkpt>
      <trkpt lat="46.69281" lon="5.64057">
        <ele>359.19</ele>
        <time>2014-08-05T12:35:04Z</time>
      </trkpt>
      <trkpt lat="46.69252" lon="5.6405">
        <ele>362.07</ele>
        <time>2014-08-05T12:35:21Z</time>
      </trkpt>
      <trkpt lat="46.69245" lon="5.64042">
        <ele>363.04</ele>
        <time>2014-08-05T12:35:26Z</time>
      </trkpt>
      <trkpt lat="46.69237" lon="5.6404">
        <ele>364</ele>
        <time>2014-08-05T12:35:30Z</time>
      </trkpt>
      <trkpt lat="46.69231" lon="5.64038">
        <ele>364.48</ele>
        <time>2014-08-05T12:35:33Z</time>
      </trkpt>
      <trkpt lat="46.69202" lon="5.64029">
        <ele>366.88</ele>
        <time>2014-08-05T12:35:49Z</time>
      </trkpt>
      <trkpt lat="46.69189" lon="5.64031">
        <ele>367.84</ele>
        <time>2014-08-05T12:35:56Z</time>
      </trkpt>
      <trkpt lat="46.69162" lon="5.64024">
        <ele>369.76</ele>
        <time>2014-08-05T12:36:11Z</time>
      </trkpt>
      <trkpt lat="46.69132" lon="5.64017">
        <ele>372.65</ele>
        <time>2014-08-05T12:36:27Z</time>
      </trkpt>
      <trkpt lat="46.69128" lon="5.64016">
        <ele>372.65</ele>
        <time>2014-08-05T12:36:29Z</time>
      </trkpt>
      <trkpt lat="46.69111" lon="5.64009">
        <ele>373.61</ele>
        <time>2014-08-05T12:36:38Z</time>
      </trkpt>
      <trkpt lat="46.69097" lon="5.64003">
        <ele>374.09</ele>
        <time>2014-08-05T12:36:45Z</time>
      </trkpt>
      <trkpt lat="46.69094" lon="5.64001">
        <ele>374.09</ele>
        <time>2014-08-05T12:36:47Z</time>
      </trkpt>
      <trkpt lat="46.69073" lon="5.63986">
        <ele>376.01</ele>
        <time>2014-08-05T12:36:59Z</time>
      </trkpt>
      <trkpt lat="46.69058" lon="5.63976">
        <ele>376.97</ele>
        <time>2014-08-05T12:37:07Z</time>
      </trkpt>
      <trkpt lat="46.69028" lon="5.63985">
        <ele>378.42</ele>
        <time>2014-08-05T12:37:21Z</time>
      </trkpt>
      <trkpt lat="46.69021" lon="5.63985">
        <ele>378.9</ele>
        <time>2014-08-05T12:37:25Z</time>
      </trkpt>
      <trkpt lat="46.69019" lon="5.63968">
        <ele>378.9</ele>
        <time>2014-08-05T12:37:29Z</time>
      </trkpt>
      <trkpt lat="46.69016" lon="5.63944">
        <ele>379.38</ele>
        <time>2014-08-05T12:37:40Z</time>
      </trkpt>
      <trkpt lat="46.69016" lon="5.63944">
        <ele>378.9</ele>
        <time>2014-08-05T12:37:43Z</time>
      </trkpt>
      <trkpt lat="46.6904" lon="5.63922">
        <ele>379.86</ele>
        <time>2014-08-05T12:55:00Z</time>
      </trkpt>
      <trkpt lat="46.69045" lon="5.63914">
        <ele>379.86</ele>
        <time>2014-08-05T12:55:01Z</time>
      </trkpt>
      <trkpt lat="46.69041" lon="5.63912">
        <ele>379.86</ele>
        <time>2014-08-05T12:55:20Z</time>
      </trkpt>
      <trkpt lat="46.69051" lon="5.63892">
        <ele>380.34</ele>
        <time>2014-08-05T12:55:42Z</time>
      </trkpt>
      <trkpt lat="46.69055" lon="5.63884">
        <ele>380.34</ele>
        <time>2014-08-05T12:55:47Z</time>
      </trkpt>
      <trkpt lat="46.69042" lon="5.63877">
        <ele>380.82</ele>
        <time>2014-08-05T12:56:01Z</time>
      </trkpt>
      <trkpt lat="46.69042" lon="5.63875">
        <ele>380.82</ele>
        <time>2014-08-05T12:56:03Z</time>
      </trkpt>
      <trkpt lat="46.69041" lon="5.63873">
        <ele>380.82</ele>
        <time>2014-08-05T12:56:05Z</time>
      </trkpt>
      <trkpt lat="46.69032" lon="5.6387">
        <ele>381.78</ele>
        <time>2014-08-05T12:56:11Z</time>
      </trkpt>
      <trkpt lat="46.69027" lon="5.63862">
        <ele>381.78</ele>
        <time>2014-08-05T12:56:16Z</time>
      </trkpt>
      <trkpt lat="46.6901" lon="5.63842">
        <ele>383.7</ele>
        <time>2014-08-05T12:56:29Z</time>
      </trkpt>
      <trkpt lat="46.69004" lon="5.63834">
        <ele>384.18</ele>
        <time>2014-08-05T12:56:33Z</time>
      </trkpt>
      <trkpt lat="46.69002" lon="5.63826">
        <ele>384.66</ele>
        <time>2014-08-05T12:56:36Z</time>
      </trkpt>
      <trkpt lat="46.69001" lon="5.63825">
        <ele>384.66</ele>
        <time>2014-08-05T12:56:37Z</time>
      </trkpt>
      <trkpt lat="46.68999" lon="5.63821">
        <ele>385.15</ele>
        <time>2014-08-05T12:56:39Z</time>
      </trkpt>
      <trkpt lat="46.68996" lon="5.63817">
        <ele>385.63</ele>
        <time>2014-08-05T12:56:42Z</time>
      </trkpt>
      <trkpt lat="46.68977" lon="5.63788">
        <ele>387.55</ele>
        <time>2014-08-05T12:56:58Z</time>
      </trkpt>
      <trkpt lat="46.68975" lon="5.63782">
        <ele>388.03</ele>
        <time>2014-08-05T12:57:00Z</time>
      </trkpt>
      <trkpt lat="46.68969" lon="5.63781">
        <ele>389.47</ele>
        <time>2014-08-05T12:57:07Z</time>
      </trkpt>
      <trkpt lat="46.68964" lon="5.63781">
        <ele>390.43</ele>
        <time>2014-08-05T12:57:11Z</time>
      </trkpt>
      <trkpt lat="46.68958" lon="5.63786">
        <ele>392.36</ele>
        <time>2014-08-05T12:57:16Z</time>
      </trkpt>
      <trkpt lat="46.68955" lon="5.63791">
        <ele>393.32</ele>
        <time>2014-08-05T12:57:20Z</time>
      </trkpt>
      <trkpt lat="46.6895" lon="5.63796">
        <ele>394.28</ele>
        <time>2014-08-05T12:57:25Z</time>
      </trkpt>
      <trkpt lat="46.68944" lon="5.63804">
        <ele>396.2</ele>
        <time>2014-08-05T12:57:31Z</time>
      </trkpt>
      <trkpt lat="46.68941" lon="5.63809">
        <ele>396.68</ele>
        <time>2014-08-05T12:57:33Z</time>
      </trkpt>
      <trkpt lat="46.68935" lon="5.6382">
        <ele>400.05</ele>
        <time>2014-08-05T12:57:39Z</time>
      </trkpt>
      <trkpt lat="46.6893" lon="5.63822">
        <ele>401.49</ele>
        <time>2014-08-05T12:57:43Z</time>
      </trkpt>
      <trkpt lat="46.6892" lon="5.63859">
        <ele>400.05</ele>
        <time>2014-08-05T12:58:02Z</time>
      </trkpt>
      <trkpt lat="46.68925" lon="5.6385">
        <ele>406.29</ele>
        <time>2014-08-05T12:58:10Z</time>
      </trkpt>
      <trkpt lat="46.68926" lon="5.6385">
        <ele>414.95</ele>
        <time>2014-08-05T12:58:11Z</time>
      </trkpt>
      <trkpt lat="46.68926" lon="5.63849">
        <ele>422.64</ele>
        <time>2014-08-05T12:58:12Z</time>
      </trkpt>
      <trkpt lat="46.68927" lon="5.63848">
        <ele>430.33</ele>
        <time>2014-08-05T12:58:13Z</time>
      </trkpt>
      <trkpt lat="46.68925" lon="5.63852">
        <ele>438.02</ele>
        <time>2014-08-05T12:58:16Z</time>
      </trkpt>
      <trkpt lat="46.68925" lon="5.63852">
        <ele>445.23</ele>
        <time>2014-08-05T12:58:17Z</time>
      </trkpt>
      <trkpt lat="46.68926" lon="5.63849">
        <ele>451.96</ele>
        <time>2014-08-05T12:58:18Z</time>
      </trkpt>
      <trkpt lat="46.68926" lon="5.63849">
        <ele>458.69</ele>
        <time>2014-08-05T12:58:19Z</time>
      </trkpt>
      <trkpt lat="46.68926" lon="5.63849">
        <ele>464.93</ele>
        <time>2014-08-05T12:58:20Z</time>
      </trkpt>
      <trkpt lat="46.68926" lon="5.63849">
        <ele>471.18</ele>
        <time>2014-08-05T12:58:21Z</time>
      </trkpt>
      <trkpt lat="46.68926" lon="5.63849">
        <ele>476.95</ele>
        <time>2014-08-05T12:58:22Z</time>
      </trkpt>
      <trkpt lat="46.68926" lon="5.63849">
        <ele>482.24</ele>
        <time>2014-08-05T12:58:23Z</time>
      </trkpt>
      <trkpt lat="46.68926" lon="5.63849">
        <ele>487.53</ele>
        <time>2014-08-05T12:58:24Z</time>
      </trkpt>
      <trkpt lat="46.68926" lon="5.63849">
        <ele>492.33</ele>
        <time>2014-08-05T12:58:25Z</time>
      </trkpt>
      <trkpt lat="46.68927" lon="5.63847">
        <ele>496.66</ele>
        <time>2014-08-05T12:58:26Z</time>
      </trkpt>
      <trkpt lat="46.68931" lon="5.63843">
        <ele>505.79</ele>
        <time>2014-08-05T12:58:28Z</time>
      </trkpt>
      <trkpt lat="46.68937" lon="5.63839">
        <ele>513</ele>
        <time>2014-08-05T12:58:30Z</time>
      </trkpt>
      <trkpt lat="46.68941" lon="5.63836">
        <ele>516.37</ele>
        <time>2014-08-05T12:58:31Z</time>
      </trkpt>
      <trkpt lat="46.68945" lon="5.63833">
        <ele>519.73</ele>
        <time>2014-08-05T12:58:32Z</time>
      </trkpt>
      <trkpt lat="46.6895" lon="5.63829">
        <ele>523.09</ele>
        <time>2014-08-05T12:58:33Z</time>
      </trkpt>
      <trkpt lat="46.68956" lon="5.63825">
        <ele>525.5</ele>
        <time>2014-08-05T12:58:35Z</time>
      </trkpt>
      <trkpt lat="46.68961" lon="5.63823">
        <ele>525.02</ele>
        <time>2014-08-05T12:58:36Z</time>
      </trkpt>
      <trkpt lat="46.6897" lon="5.63827">
        <ele>524.06</ele>
        <time>2014-08-05T12:58:46Z</time>
      </trkpt>
      <trkpt lat="46.6897" lon="5.63827">
        <ele>527.9</ele>
        <time>2014-08-05T12:58:55Z</time>
      </trkpt>
      <trkpt lat="46.6897" lon="5.63827">
        <ele>527.9</ele>
        <time>2014-08-05T12:58:56Z</time>
      </trkpt>
      <trkpt lat="46.68969" lon="5.63831">
        <ele>527.9</ele>
        <time>2014-08-05T12:59:21Z</time>
      </trkpt>
      <trkpt lat="46.6897" lon="5.6383">
        <ele>527.9</ele>
        <time>2014-08-05T12:59:23Z</time>
      </trkpt>
      <trkpt lat="46.68973" lon="5.63831">
        <ele>527.42</ele>
        <time>2014-08-05T12:59:25Z</time>
      </trkpt>
      <trkpt lat="46.68978" lon="5.63848">
        <ele>525.98</ele>
        <time>2014-08-05T12:59:30Z</time>
      </trkpt>
      <trkpt lat="46.68989" lon="5.63876">
        <ele>524.06</ele>
        <time>2014-08-05T12:59:36Z</time>
      </trkpt>
      <trkpt lat="46.69007" lon="5.63887">
        <ele>527.42</ele>
        <time>2014-08-05T12:59:39Z</time>
      </trkpt>
      <trkpt lat="46.69014" lon="5.63887">
        <ele>530.79</ele>
        <time>2014-08-05T12:59:40Z</time>
      </trkpt>
      <trkpt lat="46.69021" lon="5.63886">
        <ele>534.15</ele>
        <time>2014-08-05T12:59:41Z</time>
      </trkpt>
      <trkpt lat="46.69043" lon="5.63886">
        <ele>537.51</ele>
        <time>2014-08-05T12:59:44Z</time>
      </trkpt>
      <trkpt lat="46.69048" lon="5.63886">
        <ele>537.03</ele>
        <time>2014-08-05T12:59:45Z</time>
      </trkpt>
      <trkpt lat="46.69094" lon="5.63896">
        <ele>535.11</ele>
        <time>2014-08-05T12:59:51Z</time>
      </trkpt>
      <trkpt lat="46.69101" lon="5.63896">
        <ele>534.63</ele>
        <time>2014-08-05T12:59:52Z</time>
      </trkpt>
      <trkpt lat="46.69109" lon="5.63897">
        <ele>534.15</ele>
        <time>2014-08-05T12:59:53Z</time>
      </trkpt>
      <trkpt lat="46.69166" lon="5.63914">
        <ele>535.59</ele>
        <time>2014-08-05T13:00:00Z</time>
      </trkpt>
      <trkpt lat="46.69192" lon="5.63918">
        <ele>545.69</ele>
        <time>2014-08-05T13:00:03Z</time>
      </trkpt>
      <trkpt lat="46.69218" lon="5.63924">
        <ele>542.8</ele>
        <time>2014-08-05T13:00:06Z</time>
      </trkpt>
      <trkpt lat="46.69268" lon="5.63926">
        <ele>538.96</ele>
        <time>2014-08-05T13:00:11Z</time>
      </trkpt>
      <trkpt lat="46.69312" lon="5.63934">
        <ele>535.59</ele>
        <time>2014-08-05T13:00:15Z</time>
      </trkpt>
      <trkpt lat="46.69347" lon="5.63944">
        <ele>532.23</ele>
        <time>2014-08-05T13:00:17Z</time>
      </trkpt>
      <trkpt lat="46.69392" lon="5.63959">
        <ele>528.38</ele>
        <time>2014-08-05T13:00:21Z</time>
      </trkpt>
      <trkpt lat="46.69403" lon="5.63966">
        <ele>527.42</ele>
        <time>2014-08-05T13:00:22Z</time>
      </trkpt>
      <trkpt lat="46.69461" lon="5.63987">
        <ele>524.06</ele>
        <time>2014-08-05T13:00:27Z</time>
      </trkpt>
      <trkpt lat="46.69497" lon="5.63998">
        <ele>521.17</ele>
        <time>2014-08-05T13:00:30Z</time>
      </trkpt>
      <trkpt lat="46.69508" lon="5.64003">
        <ele>520.21</ele>
        <time>2014-08-05T13:00:31Z</time>
      </trkpt>
      <trkpt lat="46.69543" lon="5.64022">
        <ele>516.85</ele>
        <time>2014-08-05T13:00:34Z</time>
      </trkpt>
      <trkpt lat="46.6957" lon="5.64041">
        <ele>514.44</ele>
        <time>2014-08-05T13:00:36Z</time>
      </trkpt>
      <trkpt lat="46.69581" lon="5.6405">
        <ele>513</ele>
        <time>2014-08-05T13:00:37Z</time>
      </trkpt>
      <trkpt lat="46.69593" lon="5.64059">
        <ele>512.04</ele>
        <time>2014-08-05T13:00:38Z</time>
      </trkpt>
      <trkpt lat="46.69605" lon="5.64068">
        <ele>510.6</ele>
        <time>2014-08-05T13:00:39Z</time>
      </trkpt>
      <trkpt lat="46.69611" lon="5.64073">
        <ele>509.64</ele>
        <time>2014-08-05T13:00:40Z</time>
      </trkpt>
      <trkpt lat="46.69644" lon="5.64097">
        <ele>506.27</ele>
        <time>2014-08-05T13:00:42Z</time>
      </trkpt>
      <trkpt lat="46.69692" lon="5.64118">
        <ele>502.43</ele>
        <time>2014-08-05T13:00:46Z</time>
      </trkpt>
      <trkpt lat="46.69702" lon="5.64124">
        <ele>501.95</ele>
        <time>2014-08-05T13:00:47Z</time>
      </trkpt>
      <trkpt lat="46.69715" lon="5.64128">
        <ele>500.98</ele>
        <time>2014-08-05T13:00:48Z</time>
      </trkpt>
      <trkpt lat="46.69781" lon="5.64134">
        <ele>497.62</ele>
        <time>2014-08-05T13:00:54Z</time>
      </trkpt>
      <trkpt lat="46.69863" lon="5.64125">
        <ele>496.66</ele>
        <time>2014-08-05T13:01:04Z</time>
      </trkpt>
      <trkpt lat="46.69942" lon="5.64138">
        <ele>494.74</ele>
        <time>2014-08-05T13:01:15Z</time>
      </trkpt>
      <trkpt lat="46.70038" lon="5.64154">
        <ele>494.26</ele>
        <time>2014-08-05T13:01:31Z</time>
      </trkpt>
      <trkpt lat="46.70129" lon="5.64216">
        <ele>492.81</ele>
        <time>2014-08-05T13:01:49Z</time>
      </trkpt>
      <trkpt lat="46.70152" lon="5.64238">
        <ele>492.81</ele>
        <time>2014-08-05T13:01:54Z</time>
      </trkpt>
      <trkpt lat="46.70182" lon="5.64291">
        <ele>492.33</ele>
        <time>2014-08-05T13:02:03Z</time>
      </trkpt>
      <trkpt lat="46.70205" lon="5.64329">
        <ele>492.81</ele>
        <time>2014-08-05T13:02:10Z</time>
      </trkpt>
      <trkpt lat="46.70217" lon="5.64348">
        <ele>492.33</ele>
        <time>2014-08-05T13:02:14Z</time>
      </trkpt>
      <trkpt lat="46.7023" lon="5.64365">
        <ele>492.33</ele>
        <time>2014-08-05T13:02:18Z</time>
      </trkpt>
      <trkpt lat="46.70264" lon="5.64397">
        <ele>490.41</ele>
        <time>2014-08-05T13:02:27Z</time>
      </trkpt>
      <trkpt lat="46.70278" lon="5.64405">
        <ele>490.41</ele>
        <time>2014-08-05T13:02:30Z</time>
      </trkpt>
      <trkpt lat="46.70335" lon="5.64433">
        <ele>488.97</ele>
        <time>2014-08-05T13:02:41Z</time>
      </trkpt>
      <trkpt lat="46.70382" lon="5.64482">
        <ele>488.97</ele>
        <time>2014-08-05T13:02:53Z</time>
      </trkpt>
      <trkpt lat="46.70398" lon="5.64516">
        <ele>488.49</ele>
        <time>2014-08-05T13:02:59Z</time>
      </trkpt>
      <trkpt lat="46.70409" lon="5.64586">
        <ele>492.33</ele>
        <time>2014-08-05T13:03:07Z</time>
      </trkpt>
      <trkpt lat="46.70412" lon="5.64592">
        <ele>488.49</ele>
        <time>2014-08-05T13:03:08Z</time>
      </trkpt>
      <trkpt lat="46.70415" lon="5.64599">
        <ele>485.12</ele>
        <time>2014-08-05T13:03:09Z</time>
      </trkpt>
      <trkpt lat="46.70419" lon="5.64605">
        <ele>481.28</ele>
        <time>2014-08-05T13:03:10Z</time>
      </trkpt>
      <trkpt lat="46.7042" lon="5.64613">
        <ele>477.43</ele>
        <time>2014-08-05T13:03:11Z</time>
      </trkpt>
      <trkpt lat="46.70428" lon="5.64624">
        <ele>470.7</ele>
        <time>2014-08-05T13:03:13Z</time>
      </trkpt>
      <trkpt lat="46.70432" lon="5.64628">
        <ele>467.34</ele>
        <time>2014-08-05T13:03:14Z</time>
      </trkpt>
      <trkpt lat="46.70435" lon="5.64632">
        <ele>463.97</ele>
        <time>2014-08-05T13:03:15Z</time>
      </trkpt>
      <trkpt lat="46.70438" lon="5.64636">
        <ele>460.61</ele>
        <time>2014-08-05T13:03:16Z</time>
      </trkpt>
      <trkpt lat="46.70441" lon="5.64639">
        <ele>457.24</ele>
        <time>2014-08-05T13:03:17Z</time>
      </trkpt>
      <trkpt lat="46.70444" lon="5.64642">
        <ele>453.88</ele>
        <time>2014-08-05T13:03:18Z</time>
      </trkpt>
      <trkpt lat="46.70447" lon="5.64644">
        <ele>451</ele>
        <time>2014-08-05T13:03:19Z</time>
      </trkpt>
      <trkpt lat="46.70451" lon="5.64645">
        <ele>447.63</ele>
        <time>2014-08-05T13:03:20Z</time>
      </trkpt>
      <trkpt lat="46.70454" lon="5.64646">
        <ele>444.27</ele>
        <time>2014-08-05T13:03:21Z</time>
      </trkpt>
      <trkpt lat="46.70458" lon="5.64648">
        <ele>440.9</ele>
        <time>2014-08-05T13:03:22Z</time>
      </trkpt>
      <trkpt lat="46.70462" lon="5.6465">
        <ele>438.02</ele>
        <time>2014-08-05T13:03:23Z</time>
      </trkpt>
      <trkpt lat="46.70465" lon="5.64651">
        <ele>434.65</ele>
        <time>2014-08-05T13:03:24Z</time>
      </trkpt>
      <trkpt lat="46.70474" lon="5.64655">
        <ele>428.89</ele>
        <time>2014-08-05T13:03:26Z</time>
      </trkpt>
      <trkpt lat="46.70482" lon="5.64659">
        <ele>423.12</ele>
        <time>2014-08-05T13:03:28Z</time>
      </trkpt>
      <trkpt lat="46.7049" lon="5.64663">
        <ele>417.83</ele>
        <time>2014-08-05T13:03:30Z</time>
      </trkpt>
      <trkpt lat="46.70494" lon="5.64666">
        <ele>415.43</ele>
        <time>2014-08-05T13:03:31Z</time>
      </trkpt>
      <trkpt lat="46.70511" lon="5.64674">
        <ele>406.77</ele>
        <time>2014-08-05T13:03:34Z</time>
      </trkpt>
      <trkpt lat="46.70522" lon="5.64679">
        <ele>401.97</ele>
        <time>2014-08-05T13:03:36Z</time>
      </trkpt>
      <trkpt lat="46.70541" lon="5.64675">
        <ele>394.76</ele>
        <time>2014-08-05T13:03:39Z</time>
      </trkpt>
      <trkpt lat="46.70575" lon="5.64661">
        <ele>391.87</ele>
        <time>2014-08-05T13:03:44Z</time>
      </trkpt>
      <trkpt lat="46.70605" lon="5.64653">
        <ele>387.55</ele>
        <time>2014-08-05T13:03:49Z</time>
      </trkpt>
      <trkpt lat="46.70612" lon="5.64652">
        <ele>385.63</ele>
        <time>2014-08-05T13:03:50Z</time>
      </trkpt>
      <trkpt lat="46.70633" lon="5.64654">
        <ele>381.3</ele>
        <time>2014-08-05T13:03:53Z</time>
      </trkpt>
      <trkpt lat="46.70655" lon="5.64661">
        <ele>381.78</ele>
        <time>2014-08-05T13:03:56Z</time>
      </trkpt>
      <trkpt lat="46.7067" lon="5.64663">
        <ele>379.38</ele>
        <time>2014-08-05T13:03:59Z</time>
      </trkpt>
      <trkpt lat="46.70681" lon="5.64664">
        <ele>375.05</ele>
        <time>2014-08-05T13:04:02Z</time>
      </trkpt>
      <trkpt lat="46.70695" lon="5.64662">
        <ele>371.21</ele>
        <time>2014-08-05T13:04:05Z</time>
      </trkpt>
      <trkpt lat="46.70709" lon="5.64658">
        <ele>366.4</ele>
        <time>2014-08-05T13:04:08Z</time>
      </trkpt>
      <trkpt lat="46.70729" lon="5.64648">
        <ele>360.63</ele>
        <time>2014-08-05T13:04:12Z</time>
      </trkpt>
      <trkpt lat="46.70739" lon="5.64643">
        <ele>358.23</ele>
        <time>2014-08-05T13:04:14Z</time>
      </trkpt>
      <trkpt lat="46.70755" lon="5.64635">
        <ele>353.42</ele>
        <time>2014-08-05T13:04:17Z</time>
      </trkpt>
      <trkpt lat="46.70764" lon="5.64631">
        <ele>351.02</ele>
        <time>2014-08-05T13:04:20Z</time>
      </trkpt>
      <trkpt lat="46.70766" lon="5.6463">
        <ele>347.17</ele>
        <time>2014-08-05T13:04:25Z</time>
      </trkpt>
      <trkpt lat="46.70766" lon="5.6463">
        <ele>343.81</ele>
        <time>2014-08-05T13:04:29Z</time>
      </trkpt>
      <trkpt lat="46.70766" lon="5.6463">
        <ele>340.92</ele>
        <time>2014-08-05T13:04:33Z</time>
      </trkpt>
      <trkpt lat="46.70766" lon="5.6463">
        <ele>337.56</ele>
        <time>2014-08-05T13:04:38Z</time>
      </trkpt>
      <trkpt lat="46.70766" lon="5.6463">
        <ele>334.2</ele>
        <time>2014-08-05T13:04:45Z</time>
      </trkpt>
      <trkpt lat="46.70766" lon="5.6463">
        <ele>333.23</ele>
        <time>2014-08-05T13:04:47Z</time>
      </trkpt>
      <trkpt lat="46.70766" lon="5.6463">
        <ele>332.27</ele>
        <time>2014-08-05T13:04:50Z</time>
      </trkpt>
      <trkpt lat="46.70767" lon="5.64631">
        <ele>331.79</ele>
        <time>2014-08-05T13:05:17Z</time>
      </trkpt>
      <trkpt lat="46.70769" lon="5.64631">
        <ele>331.79</ele>
        <time>2014-08-05T13:05:18Z</time>
      </trkpt>
      <trkpt lat="46.70798" lon="5.64616">
        <ele>332.75</ele>
        <time>2014-08-05T13:05:27Z</time>
      </trkpt>
      <trkpt lat="46.70801" lon="5.64615">
        <ele>332.27</ele>
        <time>2014-08-05T13:05:28Z</time>
      </trkpt>
      <trkpt lat="46.70814" lon="5.64612">
        <ele>332.75</ele>
        <time>2014-08-05T13:05:31Z</time>
      </trkpt>
      <trkpt lat="46.70848" lon="5.64596">
        <ele>333.23</ele>
        <time>2014-08-05T13:05:42Z</time>
      </trkpt>
      <trkpt lat="46.70884" lon="5.64558">
        <ele>334.2</ele>
        <time>2014-08-05T13:05:55Z</time>
      </trkpt>
      <trkpt lat="46.70921" lon="5.64517">
        <ele>334.2</ele>
        <time>2014-08-05T13:06:08Z</time>
      </trkpt>
      <trkpt lat="46.7093" lon="5.64515">
        <ele>334.2</ele>
        <time>2014-08-05T13:06:10Z</time>
      </trkpt>
      <trkpt lat="46.70939" lon="5.64511">
        <ele>333.71</ele>
        <time>2014-08-05T13:06:12Z</time>
      </trkpt>
      <trkpt lat="46.70977" lon="5.64479">
        <ele>333.23</ele>
        <time>2014-08-05T13:06:21Z</time>
      </trkpt>
      <trkpt lat="46.71021" lon="5.64439">
        <ele>333.23</ele>
        <time>2014-08-05T13:06:32Z</time>
      </trkpt>
      <trkpt lat="46.71041" lon="5.64413">
        <ele>333.23</ele>
        <time>2014-08-05T13:06:40Z</time>
      </trkpt>
      <trkpt lat="46.71051" lon="5.64398">
        <ele>332.75</ele>
        <time>2014-08-05T13:06:44Z</time>
      </trkpt>
      <trkpt lat="46.71065" lon="5.6438">
        <ele>332.75</ele>
        <time>2014-08-05T13:06:48Z</time>
      </trkpt>
      <trkpt lat="46.71103" lon="5.64305">
        <ele>329.39</ele>
        <time>2014-08-05T13:06:59Z</time>
      </trkpt>
      <trkpt lat="46.71107" lon="5.64295">
        <ele>328.91</ele>
        <time>2014-08-05T13:07:00Z</time>
      </trkpt>
      <trkpt lat="46.71128" lon="5.64239">
        <ele>326.99</ele>
        <time>2014-08-05T13:07:08Z</time>
      </trkpt>
      <trkpt lat="46.71138" lon="5.6412">
        <ele>325.06</ele>
        <time>2014-08-05T13:07:21Z</time>
      </trkpt>
      <trkpt lat="46.71138" lon="5.64103">
        <ele>324.58</ele>
        <time>2014-08-05T13:07:23Z</time>
      </trkpt>
      <trkpt lat="46.71135" lon="5.64054">
        <ele>323.62</ele>
        <time>2014-08-05T13:07:29Z</time>
      </trkpt>
      <trkpt lat="46.71132" lon="5.64031">
        <ele>323.62</ele>
        <time>2014-08-05T13:07:32Z</time>
      </trkpt>
      <trkpt lat="46.71129" lon="5.63993">
        <ele>322.66</ele>
        <time>2014-08-05T13:07:38Z</time>
      </trkpt>
      <trkpt lat="46.7113" lon="5.63938">
        <ele>322.66</ele>
        <time>2014-08-05T13:07:47Z</time>
      </trkpt>
      <trkpt lat="46.71137" lon="5.6391">
        <ele>321.7</ele>
        <time>2014-08-05T13:07:52Z</time>
      </trkpt>
      <trkpt lat="46.71141" lon="5.63898">
        <ele>321.7</ele>
        <time>2014-08-05T13:07:54Z</time>
      </trkpt>
      <trkpt lat="46.71145" lon="5.63884">
        <ele>321.22</ele>
        <time>2014-08-05T13:07:56Z</time>
      </trkpt>
      <trkpt lat="46.71151" lon="5.63862">
        <ele>320.74</ele>
        <time>2014-08-05T13:07:59Z</time>
      </trkpt>
      <trkpt lat="46.71167" lon="5.63817">
        <ele>320.26</ele>
        <time>2014-08-05T13:08:05Z</time>
      </trkpt>
      <trkpt lat="46.71183" lon="5.63782">
        <ele>319.3</ele>
        <time>2014-08-05T13:08:10Z</time>
      </trkpt>
      <trkpt lat="46.71196" lon="5.63752">
        <ele>318.81</ele>
        <time>2014-08-05T13:08:14Z</time>
      </trkpt>
      <trkpt lat="46.71205" lon="5.63704">
        <ele>318.81</ele>
        <time>2014-08-05T13:08:20Z</time>
      </trkpt>
      <trkpt lat="46.71221" lon="5.63624">
        <ele>318.33</ele>
        <time>2014-08-05T13:08:30Z</time>
      </trkpt>
      <trkpt lat="46.71233" lon="5.63582">
        <ele>318.81</ele>
        <time>2014-08-05T13:08:36Z</time>
      </trkpt>
      <trkpt lat="46.71251" lon="5.63584">
        <ele>319.3</ele>
        <time>2014-08-05T13:08:44Z</time>
      </trkpt>
      <trkpt lat="46.71295" lon="5.636">
        <ele>318.81</ele>
        <time>2014-08-05T13:08:56Z</time>
      </trkpt>
      <trkpt lat="46.71299" lon="5.63599">
        <ele>318.81</ele>
        <time>2014-08-05T13:08:58Z</time>
      </trkpt>
      <trkpt lat="46.71324" lon="5.63551">
        <ele>318.81</ele>
        <time>2014-08-05T13:09:11Z</time>
      </trkpt>
      <trkpt lat="46.7133" lon="5.63544">
        <ele>318.81</ele>
        <time>2014-08-05T13:09:13Z</time>
      </trkpt>
      <trkpt lat="46.71375" lon="5.63474">
        <ele>317.85</ele>
        <time>2014-08-05T13:09:27Z</time>
      </trkpt>
      <trkpt lat="46.71435" lon="5.63378">
        <ele>315.93</ele>
        <time>2014-08-05T13:09:43Z</time>
      </trkpt>
      <trkpt lat="46.71479" lon="5.63318">
        <ele>315.45</ele>
        <time>2014-08-05T13:09:55Z</time>
      </trkpt>
      <trkpt lat="46.71493" lon="5.633">
        <ele>315.45</ele>
        <time>2014-08-05T13:09:59Z</time>
      </trkpt>
      <trkpt lat="46.71507" lon="5.63281">
        <ele>315.45</ele>
        <time>2014-08-05T13:10:03Z</time>
      </trkpt>
      <trkpt lat="46.71542" lon="5.63244">
        <ele>315.45</ele>
        <time>2014-08-05T13:10:12Z</time>
      </trkpt>
      <trkpt lat="46.71613" lon="5.632">
        <ele>314.49</ele>
        <time>2014-08-05T13:10:27Z</time>
      </trkpt>
      <trkpt lat="46.71681" lon="5.6317">
        <ele>314.01</ele>
        <time>2014-08-05T13:10:41Z</time>
      </trkpt>
      <trkpt lat="46.71706" lon="5.63172">
        <ele>314.01</ele>
        <time>2014-08-05T13:10:46Z</time>
      </trkpt>
      <trkpt lat="46.7172" lon="5.63179">
        <ele>314.49</ele>
        <time>2014-08-05T13:10:49Z</time>
      </trkpt>
      <trkpt lat="46.7178" lon="5.63244">
        <ele>313.53</ele>
        <time>2014-08-05T13:11:04Z</time>
      </trkpt>
      <trkpt lat="46.718" lon="5.63263">
        <ele>314.01</ele>
        <time>2014-08-05T13:11:09Z</time>
      </trkpt>
      <trkpt lat="46.71863" lon="5.63294">
        <ele>313.53</ele>
        <time>2014-08-05T13:11:23Z</time>
      </trkpt>
      <trkpt lat="46.7188" lon="5.63296">
        <ele>314.01</ele>
        <time>2014-08-05T13:11:27Z</time>
      </trkpt>
      <trkpt lat="46.71942" lon="5.63297">
        <ele>314.97</ele>
        <time>2014-08-05T13:11:42Z</time>
      </trkpt>
      <trkpt lat="46.71978" lon="5.63313">
        <ele>314.01</ele>
        <time>2014-08-05T13:11:52Z</time>
      </trkpt>
      <trkpt lat="46.72037" lon="5.63367">
        <ele>312.09</ele>
        <time>2014-08-05T13:12:05Z</time>
      </trkpt>
      <trkpt lat="46.72082" lon="5.63389">
        <ele>311.6</ele>
        <time>2014-08-05T13:12:14Z</time>
      </trkpt>
      <trkpt lat="46.72163" lon="5.63417">
        <ele>311.12</ele>
        <time>2014-08-05T13:12:30Z</time>
      </trkpt>
      <trkpt lat="46.72202" lon="5.63443">
        <ele>310.64</ele>
        <time>2014-08-05T13:12:40Z</time>
      </trkpt>
      <trkpt lat="46.72216" lon="5.63453">
        <ele>310.16</ele>
        <time>2014-08-05T13:12:43Z</time>
      </trkpt>
      <trkpt lat="46.72259" lon="5.63501">
        <ele>310.16</ele>
        <time>2014-08-05T13:12:55Z</time>
      </trkpt>
      <trkpt lat="46.7229" lon="5.6353">
        <ele>310.16</ele>
        <time>2014-08-05T13:13:01Z</time>
      </trkpt>
      <trkpt lat="46.72328" lon="5.63587">
        <ele>309.68</ele>
        <time>2014-08-05T13:13:09Z</time>
      </trkpt>
      <trkpt lat="46.72371" lon="5.63639">
        <ele>310.16</ele>
        <time>2014-08-05T13:13:19Z</time>
      </trkpt>
      <trkpt lat="46.72384" lon="5.63649">
        <ele>310.16</ele>
        <time>2014-08-05T13:13:22Z</time>
      </trkpt>
      <trkpt lat="46.72434" lon="5.63696">
        <ele>308.72</ele>
        <time>2014-08-05T13:13:33Z</time>
      </trkpt>
      <trkpt lat="46.72514" lon="5.63745">
        <ele>307.28</ele>
        <time>2014-08-05T13:13:48Z</time>
      </trkpt>
      <trkpt lat="46.72533" lon="5.63752">
        <ele>306.32</ele>
        <time>2014-08-05T13:13:51Z</time>
      </trkpt>
      <trkpt lat="46.72621" lon="5.63793">
        <ele>305.36</ele>
        <time>2014-08-05T13:14:06Z</time>
      </trkpt>
      <trkpt lat="46.72703" lon="5.63808">
        <ele>305.36</ele>
        <time>2014-08-05T13:14:21Z</time>
      </trkpt>
      <trkpt lat="46.72792" lon="5.63785">
        <ele>302.95</ele>
        <time>2014-08-05T13:14:35Z</time>
      </trkpt>
      <trkpt lat="46.72863" lon="5.63751">
        <ele>301.99</ele>
        <time>2014-08-05T13:14:46Z</time>
      </trkpt>
      <trkpt lat="46.72931" lon="5.63675">
        <ele>301.03</ele>
        <time>2014-08-05T13:15:00Z</time>
      </trkpt>
      <trkpt lat="46.72974" lon="5.63647">
        <ele>299.59</ele>
        <time>2014-08-05T13:15:08Z</time>
      </trkpt>
      <trkpt lat="46.73006" lon="5.63639">
        <ele>299.59</ele>
        <time>2014-08-05T13:15:14Z</time>
      </trkpt>
      <trkpt lat="46.73036" lon="5.63639">
        <ele>299.59</ele>
        <time>2014-08-05T13:15:20Z</time>
      </trkpt>
      <trkpt lat="46.73066" lon="5.63646">
        <ele>299.11</ele>
        <time>2014-08-05T13:15:27Z</time>
      </trkpt>
      <trkpt lat="46.73083" lon="5.63652">
        <ele>299.11</ele>
        <time>2014-08-05T13:15:31Z</time>
      </trkpt>
      <trkpt lat="46.73146" lon="5.6366">
        <ele>299.59</ele>
        <time>2014-08-05T13:15:46Z</time>
      </trkpt>
      <trkpt lat="46.73217" lon="5.63662">
        <ele>300.55</ele>
        <time>2014-08-05T13:16:03Z</time>
      </trkpt>
      <trkpt lat="46.73293" lon="5.63649">
        <ele>300.55</ele>
        <time>2014-08-05T13:16:20Z</time>
      </trkpt>
      <trkpt lat="46.73324" lon="5.63627">
        <ele>300.07</ele>
        <time>2014-08-05T13:16:27Z</time>
      </trkpt>
      <trkpt lat="46.73399" lon="5.63544">
        <ele>299.11</ele>
        <time>2014-08-05T13:16:44Z</time>
      </trkpt>
      <trkpt lat="46.73489" lon="5.63481">
        <ele>298.63</ele>
        <time>2014-08-05T13:17:02Z</time>
      </trkpt>
      <trkpt lat="46.735" lon="5.63474">
        <ele>298.15</ele>
        <time>2014-08-05T13:17:04Z</time>
      </trkpt>
      <trkpt lat="46.7357" lon="5.63464">
        <ele>297.67</ele>
        <time>2014-08-05T13:17:16Z</time>
      </trkpt>
      <trkpt lat="46.73664" lon="5.63487">
        <ele>295.26</ele>
        <time>2014-08-05T13:17:30Z</time>
      </trkpt>
      <trkpt lat="46.73698" lon="5.63488">
        <ele>294.3</ele>
        <time>2014-08-05T13:17:35Z</time>
      </trkpt>
      <trkpt lat="46.73729" lon="5.63475">
        <ele>294.3</ele>
        <time>2014-08-05T13:17:40Z</time>
      </trkpt>
      <trkpt lat="46.73816" lon="5.63391">
        <ele>295.26</ele>
        <time>2014-08-05T13:17:58Z</time>
      </trkpt>
      <trkpt lat="46.73832" lon="5.63375">
        <ele>295.74</ele>
        <time>2014-08-05T13:18:02Z</time>
      </trkpt>
      <trkpt lat="46.73889" lon="5.63296">
        <ele>295.74</ele>
        <time>2014-08-05T13:18:18Z</time>
      </trkpt>
      <trkpt lat="46.73926" lon="5.63243">
        <ele>294.78</ele>
        <time>2014-08-05T13:18:29Z</time>
      </trkpt>
      <trkpt lat="46.73931" lon="5.63232">
        <ele>294.78</ele>
        <time>2014-08-05T13:18:31Z</time>
      </trkpt>
      <trkpt lat="46.73937" lon="5.63216">
        <ele>294.78</ele>
        <time>2014-08-05T13:18:34Z</time>
      </trkpt>
      <trkpt lat="46.73968" lon="5.6317">
        <ele>296.22</ele>
        <time>2014-08-05T13:18:46Z</time>
      </trkpt>
      <trkpt lat="46.74003" lon="5.6315">
        <ele>297.67</ele>
        <time>2014-08-05T13:18:57Z</time>
      </trkpt>
      <trkpt lat="46.74051" lon="5.63121">
        <ele>297.18</ele>
        <time>2014-08-05T13:19:09Z</time>
      </trkpt>
      <trkpt lat="46.74055" lon="5.63119">
        <ele>296.7</ele>
        <time>2014-08-05T13:19:10Z</time>
      </trkpt>
      <trkpt lat="46.74052" lon="5.63119">
        <ele>296.22</ele>
        <time>2014-08-05T13:19:16Z</time>
      </trkpt>
      <trkpt lat="46.74049" lon="5.63125">
        <ele>296.22</ele>
        <time>2014-08-05T13:19:29Z</time>
      </trkpt>
      <trkpt lat="46.74049" lon="5.63125">
        <ele>296.22</ele>
        <time>2014-08-05T13:19:58Z</time>
      </trkpt>
      <trkpt lat="46.74053" lon="5.63123">
        <ele>295.74</ele>
        <time>2014-08-05T13:20:18Z</time>
      </trkpt>
      <trkpt lat="46.74053" lon="5.63123">
        <ele>295.26</ele>
        <time>2014-08-05T13:20:35Z</time>
      </trkpt>
      <trkpt lat="46.74053" lon="5.63123">
        <ele>295.26</ele>
        <time>2014-08-05T13:21:00Z</time>
      </trkpt>
      <trkpt lat="46.74054" lon="5.63121">
        <ele>295.26</ele>
        <time>2014-08-05T13:21:16Z</time>
      </trkpt>
      <trkpt lat="46.74073" lon="5.63106">
        <ele>294.78</ele>
        <time>2014-08-05T13:21:25Z</time>
      </trkpt>
      <trkpt lat="46.74122" lon="5.63073">
        <ele>293.82</ele>
        <time>2014-08-05T13:21:42Z</time>
      </trkpt>
      <trkpt lat="46.74167" lon="5.63028">
        <ele>294.78</ele>
        <time>2014-08-05T13:21:56Z</time>
      </trkpt>
      <trkpt lat="46.74189" lon="5.63008">
        <ele>294.78</ele>
        <time>2014-08-05T13:22:04Z</time>
      </trkpt>
      <trkpt lat="46.7419" lon="5.63006">
        <ele>294.78</ele>
        <time>2014-08-05T13:22:06Z</time>
      </trkpt>
      <trkpt lat="46.74187" lon="5.63008">
        <ele>294.78</ele>
        <time>2014-08-05T13:22:09Z</time>
      </trkpt>
      <trkpt lat="46.74185" lon="5.63008">
        <ele>294.3</ele>
        <time>2014-08-05T13:22:21Z</time>
      </trkpt>
      <trkpt lat="46.74185" lon="5.63008">
        <ele>294.3</ele>
        <time>2014-08-05T13:22:42Z</time>
      </trkpt>
      <trkpt lat="46.74185" lon="5.63008">
        <ele>294.3</ele>
        <time>2014-08-05T13:22:48Z</time>
      </trkpt>
      <trkpt lat="46.74181" lon="5.63011">
        <ele>294.3</ele>
        <time>2014-08-05T13:22:52Z</time>
      </trkpt>
      <trkpt lat="46.74207" lon="5.62981">
        <ele>294.3</ele>
        <time>2014-08-05T13:23:04Z</time>
      </trkpt>
      <trkpt lat="46.74218" lon="5.62973">
        <ele>294.3</ele>
        <time>2014-08-05T13:23:07Z</time>
      </trkpt>
      <trkpt lat="46.74232" lon="5.62958">
        <ele>293.82</ele>
        <time>2014-08-05T13:23:11Z</time>
      </trkpt>
      <trkpt lat="46.7425" lon="5.62933">
        <ele>292.86</ele>
        <time>2014-08-05T13:23:17Z</time>
      </trkpt>
      <trkpt lat="46.7427" lon="5.62897">
        <ele>290.94</ele>
        <time>2014-08-05T13:23:25Z</time>
      </trkpt>
      <trkpt lat="46.7429" lon="5.62829">
        <ele>288.53</ele>
        <time>2014-08-05T13:23:33Z</time>
      </trkpt>
      <trkpt lat="46.74299" lon="5.62799">
        <ele>287.57</ele>
        <time>2014-08-05T13:23:36Z</time>
      </trkpt>
      <trkpt lat="46.74331" lon="5.62758">
        <ele>285.65</ele>
        <time>2014-08-05T13:23:41Z</time>
      </trkpt>
      <trkpt lat="46.74386" lon="5.62728">
        <ele>284.21</ele>
        <time>2014-08-05T13:23:49Z</time>
      </trkpt>
      <trkpt lat="46.74393" lon="5.62726">
        <ele>284.69</ele>
        <time>2014-08-05T13:23:50Z</time>
      </trkpt>
      <trkpt lat="46.74428" lon="5.62711">
        <ele>283.25</ele>
        <time>2014-08-05T13:23:56Z</time>
      </trkpt>
      <trkpt lat="46.74438" lon="5.62705">
        <ele>283.25</ele>
        <time>2014-08-05T13:23:58Z</time>
      </trkpt>
      <trkpt lat="46.74487" lon="5.62646">
        <ele>281.8</ele>
        <time>2014-08-05T13:24:09Z</time>
      </trkpt>
      <trkpt lat="46.74508" lon="5.62627">
        <ele>281.8</ele>
        <time>2014-08-05T13:24:14Z</time>
      </trkpt>
      <trkpt lat="46.74552" lon="5.62603">
        <ele>281.32</ele>
        <time>2014-08-05T13:24:24Z</time>
      </trkpt>
      <trkpt lat="46.74615" lon="5.62574">
        <ele>281.8</ele>
        <time>2014-08-05T13:24:38Z</time>
      </trkpt>
      <trkpt lat="46.74676" lon="5.62524">
        <ele>280.84</ele>
        <time>2014-08-05T13:24:51Z</time>
      </trkpt>
      <trkpt lat="46.74739" lon="5.6243">
        <ele>278.92</ele>
        <time>2014-08-05T13:25:06Z</time>
      </trkpt>
      <trkpt lat="46.74752" lon="5.62396">
        <ele>278.92</ele>
        <time>2014-08-05T13:25:14Z</time>
      </trkpt>
      <trkpt lat="46.74751" lon="5.62398">
        <ele>278.44</ele>
        <time>2014-08-05T13:25:29Z</time>
      </trkpt>
      <trkpt lat="46.74751" lon="5.62398">
        <ele>278.44</ele>
        <time>2014-08-05T13:25:51Z</time>
      </trkpt>
      <trkpt lat="46.74751" lon="5.62395">
        <ele>277.96</ele>
        <time>2014-08-05T13:26:04Z</time>
      </trkpt>
      <trkpt lat="46.74759" lon="5.62366">
        <ele>277.96</ele>
        <time>2014-08-05T13:26:11Z</time>
      </trkpt>
      <trkpt lat="46.74769" lon="5.62325">
        <ele>277.96</ele>
        <time>2014-08-05T13:26:17Z</time>
      </trkpt>
      <trkpt lat="46.74772" lon="5.62298">
        <ele>277.48</ele>
        <time>2014-08-05T13:26:21Z</time>
      </trkpt>
      <trkpt lat="46.7477" lon="5.62283">
        <ele>277.48</ele>
        <time>2014-08-05T13:26:31Z</time>
      </trkpt>
      <trkpt lat="46.7477" lon="5.62283">
        <ele>277.96</ele>
        <time>2014-08-05T13:26:57Z</time>
      </trkpt>
      <trkpt lat="46.74771" lon="5.62283">
        <ele>277.48</ele>
        <time>2014-08-05T13:27:17Z</time>
      </trkpt>
      <trkpt lat="46.74786" lon="5.62275">
        <ele>277</ele>
        <time>2014-08-05T13:27:29Z</time>
      </trkpt>
      <trkpt lat="46.74797" lon="5.62253">
        <ele>276.52</ele>
        <time>2014-08-05T13:27:34Z</time>
      </trkpt>
      <trkpt lat="46.7481" lon="5.62229">
        <ele>276.52</ele>
        <time>2014-08-05T13:27:39Z</time>
      </trkpt>
      <trkpt lat="46.74865" lon="5.62128">
        <ele>275.07</ele>
        <time>2014-08-05T13:27:57Z</time>
      </trkpt>
      <trkpt lat="46.7489" lon="5.62102">
        <ele>275.07</ele>
        <time>2014-08-05T13:28:03Z</time>
      </trkpt>
      <trkpt lat="46.74929" lon="5.62058">
        <ele>275.56</ele>
        <time>2014-08-05T13:28:13Z</time>
      </trkpt>
      <trkpt lat="46.74942" lon="5.62037">
        <ele>275.07</ele>
        <time>2014-08-05T13:28:17Z</time>
      </trkpt>
      <trkpt lat="46.74962" lon="5.62">
        <ele>275.56</ele>
        <time>2014-08-05T13:28:27Z</time>
      </trkpt>
      <trkpt lat="46.7497" lon="5.61983">
        <ele>275.56</ele>
        <time>2014-08-05T13:28:31Z</time>
      </trkpt>
      <trkpt lat="46.74971" lon="5.61973">
        <ele>275.56</ele>
        <time>2014-08-05T13:28:41Z</time>
      </trkpt>
      <trkpt lat="46.74971" lon="5.61973">
        <ele>275.56</ele>
        <time>2014-08-05T13:29:12Z</time>
      </trkpt>
      <trkpt lat="46.74972" lon="5.61972">
        <ele>275.07</ele>
        <time>2014-08-05T13:29:33Z</time>
      </trkpt>
      <trkpt lat="46.74972" lon="5.61972">
        <ele>275.07</ele>
        <time>2014-08-05T13:30:11Z</time>
      </trkpt>
      <trkpt lat="46.74972" lon="5.61971">
        <ele>275.07</ele>
        <time>2014-08-05T13:30:43Z</time>
      </trkpt>
      <trkpt lat="46.7497" lon="5.61971">
        <ele>274.59</ele>
        <time>2014-08-05T13:30:45Z</time>
      </trkpt>
      <trkpt lat="46.74961" lon="5.61983">
        <ele>274.59</ele>
        <time>2014-08-05T13:31:02Z</time>
      </trkpt>
      <trkpt lat="46.74961" lon="5.61983">
        <ele>274.11</ele>
        <time>2014-08-05T13:31:21Z</time>
      </trkpt>
      <trkpt lat="46.74966" lon="5.61983">
        <ele>274.59</ele>
        <time>2014-08-05T13:33:42Z</time>
      </trkpt>
      <trkpt lat="46.74967" lon="5.61984">
        <ele>274.59</ele>
        <time>2014-08-05T13:33:43Z</time>
      </trkpt>
      <trkpt lat="46.74978" lon="5.61972">
        <ele>274.59</ele>
        <time>2014-08-05T13:33:57Z</time>
      </trkpt>
      <trkpt lat="46.75024" lon="5.61923">
        <ele>274.11</ele>
        <time>2014-08-05T13:34:11Z</time>
      </trkpt>
      <trkpt lat="46.75036" lon="5.61912">
        <ele>274.11</ele>
        <time>2014-08-05T13:34:14Z</time>
      </trkpt>
      <trkpt lat="46.75094" lon="5.61856">
        <ele>274.11</ele>
        <time>2014-08-05T13:34:29Z</time>
      </trkpt>
      <trkpt lat="46.75138" lon="5.61798">
        <ele>273.63</ele>
        <time>2014-08-05T13:34:41Z</time>
      </trkpt>
      <trkpt lat="46.75145" lon="5.61788">
        <ele>273.63</ele>
        <time>2014-08-05T13:34:43Z</time>
      </trkpt>
      <trkpt lat="46.75153" lon="5.61772">
        <ele>273.63</ele>
        <time>2014-08-05T13:34:46Z</time>
      </trkpt>
      <trkpt lat="46.7519" lon="5.61725">
        <ele>273.15</ele>
        <time>2014-08-05T13:34:57Z</time>
      </trkpt>
      <trkpt lat="46.75201" lon="5.61715">
        <ele>273.15</ele>
        <time>2014-08-05T13:35:00Z</time>
      </trkpt>
      <trkpt lat="46.75217" lon="5.61703">
        <ele>272.67</ele>
        <time>2014-08-05T13:35:04Z</time>
      </trkpt>
      <trkpt lat="46.75231" lon="5.61693">
        <ele>272.67</ele>
        <time>2014-08-05T13:35:07Z</time>
      </trkpt>
      <trkpt lat="46.75259" lon="5.61669">
        <ele>272.19</ele>
        <time>2014-08-05T13:35:13Z</time>
      </trkpt>
      <trkpt lat="46.75283" lon="5.6163">
        <ele>271.71</ele>
        <time>2014-08-05T13:35:19Z</time>
      </trkpt>
      <trkpt lat="46.75301" lon="5.61562">
        <ele>271.71</ele>
        <time>2014-08-05T13:35:28Z</time>
      </trkpt>
      <trkpt lat="46.75317" lon="5.61489">
        <ele>271.23</ele>
        <time>2014-08-05T13:35:38Z</time>
      </trkpt>
      <trkpt lat="46.75335" lon="5.61452">
        <ele>270.75</ele>
        <time>2014-08-05T13:35:44Z</time>
      </trkpt>
      <trkpt lat="46.75338" lon="5.61422">
        <ele>270.75</ele>
        <time>2014-08-05T13:35:48Z</time>
      </trkpt>
      <trkpt lat="46.75339" lon="5.61395">
        <ele>270.27</ele>
        <time>2014-08-05T13:35:51Z</time>
      </trkpt>
      <trkpt lat="46.75349" lon="5.61367">
        <ele>269.79</ele>
        <time>2014-08-05T13:35:55Z</time>
      </trkpt>
      <trkpt lat="46.75385" lon="5.61313">
        <ele>270.27</ele>
        <time>2014-08-05T13:36:05Z</time>
      </trkpt>
      <trkpt lat="46.75415" lon="5.61276">
        <ele>270.27</ele>
        <time>2014-08-05T13:36:13Z</time>
      </trkpt>
      <trkpt lat="46.75421" lon="5.61267">
        <ele>269.79</ele>
        <time>2014-08-05T13:36:15Z</time>
      </trkpt>
      <trkpt lat="46.75446" lon="5.61253">
        <ele>269.79</ele>
        <time>2014-08-05T13:36:21Z</time>
      </trkpt>
      <trkpt lat="46.75458" lon="5.61241">
        <ele>269.31</ele>
        <time>2014-08-05T13:36:24Z</time>
      </trkpt>
      <trkpt lat="46.75473" lon="5.61223">
        <ele>269.31</ele>
        <time>2014-08-05T13:36:28Z</time>
      </trkpt>
      <trkpt lat="46.75483" lon="5.61208">
        <ele>268.83</ele>
        <time>2014-08-05T13:36:31Z</time>
      </trkpt>
      <trkpt lat="46.75498" lon="5.61193">
        <ele>268.83</ele>
        <time>2014-08-05T13:36:35Z</time>
      </trkpt>
      <trkpt lat="46.75526" lon="5.61172">
        <ele>268.83</ele>
        <time>2014-08-05T13:36:42Z</time>
      </trkpt>
      <trkpt lat="46.75526" lon="5.61152">
        <ele>268.35</ele>
        <time>2014-08-05T13:36:46Z</time>
      </trkpt>
      <trkpt lat="46.75476" lon="5.61087">
        <ele>268.35</ele>
        <time>2014-08-05T13:37:02Z</time>
      </trkpt>
      <trkpt lat="46.75442" lon="5.61046">
        <ele>267.86</ele>
        <time>2014-08-05T13:37:11Z</time>
      </trkpt>
      <trkpt lat="46.75416" lon="5.61016">
        <ele>267.86</ele>
        <time>2014-08-05T13:37:18Z</time>
      </trkpt>
      <trkpt lat="46.75403" lon="5.60998">
        <ele>268.35</ele>
        <time>2014-08-05T13:37:22Z</time>
      </trkpt>
      <trkpt lat="46.7539" lon="5.6098">
        <ele>268.83</ele>
        <time>2014-08-05T13:37:26Z</time>
      </trkpt>
      <trkpt lat="46.75356" lon="5.60942">
        <ele>271.71</ele>
        <time>2014-08-05T13:37:39Z</time>
      </trkpt>
      <trkpt lat="46.75328" lon="5.60949">
        <ele>273.15</ele>
        <time>2014-08-05T13:37:52Z</time>
      </trkpt>
      <trkpt lat="46.75302" lon="5.60962">
        <ele>275.56</ele>
        <time>2014-08-05T13:38:06Z</time>
      </trkpt>
      <trkpt lat="46.7527" lon="5.60962">
        <ele>277.96</ele>
        <time>2014-08-05T13:38:22Z</time>
      </trkpt>
      <trkpt lat="46.7524" lon="5.60937">
        <ele>279.4</ele>
        <time>2014-08-05T13:38:36Z</time>
      </trkpt>
      <trkpt lat="46.75187" lon="5.60898">
        <ele>280.36</ele>
        <time>2014-08-05T13:38:54Z</time>
      </trkpt>
      <trkpt lat="46.75106" lon="5.60836">
        <ele>280.84</ele>
        <time>2014-08-05T13:39:14Z</time>
      </trkpt>
      <trkpt lat="46.75035" lon="5.60783">
        <ele>281.32</ele>
        <time>2014-08-05T13:39:31Z</time>
      </trkpt>
      <trkpt lat="46.74951" lon="5.60721">
        <ele>281.8</ele>
        <time>2014-08-05T13:39:50Z</time>
      </trkpt>
      <trkpt lat="46.74858" lon="5.60652">
        <ele>284.69</ele>
        <time>2014-08-05T13:40:13Z</time>
      </trkpt>
      <trkpt lat="46.74789" lon="5.606">
        <ele>287.57</ele>
        <time>2014-08-05T13:40:32Z</time>
      </trkpt>
      <trkpt lat="46.74713" lon="5.60544">
        <ele>289.97</ele>
        <time>2014-08-05T13:40:54Z</time>
      </trkpt>
      <trkpt lat="46.74642" lon="5.60489">
        <ele>291.42</ele>
        <time>2014-08-05T13:41:14Z</time>
      </trkpt>
      <trkpt lat="46.74576" lon="5.60419">
        <ele>293.82</ele>
        <time>2014-08-05T13:41:34Z</time>
      </trkpt>
      <trkpt lat="46.74565" lon="5.60406">
        <ele>294.3</ele>
        <time>2014-08-05T13:41:38Z</time>
      </trkpt>
      <trkpt lat="46.74575" lon="5.60425">
        <ele>294.3</ele>
        <time>2014-08-05T13:41:45Z</time>
      </trkpt>
      <trkpt lat="46.74586" lon="5.6044">
        <ele>293.82</ele>
        <time>2014-08-05T13:41:49Z</time>
      </trkpt>
      <trkpt lat="46.74587" lon="5.60431">
        <ele>293.34</ele>
        <time>2014-08-05T13:41:54Z</time>
      </trkpt>
      <trkpt lat="46.74548" lon="5.60384">
        <ele>294.78</ele>
        <time>2014-08-05T13:42:08Z</time>
      </trkpt>
      <trkpt lat="46.7451" lon="5.60337">
        <ele>295.74</ele>
        <time>2014-08-05T13:42:21Z</time>
      </trkpt>
      <trkpt lat="46.74457" lon="5.60275">
        <ele>296.7</ele>
        <time>2014-08-05T13:42:38Z</time>
      </trkpt>
      <trkpt lat="46.744" lon="5.6021">
        <ele>298.15</ele>
        <time>2014-08-05T13:42:55Z</time>
      </trkpt>
      <trkpt lat="46.74334" lon="5.60136">
        <ele>299.11</ele>
        <time>2014-08-05T13:43:14Z</time>
      </trkpt>
      <trkpt lat="46.7425" lon="5.60052">
        <ele>300.07</ele>
        <time>2014-08-05T13:43:36Z</time>
      </trkpt>
      <trkpt lat="46.74171" lon="5.59983">
        <ele>301.03</ele>
        <time>2014-08-05T13:43:54Z</time>
      </trkpt>
      <trkpt lat="46.74098" lon="5.59918">
        <ele>302.47</ele>
        <time>2014-08-05T13:44:12Z</time>
      </trkpt>
      <trkpt lat="46.74017" lon="5.59846">
        <ele>305.84</ele>
        <time>2014-08-05T13:44:34Z</time>
      </trkpt>
      <trkpt lat="46.73946" lon="5.59792">
        <ele>308.72</ele>
        <time>2014-08-05T13:44:54Z</time>
      </trkpt>
      <trkpt lat="46.73878" lon="5.59742">
        <ele>310.64</ele>
        <time>2014-08-05T13:45:14Z</time>
      </trkpt>
      <trkpt lat="46.73801" lon="5.59687">
        <ele>313.05</ele>
        <time>2014-08-05T13:45:36Z</time>
      </trkpt>
      <trkpt lat="46.73728" lon="5.59638">
        <ele>313.53</ele>
        <time>2014-08-05T13:45:55Z</time>
      </trkpt>
      <trkpt lat="46.73677" lon="5.59605">
        <ele>313.05</ele>
        <time>2014-08-05T13:46:08Z</time>
      </trkpt>
      <trkpt lat="46.73648" lon="5.59585">
        <ele>313.05</ele>
        <time>2014-08-05T13:46:20Z</time>
      </trkpt>
      <trkpt lat="46.73648" lon="5.59585">
        <ele>313.05</ele>
        <time>2014-08-05T13:46:40Z</time>
      </trkpt>
      <trkpt lat="46.73647" lon="5.59585">
        <ele>313.53</ele>
        <time>2014-08-05T13:46:56Z</time>
      </trkpt>
      <trkpt lat="46.73608" lon="5.5956">
        <ele>312.57</ele>
        <time>2014-08-05T13:47:07Z</time>
      </trkpt>
      <trkpt lat="46.73532" lon="5.59511">
        <ele>311.6</ele>
        <time>2014-08-05T13:47:24Z</time>
      </trkpt>
      <trkpt lat="46.73448" lon="5.59462">
        <ele>309.2</ele>
        <time>2014-08-05T13:47:38Z</time>
      </trkpt>
      <trkpt lat="46.73371" lon="5.59419">
        <ele>306.32</ele>
        <time>2014-08-05T13:47:49Z</time>
      </trkpt>
      <trkpt lat="46.73356" lon="5.59411">
        <ele>305.36</ele>
        <time>2014-08-05T13:47:51Z</time>
      </trkpt>
      <trkpt lat="46.73284" lon="5.5937">
        <ele>301.99</ele>
        <time>2014-08-05T13:48:00Z</time>
      </trkpt>
      <trkpt lat="46.73267" lon="5.59361">
        <ele>301.51</ele>
        <time>2014-08-05T13:48:02Z</time>
      </trkpt>
      <trkpt lat="46.73232" lon="5.59342">
        <ele>300.07</ele>
        <time>2014-08-05T13:48:06Z</time>
      </trkpt>
      <trkpt lat="46.73142" lon="5.59286">
        <ele>296.22</ele>
        <time>2014-08-05T13:48:17Z</time>
      </trkpt>
      <trkpt lat="46.73043" lon="5.59216">
        <ele>293.82</ele>
        <time>2014-08-05T13:48:32Z</time>
      </trkpt>
      <trkpt lat="46.72963" lon="5.59157">
        <ele>290.94</ele>
        <time>2014-08-05T13:48:43Z</time>
      </trkpt>
      <trkpt lat="46.72872" lon="5.59092">
        <ele>287.57</ele>
        <time>2014-08-05T13:48:54Z</time>
      </trkpt>
      <trkpt lat="46.72769" lon="5.59024">
        <ele>288.53</ele>
        <time>2014-08-05T13:49:08Z</time>
      </trkpt>
      <trkpt lat="46.72704" lon="5.59">
        <ele>289.97</ele>
        <time>2014-08-05T13:49:21Z</time>
      </trkpt>
      <trkpt lat="46.72692" lon="5.58986">
        <ele>289.97</ele>
        <time>2014-08-05T13:49:28Z</time>
      </trkpt>
      <trkpt lat="46.72692" lon="5.58986">
        <ele>289.97</ele>
        <time>2014-08-05T13:49:59Z</time>
      </trkpt>
      <trkpt lat="46.72692" lon="5.58987">
        <ele>289.97</ele>
        <time>2014-08-05T13:50:09Z</time>
      </trkpt>
      <trkpt lat="46.72687" lon="5.58975">
        <ele>289.97</ele>
        <time>2014-08-05T13:50:14Z</time>
      </trkpt>
      <trkpt lat="46.72679" lon="5.58986">
        <ele>289.97</ele>
        <time>2014-08-05T13:50:19Z</time>
      </trkpt>
      <trkpt lat="46.72677" lon="5.58992">
        <ele>289.97</ele>
        <time>2014-08-05T13:50:23Z</time>
      </trkpt>
      <trkpt lat="46.72678" lon="5.58996">
        <ele>290.46</ele>
        <time>2014-08-05T13:50:26Z</time>
      </trkpt>
      <trkpt lat="46.72672" lon="5.59015">
        <ele>290.46</ele>
        <time>2014-08-05T13:50:32Z</time>
      </trkpt>
      <trkpt lat="46.72643" lon="5.5905">
        <ele>289.49</ele>
        <time>2014-08-05T13:50:41Z</time>
      </trkpt>
      <trkpt lat="46.72634" lon="5.59056">
        <ele>289.97</ele>
        <time>2014-08-05T13:50:43Z</time>
      </trkpt>
      <trkpt lat="46.72589" lon="5.59087">
        <ele>290.94</ele>
        <time>2014-08-05T13:50:54Z</time>
      </trkpt>
      <trkpt lat="46.72538" lon="5.59122">
        <ele>291.9</ele>
        <time>2014-08-05T13:51:08Z</time>
      </trkpt>
      <trkpt lat="46.72525" lon="5.59129">
        <ele>291.9</ele>
        <time>2014-08-05T13:51:11Z</time>
      </trkpt>
      <trkpt lat="46.72504" lon="5.59139">
        <ele>291.42</ele>
        <time>2014-08-05T13:51:16Z</time>
      </trkpt>
      <trkpt lat="46.72441" lon="5.59155">
        <ele>289.49</ele>
        <time>2014-08-05T13:51:28Z</time>
      </trkpt>
      <trkpt lat="46.72417" lon="5.5917">
        <ele>289.49</ele>
        <time>2014-08-05T13:51:33Z</time>
      </trkpt>
      <trkpt lat="46.72351" lon="5.59213">
        <ele>290.46</ele>
        <time>2014-08-05T13:51:47Z</time>
      </trkpt>
      <trkpt lat="46.72312" lon="5.59239">
        <ele>292.38</ele>
        <time>2014-08-05T13:51:59Z</time>
      </trkpt>
      <trkpt lat="46.7228" lon="5.59284">
        <ele>295.26</ele>
        <time>2014-08-05T13:52:15Z</time>
      </trkpt>
      <trkpt lat="46.72248" lon="5.59321">
        <ele>297.67</ele>
        <time>2014-08-05T13:52:30Z</time>
      </trkpt>
      <trkpt lat="46.72202" lon="5.59322">
        <ele>298.63</ele>
        <time>2014-08-05T13:52:44Z</time>
      </trkpt>
      <trkpt lat="46.72136" lon="5.59298">
        <ele>297.67</ele>
        <time>2014-08-05T13:52:58Z</time>
      </trkpt>
      <trkpt lat="46.72107" lon="5.59292">
        <ele>297.67</ele>
        <time>2014-08-05T13:53:03Z</time>
      </trkpt>
      <trkpt lat="46.72083" lon="5.593">
        <ele>297.67</ele>
        <time>2014-08-05T13:53:07Z</time>
      </trkpt>
      <trkpt lat="46.72018" lon="5.5935">
        <ele>298.15</ele>
        <time>2014-08-05T13:53:19Z</time>
      </trkpt>
      <trkpt lat="46.72007" lon="5.59354">
        <ele>298.15</ele>
        <time>2014-08-05T13:53:21Z</time>
      </trkpt>
      <trkpt lat="46.71985" lon="5.59357">
        <ele>299.59</ele>
        <time>2014-08-05T13:53:25Z</time>
      </trkpt>
      <trkpt lat="46.71976" lon="5.59357">
        <ele>300.07</ele>
        <time>2014-08-05T13:53:27Z</time>
      </trkpt>
      <trkpt lat="46.71924" lon="5.59356">
        <ele>302.47</ele>
        <time>2014-08-05T13:53:40Z</time>
      </trkpt>
      <trkpt lat="46.719" lon="5.59351">
        <ele>302.95</ele>
        <time>2014-08-05T13:53:46Z</time>
      </trkpt>
      <trkpt lat="46.71826" lon="5.59328">
        <ele>303.91</ele>
        <time>2014-08-05T13:54:04Z</time>
      </trkpt>
      <trkpt lat="46.71748" lon="5.59299">
        <ele>302.47</ele>
        <time>2014-08-05T13:54:18Z</time>
      </trkpt>
      <trkpt lat="46.71713" lon="5.59288">
        <ele>304.39</ele>
        <time>2014-08-05T13:54:25Z</time>
      </trkpt>
      <trkpt lat="46.71674" lon="5.5928">
        <ele>306.32</ele>
        <time>2014-08-05T13:54:36Z</time>
      </trkpt>
      <trkpt lat="46.71665" lon="5.59293">
        <ele>306.8</ele>
        <time>2014-08-05T13:54:40Z</time>
      </trkpt>
      <trkpt lat="46.71666" lon="5.5936">
        <ele>307.76</ele>
        <time>2014-08-05T13:54:55Z</time>
      </trkpt>
      <trkpt lat="46.71673" lon="5.59417">
        <ele>310.16</ele>
        <time>2014-08-05T13:55:11Z</time>
      </trkpt>
      <trkpt lat="46.71681" lon="5.59458">
        <ele>312.57</ele>
        <time>2014-08-05T13:55:24Z</time>
      </trkpt>
      <trkpt lat="46.71686" lon="5.59505">
        <ele>314.97</ele>
        <time>2014-08-05T13:55:38Z</time>
      </trkpt>
      <trkpt lat="46.71679" lon="5.59556">
        <ele>317.85</ele>
        <time>2014-08-05T13:55:52Z</time>
      </trkpt>
      <trkpt lat="46.71658" lon="5.59567">
        <ele>319.78</ele>
        <time>2014-08-05T13:56:02Z</time>
      </trkpt>
      <trkpt lat="46.71627" lon="5.59549">
        <ele>320.26</ele>
        <time>2014-08-05T13:56:13Z</time>
      </trkpt>
      <trkpt lat="46.71586" lon="5.59527">
        <ele>319.78</ele>
        <time>2014-08-05T13:56:26Z</time>
      </trkpt>
      <trkpt lat="46.71572" lon="5.59521">
        <ele>318.81</ele>
        <time>2014-08-05T13:56:29Z</time>
      </trkpt>
      <trkpt lat="46.71549" lon="5.59507">
        <ele>317.85</ele>
        <time>2014-08-05T13:56:38Z</time>
      </trkpt>
      <trkpt lat="46.71546" lon="5.59469">
        <ele>316.41</ele>
        <time>2014-08-05T13:56:44Z</time>
      </trkpt>
      <trkpt lat="46.71522" lon="5.59431">
        <ele>314.97</ele>
        <time>2014-08-05T13:56:51Z</time>
      </trkpt>
      <trkpt lat="46.7147" lon="5.59401">
        <ele>316.41</ele>
        <time>2014-08-05T13:57:05Z</time>
      </trkpt>
      <trkpt lat="46.71422" lon="5.5939">
        <ele>316.89</ele>
        <time>2014-08-05T13:57:19Z</time>
      </trkpt>
      <trkpt lat="46.71417" lon="5.59389">
        <ele>316.89</ele>
        <time>2014-08-05T13:57:30Z</time>
      </trkpt>
      <trkpt lat="46.71395" lon="5.59385">
        <ele>316.89</ele>
        <time>2014-08-05T13:57:38Z</time>
      </trkpt>
      <trkpt lat="46.71387" lon="5.5938">
        <ele>316.89</ele>
        <time>2014-08-05T13:57:40Z</time>
      </trkpt>
      <trkpt lat="46.71375" lon="5.59371">
        <ele>316.41</ele>
        <time>2014-08-05T13:57:43Z</time>
      </trkpt>
      <trkpt lat="46.71368" lon="5.59363">
        <ele>316.89</ele>
        <time>2014-08-05T13:57:45Z</time>
      </trkpt>
      <trkpt lat="46.71347" lon="5.59327">
        <ele>317.37</ele>
        <time>2014-08-05T13:57:53Z</time>
      </trkpt>
      <trkpt lat="46.71295" lon="5.59289">
        <ele>319.3</ele>
        <time>2014-08-05T13:58:09Z</time>
      </trkpt>
      <trkpt lat="46.71244" lon="5.59278">
        <ele>320.74</ele>
        <time>2014-08-05T13:58:25Z</time>
      </trkpt>
      <trkpt lat="46.71224" lon="5.59267">
        <ele>321.22</ele>
        <time>2014-08-05T13:58:31Z</time>
      </trkpt>
      <trkpt lat="46.71211" lon="5.59262">
        <ele>320.74</ele>
        <time>2014-08-05T13:58:34Z</time>
      </trkpt>
      <trkpt lat="46.71134" lon="5.5926">
        <ele>318.33</ele>
        <time>2014-08-05T13:58:48Z</time>
      </trkpt>
      <trkpt lat="46.71076" lon="5.59286">
        <ele>319.78</ele>
        <time>2014-08-05T13:59:02Z</time>
      </trkpt>
      <trkpt lat="46.71035" lon="5.59309">
        <ele>322.66</ele>
        <time>2014-08-05T13:59:18Z</time>
      </trkpt>
      <trkpt lat="46.7099" lon="5.59315">
        <ele>325.06</ele>
        <time>2014-08-05T13:59:35Z</time>
      </trkpt>
      <trkpt lat="46.70941" lon="5.59306">
        <ele>327.95</ele>
        <time>2014-08-05T13:59:54Z</time>
      </trkpt>
      <trkpt lat="46.70901" lon="5.59304">
        <ele>330.35</ele>
        <time>2014-08-05T14:00:10Z</time>
      </trkpt>
      <trkpt lat="46.70862" lon="5.59303">
        <ele>331.79</ele>
        <time>2014-08-05T14:00:26Z</time>
      </trkpt>
      <trkpt lat="46.70824" lon="5.59302">
        <ele>334.2</ele>
        <time>2014-08-05T14:00:41Z</time>
      </trkpt>
      <trkpt lat="46.70779" lon="5.59302">
        <ele>335.64</ele>
        <time>2014-08-05T14:00:59Z</time>
      </trkpt>
      <trkpt lat="46.70736" lon="5.59303">
        <ele>337.56</ele>
        <time>2014-08-05T14:01:16Z</time>
      </trkpt>
      <trkpt lat="46.70692" lon="5.59301">
        <ele>339.96</ele>
        <time>2014-08-05T14:01:34Z</time>
      </trkpt>
      <trkpt lat="46.70649" lon="5.59302">
        <ele>342.37</ele>
        <time>2014-08-05T14:01:51Z</time>
      </trkpt>
      <trkpt lat="46.70604" lon="5.59301">
        <ele>344.29</ele>
        <time>2014-08-05T14:02:09Z</time>
      </trkpt>
      <trkpt lat="46.70556" lon="5.59301">
        <ele>346.21</ele>
        <time>2014-08-05T14:02:28Z</time>
      </trkpt>
      <trkpt lat="46.70506" lon="5.593">
        <ele>348.62</ele>
        <time>2014-08-05T14:02:47Z</time>
      </trkpt>
      <trkpt lat="46.70467" lon="5.59306">
        <ele>350.54</ele>
        <time>2014-08-05T14:03:03Z</time>
      </trkpt>
      <trkpt lat="46.70435" lon="5.59326">
        <ele>352.46</ele>
        <time>2014-08-05T14:03:18Z</time>
      </trkpt>
      <trkpt lat="46.70393" lon="5.59357">
        <ele>354.38</ele>
        <time>2014-08-05T14:03:36Z</time>
      </trkpt>
      <trkpt lat="46.7038" lon="5.59368">
        <ele>354.86</ele>
        <time>2014-08-05T14:03:47Z</time>
      </trkpt>
      <trkpt lat="46.70379" lon="5.59368">
        <ele>355.34</ele>
        <time>2014-08-05T14:03:53Z</time>
      </trkpt>
      <trkpt lat="46.7035" lon="5.594">
        <ele>357.27</ele>
        <time>2014-08-05T14:04:06Z</time>
      </trkpt>
      <trkpt lat="46.70319" lon="5.59438">
        <ele>358.71</ele>
        <time>2014-08-05T14:04:20Z</time>
      </trkpt>
      <trkpt lat="46.70289" lon="5.59478">
        <ele>360.63</ele>
        <time>2014-08-05T14:04:35Z</time>
      </trkpt>
      <trkpt lat="46.70262" lon="5.59527">
        <ele>362.55</ele>
        <time>2014-08-05T14:04:53Z</time>
      </trkpt>
      <trkpt lat="46.70262" lon="5.59527">
        <ele>362.07</ele>
        <time>2014-08-05T14:05:08Z</time>
      </trkpt>
      <trkpt lat="46.70261" lon="5.59527">
        <ele>361.11</ele>
        <time>2014-08-05T14:05:33Z</time>
      </trkpt>
      <trkpt lat="46.70256" lon="5.59548">
        <ele>363.04</ele>
        <time>2014-08-05T14:07:19Z</time>
      </trkpt>
      <trkpt lat="46.7025" lon="5.59561">
        <ele>363.52</ele>
        <time>2014-08-05T14:07:24Z</time>
      </trkpt>
      <trkpt lat="46.7023" lon="5.59618">
        <ele>364.96</ele>
        <time>2014-08-05T14:07:40Z</time>
      </trkpt>
      <trkpt lat="46.70212" lon="5.59669">
        <ele>366.4</ele>
        <time>2014-08-05T14:07:54Z</time>
      </trkpt>
      <trkpt lat="46.7019" lon="5.59712">
        <ele>368.32</ele>
        <time>2014-08-05T14:08:06Z</time>
      </trkpt>
      <trkpt lat="46.70154" lon="5.59762">
        <ele>369.76</ele>
        <time>2014-08-05T14:08:22Z</time>
      </trkpt>
      <trkpt lat="46.70117" lon="5.59819">
        <ele>371.21</ele>
        <time>2014-08-05T14:08:38Z</time>
      </trkpt>
      <trkpt lat="46.70094" lon="5.59855">
        <ele>372.65</ele>
        <time>2014-08-05T14:08:48Z</time>
      </trkpt>
      <trkpt lat="46.7007" lon="5.59898">
        <ele>373.61</ele>
        <time>2014-08-05T14:08:59Z</time>
      </trkpt>
      <trkpt lat="46.70038" lon="5.59954">
        <ele>376.01</ele>
        <time>2014-08-05T14:09:14Z</time>
      </trkpt>
      <trkpt lat="46.70011" lon="5.59969">
        <ele>378.42</ele>
        <time>2014-08-05T14:09:25Z</time>
      </trkpt>
      <trkpt lat="46.69973" lon="5.59955">
        <ele>380.82</ele>
        <time>2014-08-05T14:09:39Z</time>
      </trkpt>
      <trkpt lat="46.69927" lon="5.59931">
        <ele>383.22</ele>
        <time>2014-08-05T14:09:56Z</time>
      </trkpt>
      <trkpt lat="46.69892" lon="5.59906">
        <ele>385.15</ele>
        <time>2014-08-05T14:10:11Z</time>
      </trkpt>
      <trkpt lat="46.69855" lon="5.59877">
        <ele>387.55</ele>
        <time>2014-08-05T14:10:27Z</time>
      </trkpt>
      <trkpt lat="46.69823" lon="5.59841">
        <ele>389.47</ele>
        <time>2014-08-05T14:10:42Z</time>
      </trkpt>
      <trkpt lat="46.69796" lon="5.59804">
        <ele>390.43</ele>
        <time>2014-08-05T14:10:54Z</time>
      </trkpt>
      <trkpt lat="46.69794" lon="5.59798">
        <ele>390.43</ele>
        <time>2014-08-05T14:11:08Z</time>
      </trkpt>
      <trkpt lat="46.69794" lon="5.59798">
        <ele>390.43</ele>
        <time>2014-08-05T14:11:30Z</time>
      </trkpt>
      <trkpt lat="46.69793" lon="5.59798">
        <ele>390.43</ele>
        <time>2014-08-05T14:11:55Z</time>
      </trkpt>
      <trkpt lat="46.69792" lon="5.59797">
        <ele>390.43</ele>
        <time>2014-08-05T14:12:16Z</time>
      </trkpt>
      <trkpt lat="46.69793" lon="5.59795">
        <ele>390.43</ele>
        <time>2014-08-05T14:12:24Z</time>
      </trkpt>
      <trkpt lat="46.69781" lon="5.59784">
        <ele>390.91</ele>
        <time>2014-08-05T14:12:32Z</time>
      </trkpt>
      <trkpt lat="46.69755" lon="5.59768">
        <ele>390.43</ele>
        <time>2014-08-05T14:12:41Z</time>
      </trkpt>
      <trkpt lat="46.6974" lon="5.59755">
        <ele>389.47</ele>
        <time>2014-08-05T14:12:45Z</time>
      </trkpt>
      <trkpt lat="46.69728" lon="5.59748">
        <ele>388.99</ele>
        <time>2014-08-05T14:12:48Z</time>
      </trkpt>
      <trkpt lat="46.6971" lon="5.59735">
        <ele>388.03</ele>
        <time>2014-08-05T14:12:52Z</time>
      </trkpt>
      <trkpt lat="46.69684" lon="5.59715">
        <ele>386.59</ele>
        <time>2014-08-05T14:12:57Z</time>
      </trkpt>
      <trkpt lat="46.69663" lon="5.5969">
        <ele>385.15</ele>
        <time>2014-08-05T14:13:01Z</time>
      </trkpt>
      <trkpt lat="46.69621" lon="5.59626">
        <ele>381.3</ele>
        <time>2014-08-05T14:13:08Z</time>
      </trkpt>
      <trkpt lat="46.69607" lon="5.59605">
        <ele>379.38</ele>
        <time>2014-08-05T14:13:10Z</time>
      </trkpt>
      <trkpt lat="46.69563" lon="5.5958">
        <ele>375.05</ele>
        <time>2014-08-05T14:13:15Z</time>
      </trkpt>
      <trkpt lat="46.69538" lon="5.59552">
        <ele>371.21</ele>
        <time>2014-08-05T14:13:18Z</time>
      </trkpt>
      <trkpt lat="46.6953" lon="5.5954">
        <ele>370.73</ele>
        <time>2014-08-05T14:13:19Z</time>
      </trkpt>
      <trkpt lat="46.69505" lon="5.59486">
        <ele>366.88</ele>
        <time>2014-08-05T14:13:23Z</time>
      </trkpt>
      <trkpt lat="46.69464" lon="5.59436">
        <ele>363.04</ele>
        <time>2014-08-05T14:13:28Z</time>
      </trkpt>
      <trkpt lat="46.69441" lon="5.59376">
        <ele>361.11</ele>
        <time>2014-08-05T14:13:33Z</time>
      </trkpt>
      <trkpt lat="46.69437" lon="5.59335">
        <ele>359.67</ele>
        <time>2014-08-05T14:13:36Z</time>
      </trkpt>
      <trkpt lat="46.69436" lon="5.59322">
        <ele>359.19</ele>
        <time>2014-08-05T14:13:37Z</time>
      </trkpt>
      <trkpt lat="46.69423" lon="5.59283">
        <ele>357.27</ele>
        <time>2014-08-05T14:13:41Z</time>
      </trkpt>
      <trkpt lat="46.69405" lon="5.59257">
        <ele>354.38</ele>
        <time>2014-08-05T14:13:50Z</time>
      </trkpt>
      <trkpt lat="46.69397" lon="5.59234">
        <ele>353.42</ele>
        <time>2014-08-05T14:13:55Z</time>
      </trkpt>
      <trkpt lat="46.69393" lon="5.59216">
        <ele>351.98</ele>
        <time>2014-08-05T14:13:57Z</time>
      </trkpt>
      <trkpt lat="46.69367" lon="5.59177">
        <ele>349.1</ele>
        <time>2014-08-05T14:14:02Z</time>
      </trkpt>
      <trkpt lat="46.69318" lon="5.59141">
        <ele>345.25</ele>
        <time>2014-08-05T14:14:08Z</time>
      </trkpt>
      <trkpt lat="46.69223" lon="5.59076">
        <ele>342.85</ele>
        <time>2014-08-05T14:14:20Z</time>
      </trkpt>
      <trkpt lat="46.69154" lon="5.59059">
        <ele>339.96</ele>
        <time>2014-08-05T14:14:29Z</time>
      </trkpt>
      <trkpt lat="46.69129" lon="5.59046">
        <ele>338.52</ele>
        <time>2014-08-05T14:14:32Z</time>
      </trkpt>
      <trkpt lat="46.69121" lon="5.59037">
        <ele>337.56</ele>
        <time>2014-08-05T14:14:33Z</time>
      </trkpt>
      <trkpt lat="46.69107" lon="5.59018">
        <ele>337.08</ele>
        <time>2014-08-05T14:14:35Z</time>
      </trkpt>
      <trkpt lat="46.69025" lon="5.58966">
        <ele>334.2</ele>
        <time>2014-08-05T14:14:45Z</time>
      </trkpt>
      <trkpt lat="46.69016" lon="5.5896">
        <ele>333.71</ele>
        <time>2014-08-05T14:14:46Z</time>
      </trkpt>
      <trkpt lat="46.68981" lon="5.58896">
        <ele>331.31</ele>
        <time>2014-08-05T14:14:52Z</time>
      </trkpt>
      <trkpt lat="46.6898" lon="5.58884">
        <ele>330.83</ele>
        <time>2014-08-05T14:14:53Z</time>
      </trkpt>
      <trkpt lat="46.68976" lon="5.58846">
        <ele>329.39</ele>
        <time>2014-08-05T14:14:56Z</time>
      </trkpt>
      <trkpt lat="46.68926" lon="5.58741">
        <ele>326.02</ele>
        <time>2014-08-05T14:15:06Z</time>
      </trkpt>
      <trkpt lat="46.68857" lon="5.58625">
        <ele>322.66</ele>
        <time>2014-08-05T14:15:17Z</time>
      </trkpt>
      <trkpt lat="46.68801" lon="5.58552">
        <ele>319.3</ele>
        <time>2014-08-05T14:15:25Z</time>
      </trkpt>
      <trkpt lat="46.68731" lon="5.58462">
        <ele>318.33</ele>
        <time>2014-08-05T14:15:37Z</time>
      </trkpt>
      <trkpt lat="46.68727" lon="5.58456">
        <ele>318.33</ele>
        <time>2014-08-05T14:15:38Z</time>
      </trkpt>
      <trkpt lat="46.68721" lon="5.58446">
        <ele>318.81</ele>
        <time>2014-08-05T14:15:40Z</time>
      </trkpt>
      <trkpt lat="46.68686" lon="5.58437">
        <ele>319.3</ele>
        <time>2014-08-05T14:15:48Z</time>
      </trkpt>
      <trkpt lat="46.68636" lon="5.58436">
        <ele>318.81</ele>
        <time>2014-08-05T14:15:58Z</time>
      </trkpt>
      <trkpt lat="46.6855" lon="5.58419">
        <ele>317.37</ele>
        <time>2014-08-05T14:16:13Z</time>
      </trkpt>
      <trkpt lat="46.68461" lon="5.58398">
        <ele>317.37</ele>
        <time>2014-08-05T14:16:29Z</time>
      </trkpt>
      <trkpt lat="46.68385" lon="5.58382">
        <ele>317.85</ele>
        <time>2014-08-05T14:16:43Z</time>
      </trkpt>
      <trkpt lat="46.6838" lon="5.5838">
        <ele>317.85</ele>
        <time>2014-08-05T14:16:44Z</time>
      </trkpt>
      <trkpt lat="46.68315" lon="5.58367">
        <ele>318.33</ele>
        <time>2014-08-05T14:16:56Z</time>
      </trkpt>
      <trkpt lat="46.68227" lon="5.58353">
        <ele>317.85</ele>
        <time>2014-08-05T14:17:11Z</time>
      </trkpt>
      <trkpt lat="46.68216" lon="5.5835">
        <ele>317.85</ele>
        <time>2014-08-05T14:17:13Z</time>
      </trkpt>
      <trkpt lat="46.68202" lon="5.5832">
        <ele>317.85</ele>
        <time>2014-08-05T14:17:18Z</time>
      </trkpt>
      <trkpt lat="46.6821" lon="5.58155">
        <ele>316.41</ele>
        <time>2014-08-05T14:17:37Z</time>
      </trkpt>
      <trkpt lat="46.68214" lon="5.58129">
        <ele>316.41</ele>
        <time>2014-08-05T14:17:40Z</time>
      </trkpt>
      <trkpt lat="46.68223" lon="5.58099">
        <ele>316.41</ele>
        <time>2014-08-05T14:17:44Z</time>
      </trkpt>
      <trkpt lat="46.68257" lon="5.58026">
        <ele>316.89</ele>
        <time>2014-08-05T14:17:55Z</time>
      </trkpt>
      <trkpt lat="46.68248" lon="5.57983">
        <ele>315.45</ele>
        <time>2014-08-05T14:18:02Z</time>
      </trkpt>
      <trkpt lat="46.68201" lon="5.57933">
        <ele>311.6</ele>
        <time>2014-08-05T14:18:10Z</time>
      </trkpt>
      <trkpt lat="46.68165" lon="5.57853">
        <ele>307.28</ele>
        <time>2014-08-05T14:18:17Z</time>
      </trkpt>
      <trkpt lat="46.68156" lon="5.57828">
        <ele>306.32</ele>
        <time>2014-08-05T14:18:19Z</time>
      </trkpt>
      <trkpt lat="46.68098" lon="5.57667">
        <ele>304.39</ele>
        <time>2014-08-05T14:18:34Z</time>
      </trkpt>
      <trkpt lat="46.68079" lon="5.57615">
        <ele>304.39</ele>
        <time>2014-08-05T14:18:40Z</time>
      </trkpt>
      <trkpt lat="46.68038" lon="5.57505">
        <ele>303.91</ele>
        <time>2014-08-05T14:18:55Z</time>
      </trkpt>
      <trkpt lat="46.67999" lon="5.57406">
        <ele>304.39</ele>
        <time>2014-08-05T14:19:10Z</time>
      </trkpt>
      <trkpt lat="46.67986" lon="5.57375">
        <ele>304.39</ele>
        <time>2014-08-05T14:19:15Z</time>
      </trkpt>
      <trkpt lat="46.67967" lon="5.57321">
        <ele>303.43</ele>
        <time>2014-08-05T14:19:25Z</time>
      </trkpt>
      <trkpt lat="46.67959" lon="5.57302">
        <ele>303.43</ele>
        <time>2014-08-05T14:19:29Z</time>
      </trkpt>
      <trkpt lat="46.67956" lon="5.57278">
        <ele>303.43</ele>
        <time>2014-08-05T14:19:33Z</time>
      </trkpt>
      <trkpt lat="46.67965" lon="5.57258">
        <ele>303.43</ele>
        <time>2014-08-05T14:19:39Z</time>
      </trkpt>
      <trkpt lat="46.67995" lon="5.57228">
        <ele>304.88</ele>
        <time>2014-08-05T14:19:52Z</time>
      </trkpt>
      <trkpt lat="46.68016" lon="5.57199">
        <ele>305.36</ele>
        <time>2014-08-05T14:20:02Z</time>
      </trkpt>
      <trkpt lat="46.68034" lon="5.57176">
        <ele>306.32</ele>
        <time>2014-08-05T14:20:09Z</time>
      </trkpt>
      <trkpt lat="46.68075" lon="5.57127">
        <ele>307.28</ele>
        <time>2014-08-05T14:20:23Z</time>
      </trkpt>
      <trkpt lat="46.68138" lon="5.57064">
        <ele>306.32</ele>
        <time>2014-08-05T14:20:40Z</time>
      </trkpt>
      <trkpt lat="46.68177" lon="5.57022">
        <ele>304.88</ele>
        <time>2014-08-05T14:20:49Z</time>
      </trkpt>
      <trkpt lat="46.68196" lon="5.57">
        <ele>303.43</ele>
        <time>2014-08-05T14:20:53Z</time>
      </trkpt>
      <trkpt lat="46.68242" lon="5.5695">
        <ele>300.07</ele>
        <time>2014-08-05T14:21:01Z</time>
      </trkpt>
      <trkpt lat="46.68276" lon="5.56913">
        <ele>296.22</ele>
        <time>2014-08-05T14:21:06Z</time>
      </trkpt>
      <trkpt lat="46.68306" lon="5.5688">
        <ele>292.38</ele>
        <time>2014-08-05T14:21:10Z</time>
      </trkpt>
      <trkpt lat="46.68313" lon="5.56871">
        <ele>291.42</ele>
        <time>2014-08-05T14:21:11Z</time>
      </trkpt>
      <trkpt lat="46.68355" lon="5.56863">
        <ele>287.09</ele>
        <time>2014-08-05T14:21:16Z</time>
      </trkpt>
      <trkpt lat="46.68363" lon="5.56864">
        <ele>285.65</ele>
        <time>2014-08-05T14:21:17Z</time>
      </trkpt>
      <trkpt lat="46.68399" lon="5.56839">
        <ele>281.8</ele>
        <time>2014-08-05T14:21:22Z</time>
      </trkpt>
      <trkpt lat="46.68426" lon="5.56844">
        <ele>280.36</ele>
        <time>2014-08-05T14:21:26Z</time>
      </trkpt>
      <trkpt lat="46.68449" lon="5.56863">
        <ele>277.96</ele>
        <time>2014-08-05T14:21:36Z</time>
      </trkpt>
      <trkpt lat="46.68452" lon="5.56866">
        <ele>277</ele>
        <time>2014-08-05T14:21:37Z</time>
      </trkpt>
      <trkpt lat="46.68456" lon="5.56873">
        <ele>276.52</ele>
        <time>2014-08-05T14:21:39Z</time>
      </trkpt>
      <trkpt lat="46.68458" lon="5.56879">
        <ele>276.04</ele>
        <time>2014-08-05T14:21:47Z</time>
      </trkpt>
      <trkpt lat="46.68458" lon="5.56879">
        <ele>275.56</ele>
        <time>2014-08-05T14:22:07Z</time>
      </trkpt>
    </trkseg>
  </trk>
</gpx>